[[{"header":{"parameterUnit":"m.s-1","parameterCategory":1,"la1":30.6,"la2":29.2853,"lo1":-89.7004,"lo2":-87.6739,"dy":0.0162,"dx":0.0183,"nx":112,"ny":82,"refTime":"2025-12-10T12:00:00:Z","depth":0,"parameterNumber":2,"parameterNumberName":"U-component_of_WINDS"},"data":[0.0,0.0,0.0,0.0,0.0,0.0,0.0,0.0,0.0,0.0,0.0,0.0,0.0,0.0,0.0,0.0,0.0,0.0,0.0,0.0,0.0,0.0,0.0,0.0,0.0,0.0,0.0,0.0,0.0,0.0,0.0,0.0,0.0,0.0,0.0,0.0,0.0,0.0,0.0,0.0,0.0,0.0,0.0,0.0,0.0,0.0,0.0,0.0,0.0,0.0,0.0,0.0,0.0,0.0,0.0,0.0,0.0,0.0,0.0,0.0,0.0,0.0,0.0,0.0,0.0,0.0,0.0,0.0,0.0,0.0,0.0,0.0,0.0,0.0,0.0,0.0,0.0,0.0,0.0,0.0,0.0,0.0,0.0,0.0,0.0,0.0,0.0,0.0,0.0,0.0,-1.926,-2.1464,-2.3358,-2.4383,-2.4209,-2.3355,-2.1743,-1.9255,0.0,0.0,0.0,0.0,0.0,0.0,0.0,0.0,0.0,0.0,0.0,0.0,0.0,0.0,0.0,0.0,0.0,0.0,0.0,0.0,0.0,0.0,0.0,0.0,0.0,0.0,0.0,0.0,0.0,0.0,0.0,0.0,0.0,0.0,0.0,0.0,0.0,0.0,0.0,0.0,0.0,0.0,0.0,0.0,0.0,0.0,0.0,0.0,0.0,0.0,0.0,0.0,0.0,0.0,0.0,0.0,0.0,0.0,0.0,0.0,0.0,0.0,0.0,0.0,0.0,0.0,0.0,0.0,0.0,0.0,0.0,0.0,0.0,0.0,0.0,0.0,0.0,0.0,0.0,0.0,0.0,0.0,0.0,0.0,0.0,0.0,0.0,0.0,0.0,0.0,0.0,0.0,0.0,0.0,0.0,0.0,0.0,0.0,0.0,0.0,0.0,0.0,0.0,0.0,-1.9228,-2.3537,-2.4153,-2.4219,-2.419,-2.2832,-2.1165,-1.9219,0.0,0.0,0.0,0.0,0.0,0.0,0.0,0.0,0.0,0.0,0.0,0.0,0.0,0.0,0.0,0.0,0.0,0.0,0.0,0.0,0.0,0.0,0.0,0.0,0.0,0.0,0.0,0.0,0.0,0.0,0.0,0.0,0.0,0.0,0.0,0.0,0.0,0.0,0.0,0.0,0.0,0.0,0.0,0.0,0.0,0.0,0.0,0.0,0.0,0.0,0.0,0.0,0.0,0.0,0.0,0.0,0.0,0.0,0.0,0.0,0.0,0.0,0.0,0.0,0.0,0.0,0.0,0.0,0.0,0.0,0.0,0.0,0.0,0.0,0.0,0.0,0.0,0.0,0.0,0.0,0.0,0.0,0.0,0.0,0.0,0.0,0.0,0.0,0.0,0.0,0.0,0.0,0.0,0.0,0.0,0.0,0.0,0.0,0.0,0.0,0.0,0.0,0.0,-1.8313,-2.055,-2.3978,-2.4256,-2.4199,-2.4199,-2.2721,-2.0802,-1.8494,-1.6025,0.0,0.0,0.0,0.0,0.0,0.0,0.0,0.0,0.0,0.0,0.0,0.0,0.0,0.0,0.0,0.0,0.0,0.0,0.0,0.0,0.0,0.0,0.0,0.0,0.0,0.0,0.0,0.0,0.0,0.0,0.0,0.0,0.0,0.0,0.0,0.0,0.0,0.0,0.0,0.0,0.0,0.0,0.0,0.0,0.0,0.0,0.0,0.0,0.0,0.0,0.0,0.0,0.0,0.0,0.0,0.0,0.0,0.0,0.0,0.0,0.0,0.0,0.0,0.0,0.0,0.0,0.0,0.0,0.0,0.0,0.0,0.0,0.0,0.0,0.0,0.0,0.0,0.0,0.0,0.0,0.0,0.0,0.0,0.0,0.0,0.0,0.0,0.0,0.0,0.0,0.0,0.0,0.0,0.0,0.0,0.0,0.0,0.0,0.0,0.0,0.0,0.0,-2.0331,-2.1872,-2.397,-2.4199,-2.4199,-2.4199,-2.2354,-2.0209,-1.7845,-1.5078,0.0,0.0,0.0,0.0,0.0,0.0,0.0,0.0,0.0,0.0,0.0,0.0,0.0,0.0,0.0,0.0,0.0,0.0,0.0,0.0,0.0,0.0,0.0,0.0,0.0,0.0,0.0,0.0,0.0,0.0,0.0,0.0,0.0,0.0,0.0,0.0,0.0,0.0,0.0,0.0,0.0,0.0,0.0,0.0,0.0,0.0,0.0,0.0,0.0,0.0,0.0,0.0,0.0,0.0,0.0,0.0,0.0,0.0,0.0,0.0,0.0,0.0,0.0,0.0,0.0,0.0,0.0,0.0,0.0,0.0,0.0,0.0,0.0,0.0,0.0,0.0,0.0,0.0,0.0,0.0,0.0,0.0,0.0,0.0,0.0,0.0,0.0,0.0,0.0,0.0,0.0,0.0,0.0,0.0,0.0,0.0,0.0,0.0,0.0,0.0,0.0,0.0,-2.0428,-2.2495,-2.4034,-2.4199,-2.4199,-2.4199,-2.129,-1.8961,-1.7773,-1.4029,0.0,0.0,0.0,0.0,0.0,0.0,0.0,0.0,0.0,0.0,0.0,0.0,0.0,0.0,0.0,0.0,0.0,0.0,0.0,0.0,0.0,0.0,0.0,0.0,0.0,0.0,0.0,0.0,0.0,0.0,0.0,0.0,0.0,0.0,0.0,0.0,0.0,0.0,0.0,0.0,0.0,0.0,0.0,0.0,0.0,0.0,0.0,0.0,0.0,0.0,0.0,0.0,0.0,0.0,0.0,0.0,0.0,0.0,0.0,0.0,0.0,0.0,0.0,0.0,0.0,0.0,0.0,0.0,0.0,0.0,0.0,0.0,0.0,0.0,0.0,0.0,0.0,0.0,0.0,0.0,0.0,0.0,0.0,0.0,0.0,0.0,0.0,0.0,0.0,0.0,0.0,0.0,0.0,0.0,0.0,0.0,0.0,0.0,0.0,0.0,0.0,0.0,-1.879,-2.1115,0.0,-2.3456,-2.3456,-2.3456,-2.1859,-1.9525,-1.6396,0.0,0.0,0.0,0.0,0.0,0.0,0.0,0.0,0.0,0.0,0.0,0.0,0.0,0.0,0.0,0.0,0.0,0.0,0.0,0.0,0.0,0.0,0.0,0.0,0.0,0.0,0.0,0.0,0.0,0.0,0.0,0.0,0.0,0.0,0.0,0.0,0.0,0.0,0.0,0.0,0.0,0.0,0.0,0.0,0.0,0.0,0.0,0.0,0.0,0.0,0.0,0.0,0.0,0.0,0.0,0.0,0.0,0.0,0.0,0.0,0.0,0.0,0.0,0.0,0.0,0.0,0.0,0.0,0.0,0.0,0.0,0.0,0.0,0.0,0.0,0.0,0.0,0.0,0.0,0.0,0.0,0.0,0.0,0.0,0.0,0.0,0.0,0.0,0.0,0.0,0.0,0.0,0.0,0.0,0.0,0.0,0.0,0.0,0.0,0.0,0.0,0.0,-1.5922,-1.8264,-2.0406,0.0,-2.2199,-2.2107,-2.185,-2.0569,-1.8383,-1.512,0.0,0.0,0.0,0.0,0.0,0.0,0.0,0.0,0.0,0.0,0.0,0.0,0.0,0.0,0.0,0.0,0.0,0.0,0.0,0.0,0.0,0.0,0.0,0.0,0.0,0.0,0.0,0.0,0.0,0.0,0.0,0.0,0.0,0.0,0.0,0.0,0.0,0.0,0.0,0.0,0.0,0.0,0.0,0.0,0.0,0.0,0.0,0.0,0.0,0.0,0.0,0.0,0.0,0.0,0.0,0.0,0.0,0.0,0.0,0.0,0.0,0.0,0.0,0.0,0.0,0.0,0.0,0.0,0.0,0.0,0.0,0.0,0.0,0.0,0.0,0.0,0.0,0.0,0.0,0.0,0.0,0.0,0.0,0.0,0.0,0.0,0.0,0.0,0.0,0.0,0.0,0.0,0.0,0.0,0.0,0.0,0.0,0.0,0.0,0.0,0.0,0.0,-1.6777,-1.9179,-2.0682,-2.0499,-2.0466,-2.0161,-1.9344,-1.6911,-1.5035,0.0,0.0,0.0,0.0,0.0,0.0,0.0,0.0,0.0,0.0,0.0,0.0,0.0,0.0,0.0,0.0,0.0,0.0,0.0,0.0,0.0,0.0,0.0,0.0,0.0,0.0,0.0,0.0,0.0,0.0,0.0,0.0,0.0,0.0,0.0,0.0,0.0,0.0,0.0,0.0,0.0,0.0,0.0,0.0,0.0,0.0,0.0,0.0,0.0,0.0,0.0,0.0,0.0,0.0,0.0,0.0,0.0,0.0,0.0,0.0,0.0,0.0,0.0,0.0,0.0,0.0,0.0,0.0,0.0,0.0,0.0,0.0,0.0,0.0,0.0,0.0,0.0,0.0,0.0,0.0,0.0,0.0,0.0,0.0,0.0,0.0,0.0,0.0,0.0,0.0,0.0,0.0,0.0,0.0,0.0,0.0,0.0,0.0,0.0,0.0,0.0,0.0,0.0,-1.4403,-1.6556,-1.8236,-1.8748,-1.8812,-1.8711,-1.8473,-1.7621,-1.5987,-1.3421,0.0,0.0,0.0,0.0,0.0,0.0,0.0,0.0,0.0,0.0,0.0,0.0,0.0,0.0,0.0,0.0,0.0,0.0,0.0,0.0,0.0,0.0,0.0,0.0,0.0,0.0,0.0,0.0,0.0,0.0,0.0,0.0,0.0,0.0,0.0,0.0,0.0,0.0,0.0,0.0,0.0,0.0,0.0,0.0,0.0,0.0,0.0,0.0,0.0,0.0,0.0,0.0,0.0,0.0,0.0,0.0,0.0,0.0,0.0,0.0,0.0,0.0,0.0,0.0,0.0,0.0,0.0,0.0,0.0,0.0,0.0,0.0,0.0,0.0,0.0,0.0,0.0,0.0,0.0,0.0,0.0,0.0,0.0,0.0,0.0,0.0,0.0,0.0,0.0,0.0,0.0,0.0,0.0,0.0,0.0,0.0,0.0,0.0,0.0,0.0,0.0,0.0,-1.3402,-1.5519,-1.7047,-1.7137,-1.7142,-1.7014,-1.6692,-1.6412,-1.5155,-1.2573,0.0,0.0,0.0,0.0,0.0,0.0,0.0,0.0,0.0,0.0,0.0,0.0,0.0,0.0,0.0,0.0,0.0,0.0,0.0,0.0,0.0,0.0,0.0,0.0,0.0,0.0,0.0,0.0,0.0,0.0,0.0,0.0,0.0,0.0,0.0,0.0,0.0,0.0,0.0,0.0,0.0,0.0,0.0,0.0,0.0,0.0,0.0,0.0,0.0,0.0,0.0,0.0,0.0,0.0,0.0,0.0,0.0,0.0,0.0,0.0,0.0,0.0,0.0,0.0,0.0,0.0,0.0,0.0,0.0,0.0,0.0,0.0,0.0,0.0,0.0,0.0,0.0,0.0,0.0,0.0,0.0,0.0,0.0,0.0,0.0,0.0,0.0,0.0,0.0,0.0,0.0,0.0,0.0,0.0,0.0,0.0,0.0,0.0,0.0,0.0,0.0,0.0,-1.33,-1.5442,-1.6609,-1.5689,-1.5582,-1.5288,-1.4552,-1.4127,-1.3303,-1.1889,0.0,0.0,0.0,0.0,0.0,0.0,0.0,0.0,0.0,0.0,0.0,0.0,0.0,0.0,0.0,0.0,0.0,0.0,0.0,0.0,0.0,0.0,0.0,0.0,0.0,0.0,0.0,0.0,0.0,0.0,0.0,0.0,0.0,0.0,0.0,0.0,0.0,0.0,0.0,0.0,0.0,0.0,0.0,0.0,0.0,0.0,0.0,0.0,0.0,0.0,0.0,0.0,0.0,0.0,0.0,0.0,0.0,0.0,0.0,0.0,-1.6914,0.0,0.0,0.0,0.0,0.0,0.0,0.0,0.0,0.0,0.0,0.0,0.0,0.0,0.0,0.0,0.0,0.0,0.0,0.0,0.0,0.0,0.0,0.0,0.0,0.0,0.0,0.0,0.0,0.0,0.0,0.0,0.0,0.0,0.0,0.0,0.0,0.0,0.0,0.0,0.0,0.0,-1.2464,-1.4082,-1.5111,-1.4786,-1.4765,-1.4692,-1.4506,-1.4127,-1.3529,-1.2615,-1.1645,0.0,0.0,0.0,0.0,0.0,0.0,0.0,0.0,0.0,0.0,0.0,0.0,0.0,0.0,0.0,0.0,0.0,0.0,0.0,0.0,0.0,0.0,0.0,0.0,0.0,0.0,0.0,0.0,0.0,0.0,0.0,0.0,0.0,0.0,0.0,0.0,0.0,0.0,0.0,0.0,0.0,0.0,0.0,0.0,0.0,0.0,0.0,0.0,0.0,0.0,0.0,0.0,0.0,0.0,0.0,0.0,0.0,0.0,0.0,0.0,-1.8532,0.0,0.0,0.0,0.0,0.0,0.0,0.0,0.0,0.0,0.0,0.0,0.0,0.0,0.0,0.0,0.0,0.0,0.0,0.0,0.0,0.0,0.0,0.0,0.0,0.0,0.0,0.0,0.0,0.0,0.0,0.0,0.0,0.0,0.0,0.0,0.0,0.0,0.0,0.0,0.0,-1.2213,-1.3663,-1.4645,-1.4511,-1.4497,-1.4497,-1.4497,-1.4127,-1.3586,-1.2851,-1.2089,0.0,0.0,0.0,0.0,0.0,0.0,0.0,0.0,0.0,0.0,0.0,0.0,0.0,0.0,0.0,0.0,0.0,0.0,0.0,0.0,0.0,0.0,0.0,0.0,0.0,0.0,0.0,0.0,0.0,0.0,0.0,0.0,0.0,0.0,0.0,0.0,0.0,0.0,0.0,0.0,0.0,0.0,0.0,0.0,0.0,0.0,0.0,0.0,0.0,0.0,0.0,0.0,0.0,-2.2448,-2.2831,-2.3235,-2.3389,-2.3764,-2.4197,-2.2091,-2.1706,-2.2283,-1.8657,0.0,0.0,0.0,0.0,0.0,0.0,0.0,0.0,0.0,0.0,0.0,0.0,0.0,0.0,0.0,0.0,0.0,0.0,0.0,0.0,0.0,0.0,0.0,0.0,-1.8447,-1.7783,0.0,0.0,0.0,0.0,0.0,0.0,0.0,0.0,0.0,0.0,0.0,0.0,-1.243,-1.3784,-1.4676,-1.4556,-1.4511,-1.4497,-1.4497,-1.4127,-1.3639,-1.3024,-1.2563,-1.173,0.0,0.0,0.0,0.0,0.0,0.0,0.0,0.0,0.0,0.0,0.0,0.0,0.0,0.0,0.0,0.0,0.0,0.0,0.0,0.0,0.0,0.0,0.0,0.0,0.0,0.0,0.0,0.0,0.0,0.0,0.0,0.0,-1.4325,-1.5123,0.0,0.0,0.0,0.0,0.0,0.0,0.0,0.0,0.0,0.0,0.0,0.0,0.0,-2.1764,-2.2473,-2.4428,-2.512,-2.4555,-2.625,-2.6322,-2.4995,-2.5755,-2.5755,-2.512,-2.4784,0.0,-2.1571,-2.0321,0.0,0.0,0.0,0.0,0.0,0.0,0.0,0.0,0.0,0.0,0.0,0.0,0.0,0.0,0.0,0.0,0.0,0.0,0.0,0.0,0.0,0.0,-2.0107,-2.0234,-2.0264,-1.9746,0.0,-1.6299,-1.4941,-1.3953,-1.3708,0.0,0.0,0.0,0.0,0.0,0.0,0.0,-1.3334,-1.4274,-1.4821,-1.4696,-1.4569,-1.4497,-1.4497,-1.4127,-1.3869,-1.3763,-1.2833,-1.2212,-1.2009,-1.0702,0.0,0.0,0.0,0.0,0.0,0.0,0.0,0.0,0.0,0.0,0.0,0.0,0.0,0.0,0.0,0.0,0.0,0.0,0.0,0.0,0.0,0.0,0.0,0.0,0.0,0.0,0.0,0.0,0.0,-1.4607,-1.6147,-1.6949,-1.6747,-1.6169,0.0,0.0,0.0,0.0,0.0,0.0,0.0,0.0,0.0,-2.2235,-2.3531,-2.4357,-2.4713,-2.619,-2.6697,-2.6251,-2.7371,-2.7424,-2.6534,-2.6579,-2.639,-2.6005,-2.5505,-2.4409,-2.286,-2.1523,-2.0321,-1.9167,0.0,0.0,0.0,0.0,-1.7914,-1.7981,-1.8465,-1.8638,0.0,-1.7051,0.0,0.0,0.0,0.0,0.0,0.0,0.0,0.0,0.0,0.0,-1.999,-2.0478,-2.0596,-2.0391,-1.9629,-1.8857,-1.749,0.0,-1.4838,-1.4871,-1.3022,0.0,0.0,0.0,0.0,-1.3348,-1.3674,-1.4411,-1.4849,-1.4718,-1.458,-1.4497,-1.4497,-1.4127,-1.3904,-1.3904,-1.328,-1.2728,-1.2322,-1.1654,-1.0672,0.0,0.0,0.0,0.0,0.0,0.0,0.0,0.0,0.0,0.0,0.0,0.0,0.0,0.0,0.0,0.0,0.0,0.0,0.0,0.0,0.0,0.0,0.0,0.0,0.0,0.0,0.0,0.0,-1.6496,-1.7904,-1.8922,-1.8858,-1.8243,0.0,0.0,0.0,0.0,0.0,0.0,-2.2745,-2.3149,-2.3866,-2.5077,-2.5943,-2.6391,-2.6391,-2.745,-2.7906,-2.7768,-2.817,-2.8186,-2.7807,-2.7132,-2.6751,-2.6553,-2.5678,-2.4966,-2.4284,-2.2783,-2.2033,-2.1639,-1.9744,-1.8994,-1.9117,-1.9983,-2.03,-2.0367,-2.0792,-2.0946,-2.0658,-1.8927,-1.8265,-1.7893,-1.6594,0.0,0.0,0.0,0.0,-1.8728,-1.9452,-1.9629,-1.9805,-2.0449,-2.0596,-2.0537,-2.0322,-2.0439,-1.9512,0.0,-1.6094,-1.6169,-1.3783,0.0,0.0,0.0,0.0,-1.3889,-1.4083,-1.4563,-1.4854,-1.4708,-1.458,-1.4497,-1.4497,-1.4175,-1.3946,-1.3904,-1.362,-1.3191,-1.2617,-1.2398,-1.1689,-1.0388,0.0,0.0,0.0,0.0,0.0,0.0,0.0,0.0,0.0,0.0,0.0,0.0,0.0,0.0,0.0,0.0,0.0,0.0,0.0,0.0,0.0,0.0,0.0,0.0,0.0,0.0,0.0,0.0,0.0,-2.1426,-2.0886,0.0,0.0,0.0,0.0,-2.1435,-2.2299,-2.3502,-2.5136,-2.5954,-2.6422,-2.6496,-2.7289,-2.7702,-2.7702,-2.8771,-2.9302,-2.9302,-2.9521,-2.9308,-2.8717,-2.7859,-2.7146,-2.6553,-2.5678,-2.5274,-2.5168,-2.4312,-2.3485,-2.2716,-2.2591,-2.2533,-2.2649,-2.3523,-2.3841,-2.3735,-2.2947,-2.2668,-2.2399,-2.0725,-1.965,-1.9016,-1.8935,-1.8925,0.0,0.0,-1.9735,-2.0386,-2.0507,-2.0527,-2.0547,-2.0586,-2.0596,-2.0371,-1.9541,-2.0019,-2.0049,0.0,-1.7822,-1.7269,-1.5484,0.0,-1.4238,-1.4959,-1.4397,-1.4147,-1.4852,-1.4913,-1.485,-1.4708,-1.458,-1.4497,-1.4497,-1.4316,-1.4101,-1.3904,-1.37,-1.3516,-1.3345,-1.2669,-1.2176,-1.1899,-1.0258,0.0,0.0,0.0,0.0,0.0,0.0,0.0,0.0,0.0,0.0,0.0,0.0,0.0,0.0,0.0,0.0,0.0,0.0,0.0,0.0,0.0,0.0,0.0,0.0,0.0,0.0,0.0,0.0,-2.3208,-2.3529,0.0,-2.2932,-2.3079,-2.3474,-2.408,-2.486,-2.5796,-2.6878,-2.7218,-2.7613,-2.8136,-2.8429,-2.8576,-2.8576,-2.9119,-2.931,-2.9156,-2.9523,-2.951,-2.9165,-2.8426,-2.7752,-2.7134,-2.6262,-2.5659,-2.5274,-2.4995,-2.438,-2.3581,-2.3014,-2.2793,-2.2841,-2.3158,-2.3263,-2.3225,-2.2908,-2.2427,-2.1783,-2.0667,-2.0106,-1.9974,-2.0494,-2.0672,-2.0725,-2.0794,-2.1061,-2.1222,-2.0732,-2.0596,-2.0596,-2.0596,-2.0596,-2.0508,-2.0195,-2.0381,-2.0254,-1.9072,-1.8779,-1.8181,-1.6434,-1.584,-1.5519,-1.5243,-1.4943,-1.4804,-1.4982,-1.4944,-1.4844,-1.4709,-1.4572,-1.4497,-1.4497,-1.4316,-1.4114,-1.3904,-1.3715,-1.3334,-1.2719,-1.2905,-1.2281,-1.0734,-1.0385,-0.9481,0.0,0.0,0.0,0.0,0.0,0.0,0.0,0.0,0.0,0.0,0.0,0.0,0.0,0.0,0.0,0.0,0.0,0.0,0.0,0.0,0.0,0.0,0.0,0.0,0.0,0.0,-2.3703,-2.4502,-2.5309,-2.5484,-2.4676,-2.5328,-2.5915,-2.6202,-2.6695,-2.7365,-2.8163,-2.82,-2.8457,-2.8966,-2.8994,-2.8994,-2.8994,-2.9178,-2.9178,-2.9007,-2.9314,-2.9446,-2.9375,-2.8643,-2.8164,-2.7893,-2.7022,-2.6302,-2.5745,-2.5745,-2.5255,-2.4447,-2.387,-2.3639,-2.3639,-2.3639,-2.3639,-2.3601,-2.3322,-2.2475,-2.1408,-2.0879,-2.0523,-2.0408,-2.0937,-2.1128,-2.1172,-2.122,-2.128,-2.1209,-2.0697,-2.0576,-2.0596,-2.0596,-2.0596,-2.0596,-2.0596,-2.0596,-2.043,-1.9853,-1.9228,-1.833,-1.6851,-1.632,-1.5992,-1.5678,-1.5388,-1.5263,-1.5422,-1.5123,-1.4846,-1.4713,-1.434,-1.4217,-1.449,-1.4131,-1.3909,-1.391,-1.3766,-1.3281,-1.2346,-1.2762,-1.2172,-1.034,-1.0212,-0.9636,-0.8568,0.0,0.0,0.0,0.0,0.0,0.0,0.0,0.0,0.0,0.0,0.0,0.0,0.0,0.0,0.0,0.0,0.0,0.0,0.0,0.0,0.0,0.0,0.0,-2.2914,-2.3777,-2.4593,-2.5384,-2.619,-2.6374,-2.5596,-2.6218,-2.7007,-2.7778,-2.7833,-2.8182,-2.8948,-2.8994,-2.8994,-2.8994,-2.8994,-2.8994,-2.8994,-2.8994,-2.8994,-2.8994,-2.8994,-2.9134,-2.9364,-2.8516,-2.8359,-2.8727,-2.7884,-2.7179,-2.6629,-2.6629,-2.612,-2.5341,-2.5303,-2.5293,-2.5293,-2.5293,-2.5293,-2.5178,-2.4389,-2.2985,-2.1581,-2.1552,-2.0994,-2.034,-2.034,-2.0321,-2.0306,-2.0299,-2.0352,-2.0422,-2.048,-2.0552,-2.0596,-2.0596,-2.0596,-2.0596,-2.0596,-2.0596,-2.0596,-2.0596,-1.9209,-1.7742,-1.68,-1.5902,-1.5563,-1.6351,-1.5746,0.0,-1.6172,-1.5461,-1.486,-1.4752,-1.3917,-1.3678,-1.4446,-1.3813,-1.3523,-1.3853,-1.3869,-1.3404,-1.2353,-1.2297,-1.1874,-1.0973,-0.9886,-0.9204,-0.8941,0.0,0.0,0.0,0.0,0.0,0.0,0.0,0.0,0.0,0.0,0.0,0.0,0.0,0.0,0.0,0.0,0.0,0.0,0.0,0.0,0.0,0.0,-2.3,-2.3765,-2.5566,-2.6888,-2.7099,-2.7851,-2.8242,-2.8035,-2.8218,-2.8438,-2.8659,-2.8677,-2.8778,-2.8984,-2.8994,-2.8994,-2.8994,-2.8994,-2.8994,-2.8994,-2.8994,-2.8994,-2.8994,-2.8994,-2.903,-2.9102,-2.885,-2.8572,-2.8277,-2.8043,-2.768,-2.7252,-2.7252,-2.6847,-2.6188,-2.5543,-2.5293,-2.5293,-2.5293,-2.5293,-2.5178,-2.4389,-2.3793,-2.3283,-2.2649,-2.187,-2.1168,-2.1168,-2.0762,-2.0302,-2.0301,-2.0374,-2.0477,-2.0496,-2.0552,-2.0596,-2.0596,-2.0596,-2.0596,-2.0596,-2.0596,-2.0596,-2.0596,-1.9697,-1.8642,-1.7702,-1.6297,-1.5381,-1.5598,-1.5382,0.0,-1.5343,-1.5094,-1.5071,-1.5523,-1.5247,-1.4893,-1.4531,-1.483,-1.4524,-1.3319,-1.316,-1.2899,-1.2454,-1.2348,-1.2248,-1.2134,-1.084,-1.0127,0.0,0.0,0.0,0.0,0.0,0.0,0.0,0.0,0.0,0.0,0.0,0.0,0.0,0.0,0.0,0.0,0.0,0.0,0.0,0.0,0.0,0.0,-2.323,-2.4959,-2.5408,-2.6654,-2.7743,-2.8232,-2.8732,-2.8994,-2.8994,-2.8994,-2.8994,-2.8994,-2.8994,-2.8994,-2.8994,-2.8994,-2.8994,-2.8994,-2.8994,-2.8994,-2.8994,-2.8994,-2.8994,-2.8994,-2.8994,-2.8994,-2.8994,-2.8994,-2.8867,-2.8648,-2.8648,-2.8351,-2.786,-2.7604,-2.7077,0.0,0.0,0.0,0.0,0.0,-2.5293,-2.5226,-2.4764,-2.4389,-2.4023,-2.3514,-2.2745,-2.2043,-2.2043,-2.1458,-2.0797,-2.0797,-2.0618,-2.0415,-2.0454,-2.051,-2.0574,-2.0586,-2.0596,-2.0596,-2.0596,-2.0596,-2.0596,-2.0596,-1.9902,0.0,-1.8096,-1.6796,-1.5874,-1.5813,-1.5482,-1.5337,-1.5599,-1.5199,-1.5047,-1.544,-1.501,-1.4641,-1.4513,-1.4264,0.0,0.0,0.0,-1.2603,-1.2418,-1.1866,0.0,0.0,0.0,0.0,0.0,0.0,0.0,0.0,-0.8543,-0.8344,0.0,0.0,0.0,0.0,0.0,0.0,0.0,0.0,0.0,0.0,0.0,0.0,0.0,0.0,0.0,0.0,-2.4842,-2.7139,-2.7263,-2.7322,-2.7758,-2.8869,-2.8994,-2.8994,-2.8994,-2.8994,-2.8994,-2.8994,-2.8994,-2.8994,-2.8994,0.0,0.0,0.0,0.0,-2.903,-2.9122,-2.9131,-2.9131,-2.9131,-2.9131,-2.9076,-2.8994,-2.8994,-2.9134,-2.9342,-2.9342,-2.9025,-2.8465,-2.7954,-2.7208,-2.6403,-2.6432,-2.5986,-2.5293,-2.5293,-2.5293,-2.5293,-2.5293,0.0,0.0,-2.4245,-2.3658,-2.2947,-2.2947,-2.2341,-2.1648,-2.1648,-2.114,-2.0586,-2.0549,-2.0597,-2.064,-2.0615,-2.0596,-2.0596,-2.0596,-2.0596,-2.0596,-2.0596,-1.998,-1.917,-1.8301,-1.7344,-1.6619,-1.6397,-1.5763,-1.5557,-1.6264,-1.5509,-1.4935,-1.5036,0.0,0.0,-1.4455,-1.3165,-1.2752,-1.3739,-1.3055,-1.2514,-1.2273,-1.1318,-1.104,-1.1563,-1.117,-1.1234,-1.1797,-1.1459,-1.1166,-1.0863,-0.9529,-0.8997,0.0,0.0,0.0,0.0,0.0,0.0,0.0,0.0,0.0,0.0,0.0,0.0,0.0,0.0,0.0,-2.3943,-2.5457,-2.6718,-2.7634,-2.8004,-2.8359,-2.8934,-2.8994,-2.8994,-2.8994,-2.8994,-2.8994,-2.8994,-2.8994,-2.8994,-2.8994,-2.8994,-2.8994,-2.8994,-2.8994,-2.9319,-2.9962,-2.9971,-2.9971,-2.9971,0.0,0.0,-2.8994,-2.8994,-2.903,-2.9076,-2.9076,-2.9132,-2.9203,-2.9256,-2.8598,-2.7443,-2.6071,-2.5447,-2.5293,-2.5293,-2.5293,-2.5293,-2.5293,-2.5197,-2.5072,-2.5072,-2.4505,-2.385,-2.385,-2.3244,0.0,-2.2543,-2.2481,-2.2246,-2.1614,-2.15,-2.1388,-2.0751,-2.0596,-2.0596,-2.0596,-2.0596,-2.0596,-2.0596,-2.0459,-2.0068,-1.9199,-1.7741,-1.643,-1.565,-1.54,-1.5339,-1.5442,-1.518,-1.5207,-1.5809,-1.5597,-1.5145,-1.455,-1.4788,-1.4446,-1.3248,-1.3315,-1.2964,-1.2025,-1.2321,-1.2375,-1.2077,-1.197,-1.189,-1.1797,-1.1454,-1.116,-1.0891,-1.0319,-0.9943,0.0,0.0,0.0,0.0,0.0,0.0,0.0,0.0,0.0,0.0,0.0,-1.9551,-2.154,0.0,-2.3816,-2.5064,-2.6104,-2.6961,-2.7516,-2.7908,-2.8351,-2.8929,-2.8994,-2.8994,-2.8994,-2.8994,-2.8994,-2.8994,-2.8994,-2.8994,-2.8994,-2.8994,-2.8994,-2.8994,-2.8994,-2.9402,-3.0191,-3.02,-3.0402,-3.0797,-3.0393,-2.9999,-2.9604,-2.9168,-2.8994,-2.8994,-2.8994,-2.9076,-2.916,-2.8661,-2.7907,-2.6933,-2.5753,-2.5293,-2.5293,-2.5293,-2.5293,-2.5293,-2.5293,-2.5293,-2.5293,-2.5293,-2.5034,-2.4697,-2.4697,-2.412,-2.3456,-2.3456,-2.3163,-2.2658,-2.1863,-2.1705,-2.1549,-2.0742,-2.0585,-2.0596,-2.0596,-2.0596,-2.0596,-2.0596,-2.0596,-2.0322,-1.9453,-1.8583,-1.7533,-1.6159,-1.5584,-1.5279,-1.5211,-1.5084,-1.5136,-1.5512,-1.5398,-1.5109,-1.4639,-1.4724,-1.4211,-1.2833,-1.3222,-1.3232,-1.2665,-1.2745,-1.2671,-1.2411,-1.2136,-1.193,-1.1797,-1.1453,-1.1169,-1.0911,-1.0832,-1.0625,0.0,0.0,0.0,0.0,0.0,0.0,0.0,0.0,-1.9081,-2.0559,-2.1388,-2.2262,-2.3579,-2.4805,-2.5659,-2.5795,-2.6633,-2.7295,-2.7295,-2.7657,-2.8138,-2.8815,-2.8887,-2.8887,-2.8887,-2.8952,-2.8994,-2.8994,-2.8994,-2.8994,-2.8994,-2.8994,-2.8994,-2.8994,-2.8994,-2.9402,-3.0191,-3.02,-3.0531,-3.1155,-3.0512,-3.0118,-2.9943,-2.931,-2.8994,-2.8994,-2.8994,-2.8929,-2.8743,-2.7606,-2.6773,-2.6158,-2.5498,-2.5264,-2.5293,-2.5293,-2.5293,-2.5293,-2.5293,-2.5293,-2.5293,-2.5293,-2.5293,-2.5293,-2.5293,-2.4851,-2.4331,-2.4331,-2.3822,-2.3059,-2.21,-2.1888,-2.1686,-2.0733,-2.054,-2.0576,-2.0596,-2.0596,-2.0596,-2.0596,-2.0596,-2.0381,-1.9668,-1.9414,-1.8739,-1.7103,-1.611,-1.5533,-1.5457,-1.5209,-1.5036,-1.5001,-1.4847,-1.4725,-1.4669,-1.4187,-1.3587,-1.2824,-1.316,-1.3388,-1.332,-1.2862,-1.2579,-1.2519,-1.2056,-1.1797,-1.1797,-1.1453,-1.1227,-1.1067,-1.1155,-1.1009,-1.819,-1.7989,-1.7701,-1.8259,-1.853,-1.9325,0.0,0.0,-2.2226,-2.368,-2.4083,-2.4396,-2.5203,-2.5499,-2.582,-2.6463,-2.6967,-2.7295,-2.7295,-2.7657,-2.8029,-2.842,-2.848,-2.848,-2.848,-2.8782,-2.8994,-2.8994,-2.8994,-2.8994,-2.8994,-2.8994,-2.8994,-2.8994,-2.8994,-2.9402,-3.0191,-3.02,-3.0255,-3.0329,-3.0237,-2.9833,-2.9122,-2.903,-2.8994,-2.8994,-2.8994,-2.8691,-2.8125,-2.7289,-2.6688,-2.6209,-2.5356,-2.5142,-2.5293,-2.5293,-2.5293,-2.5293,-2.5293,-2.5293,-2.5293,-2.5293,-2.5293,-2.5293,-2.5293,-2.5235,-2.5178,-2.5178,-2.5091,-2.4668,-2.3154,-2.2756,-2.2373,-2.0862,-2.051,-2.0526,-2.0585,-2.0596,-2.0596,-2.0596,-2.0596,-2.0566,-2.0469,-1.9814,-1.8952,-1.7907,-1.7012,-1.6433,-1.6364,-1.5676,-1.5132,-1.501,-1.4932,-1.4779,-1.4533,-1.4142,-1.3859,-1.3759,-1.3532,-1.3286,-1.3059,-1.2757,-1.2492,-1.2257,-1.1951,-1.1797,-1.1797,-1.1453,-1.1402,-1.1592,-1.1319,-1.1009,-2.0652,-2.034,0.0,0.0,-2.056,-2.1211,-2.2471,-2.2852,-2.3359,-2.4839,-2.5135,-2.5363,-2.6099,-2.6243,-2.6336,0.0,-2.6849,-2.6963,-2.6963,-2.7092,-2.7099,-2.6812,-2.7559,-2.8273,-2.8716,-2.8896,-2.8994,-2.8994,-2.8994,-2.8994,-2.8994,-2.8994,-2.8994,-2.8994,-2.8994,-2.9402,-3.0191,-3.02,-3.0439,-3.0889,-3.0421,-3.0026,-2.9687,-2.9195,-2.8994,-2.8994,-2.8994,-2.8588,-2.786,-2.7185,-2.6521,-2.59,-2.5247,-2.5055,-2.5131,-2.5264,-2.5293,-2.5293,-2.5293,-2.5293,-2.5293,-2.5293,-2.5293,-2.5293,-2.5293,-2.5293,-2.5293,-2.5293,-2.5293,-2.4928,-2.3268,-2.2869,-2.2481,-2.083,-2.0465,-2.0525,-2.0585,-2.0596,-2.0596,-2.0596,-2.0596,-2.0596,-2.0596,-2.0303,-1.991,-1.9483,-1.8241,-1.7328,-1.7277,-1.6902,-1.6391,-1.5708,-1.5625,-1.53,-1.4559,-1.4245,-1.4019,-1.3912,-1.3667,-1.3422,-1.3244,-1.2824,-1.2544,-1.2421,-1.2017,-1.1797,-1.1797,-1.1856,-1.1812,-1.1717,-1.2092,-1.2063,-2.1651,0.0,0.0,-2.1263,-2.1744,-2.242,-2.2818,-2.3317,-2.4112,-2.56,-2.5905,-2.6065,-2.6598,-2.6691,-2.6691,-2.6691,-2.6691,-2.6691,-2.6691,-2.6514,-2.631,-2.6083,-2.6883,-2.7761,-2.8599,-2.8872,-2.8994,-2.8994,-2.8994,-2.8994,-2.8994,-2.8994,-2.8994,-2.8994,-2.8994,-2.9292,-2.987,-2.9879,-3.0164,-3.0733,-3.0155,-2.9879,-2.9852,-2.9259,-2.8994,-2.8994,-2.8994,-2.8429,-2.7442,-2.6991,-2.6247,-2.5332,-2.505,-2.4962,-2.5022,-2.5163,-2.5244,-2.5293,-2.5234,-2.5244,-2.5293,-2.5293,-2.5293,-2.5293,-2.5293,-2.5293,-2.5293,-2.5293,-2.5293,-2.4909,-2.3235,-2.2842,-2.2452,-2.0788,-2.0435,-2.0496,-2.0575,-2.0596,-2.0596,-2.0596,-2.0596,-2.0596,-2.0596,-2.0596,-2.0576,-2.0529,-1.9441,-1.8513,-1.8198,-1.7891,-1.7375,-1.6515,-1.6426,-1.6095,-1.5233,-1.477,-1.4446,-1.4246,-1.3825,-1.354,-1.3405,-1.2958,-1.268,-1.26,-1.2321,-1.2159,-1.2071,-1.251,-1.2546,-1.2204,-1.2827,-1.296,0.0,0.0,-2.2099,-2.139,-2.1744,-2.2674,-2.4095,-2.4464,-2.4904,-2.6353,-2.6666,-2.6666,-2.6691,-2.6691,-2.6691,-2.6691,-2.6691,-2.6691,-2.6691,-2.6082,-2.6049,-2.712,-2.6675,-2.6705,0.0,-2.8567,-2.8994,-2.8994,-2.8994,-2.8994,-2.8994,-2.8994,-2.8994,-2.8994,-2.8994,-2.9003,-2.903,-2.903,-2.9039,-2.9058,-2.9039,-2.903,-2.903,-2.9003,-2.8994,-2.8994,-2.8994,-2.8108,-2.664,-2.6612,-2.5799,-2.4556,-2.474,-2.4887,-2.5001,-2.501,-2.5131,-2.5274,-2.5088,-2.5141,-2.5293,-2.5293,-2.5293,-2.5293,-2.5293,-2.5293,-2.5293,-2.5293,-2.5293,-2.4909,-2.3235,-2.2802,-2.2398,-2.0779,-2.0401,-2.0438,-2.0574,-2.0596,-2.0596,-2.0596,-2.0596,-2.0596,-2.0596,-2.0596,-2.0596,-2.0596,-2.0501,-2.0094,-1.9182,-1.8255,-1.7591,-1.7283,-1.726,-1.7154,-1.6851,-1.5931,-1.5277,-1.5076,-1.4144,-1.354,-1.3405,-1.3135,-1.2875,-1.2611,-1.2974,-1.3028,-1.2779,-1.3438,-1.3647,-1.3437,-1.3468,-1.337,0.0,0.0,-2.2251,-2.1989,-2.2479,-2.3156,-2.3655,-2.4526,-2.5228,-2.5228,-2.5625,-2.582,-2.5313,-2.5634,-2.5972,-2.5972,-2.6378,-2.6691,-2.6691,-2.648,-2.63,-2.6175,-2.6621,0.0,0.0,0.0,0.0,-2.8599,-2.8599,-2.8716,-2.8994,-2.8994,-2.8994,-2.8994,-2.8994,-2.8994,-2.8994,-2.8994,-2.8994,-2.8994,-2.8994,-2.8994,-2.8994,-2.8994,-2.8994,-2.8994,-2.8994,-2.8402,-2.7346,-2.6823,-2.6022,-2.5051,-2.4733,-2.4721,-2.4846,-2.4717,-2.4854,-2.5088,-2.5022,-2.5034,-2.512,-2.5264,-2.5293,-2.5293,-2.5293,-2.5293,-2.5293,-2.5293,-2.5293,-2.5053,-2.3947,-2.3235,-2.2528,-2.1452,-2.0754,-2.0375,-2.05,-2.0529,-2.0551,-2.0586,-2.0596,-2.0596,-2.0596,-2.0596,-2.0576,-2.054,-2.0477,-2.0303,-1.9937,-1.9619,-1.9131,-1.8373,-1.8217,-1.7879,-1.7163,-1.6673,-1.625,-1.5917,-1.5577,-1.5227,-1.4873,-1.4606,-1.4306,-1.4004,-1.3949,-1.3783,-1.3474,-1.4146,-1.4278,-1.3898,-1.4092,-1.3977,-2.2175,-2.231,-2.231,-2.231,-2.2665,-2.308,-2.3334,-2.4129,-2.4678,-2.4188,-2.4687,-2.4974,-2.423,-2.4704,-2.5287,-2.5566,-2.6006,-2.6395,-2.6657,-2.6471,-2.6226,-2.6023,-2.6418,-2.661,0.0,0.0,0.0,-2.835,-2.8385,-2.8574,-2.8984,-2.8863,-2.8839,-2.8994,-2.8863,-2.8863,-2.8994,-2.8994,-2.8994,-2.8994,-2.8994,-2.8994,-2.8994,-2.8994,-2.8994,-2.8994,-2.8994,-2.8393,-2.7328,-2.6814,-2.5961,-2.4945,-2.4623,-2.4584,-2.467,-2.4552,-2.4636,-2.4831,-2.4898,-2.4962,-2.5034,-2.5224,-2.5293,-2.5293,-2.5293,-2.5293,-2.5293,-2.5293,-2.5293,-2.5111,-2.4312,-2.3687,-2.2973,-2.1875,-2.1192,-2.0745,-2.0536,-2.0525,-2.0552,-2.0586,-2.0596,-2.0596,-2.0596,-2.0596,-2.0585,-2.054,-2.0457,-2.038,-2.0311,-2.0301,-2.0019,-1.931,-1.9116,-1.8771,-1.8105,-1.7608,-1.7193,-1.6855,-1.6504,-1.6131,-1.5754,-1.5492,-1.5195,-1.4874,-1.4826,-1.4661,-1.4342,-1.4906,-1.4921,-1.445,-1.4613,-1.4419,-2.2302,-2.231,-2.231,-2.231,-2.2344,-2.2539,-2.319,-2.3367,-2.3384,-2.3342,-2.3892,-2.4176,0.0,0.0,-2.4704,-2.538,-2.5592,-2.5913,-2.6649,-2.6124,-2.593,0.0,0.0,0.0,0.0,0.0,0.0,-2.8272,0.0,-2.854,-2.8929,-2.8599,-2.8574,-2.8929,-2.8599,-2.859,-2.8961,-2.8984,-2.8994,-2.8994,-2.8994,-2.8994,-2.8994,-2.8994,-2.8994,-2.8994,-2.8948,-2.8108,-2.6713,-2.6594,-2.5658,-2.4319,-2.4438,-2.4495,-2.4495,-2.4495,-2.4495,-2.4528,-2.4716,-2.4864,-2.5022,-2.5234,-2.5293,-2.5293,-2.5293,-2.5293,-2.5293,-2.5293,-2.5293,-2.512,-2.436,-2.4129,-2.3694,-2.2052,-2.1686,-2.1475,-2.0675,-2.0551,-2.0596,-2.0596,-2.0596,-2.0596,-2.0596,-2.0596,-2.0596,-2.0596,-2.0494,-2.0383,-2.0313,-2.0295,-2.0217,-2.0017,-1.9883,-1.9754,-1.9616,-1.8724,-1.8082,-1.7869,-1.6971,-1.6345,-1.6112,-1.5864,-1.5609,-1.5324,-1.5587,-1.562,-1.5336,-1.5651,-1.5578,-1.5132,-1.5117,-1.4701,-2.2158,-2.231,-2.231,-2.231,-2.2716,-2.3021,-2.2665,-2.3004,-2.3241,-2.2691,-2.2733,-2.264,0.0,0.0,0.0,-2.4019,-2.5338,0.0,-2.7435,-2.6886,0.0,-2.7444,0.0,-2.6488,-2.6674,-2.6691,0.0,0.0,-2.7842,-2.8084,-2.8174,-2.8316,-2.8342,-2.8183,-2.8316,-2.8446,-2.854,-2.8839,-2.8994,-2.8994,-2.8994,-2.8994,-2.8994,-2.8994,-2.8994,-2.8966,-2.8374,-2.8218,-2.8242,-2.6447,-2.5814,-2.5869,-2.4726,-2.4357,-2.4478,-2.433,-2.4375,-2.4512,-2.4552,-2.4706,-2.491,-2.5202,-2.5293,-2.5293,-2.5293,-2.5293,-2.5293,-2.5293,-2.5293,-2.5245,-2.5053,-2.4543,-2.383,-2.275,-2.2045,-2.1409,-2.0603,-2.0477,-2.054,-2.0586,-2.0596,-2.0596,-2.0596,-2.0596,-2.0596,-2.0596,-2.0526,-2.0446,-2.038,-2.0336,-2.0217,-2.0017,-1.9883,-1.9754,-1.9616,-1.9234,-1.8904,-1.8715,-1.8447,-1.8106,-1.7653,-1.7575,-1.7297,-1.6778,-1.6601,-1.6376,-1.6028,-1.588,-1.574,-1.56,-1.5256,-1.5045,-2.3063,-2.3266,-2.3266,-2.3266,-2.3325,-2.3291,-2.2877,-2.2852,-2.2615,-2.1532,-2.1574,0.0,0.0,0.0,0.0,0.0,0.0,0.0,-2.763,-2.7452,-2.7342,0.0,-2.7444,0.0,-2.6725,-2.6691,-2.6783,0.0,-2.7418,-2.7716,-2.7897,-2.7899,-2.7918,-2.7897,-2.7918,-2.8075,-2.8394,-2.8806,-2.8994,-2.8994,-2.8994,-2.8994,-2.8994,-2.8994,-2.8994,-2.8948,0.0,-2.8062,-2.8319,-2.6245,-2.5678,-2.5942,-2.4685,-2.4275,-2.4357,-2.4238,-2.4275,-2.4375,-2.4461,-2.4623,-2.4837,-2.5096,-2.5234,-2.5293,-2.5293,-2.5293,-2.5293,-2.5293,-2.5293,-2.5293,-2.5293,-2.4976,-2.4322,-2.3091,-2.2479,-2.1839,-2.0624,-2.0432,-2.0525,-2.0585,-2.0596,-2.0596,-2.0596,-2.0596,-2.0596,-2.0596,-2.0536,-2.048,-2.0409,-2.0344,-2.0217,-2.0017,-1.9878,-1.9744,-1.9604,-1.9415,-1.9243,-1.9136,-1.9054,-1.8814,-1.8385,-1.8267,-1.8,-1.7541,-1.7199,-1.6849,-1.6518,-1.6168,-1.5939,-1.5799,-1.5799,-1.574,-2.4311,-2.4515,-2.4489,-2.4388,-2.3858,-2.3367,-2.3274,-2.2606,-2.1659,-2.0399,0.0,-2.0501,-1.9139,-2.023,-2.1752,-2.3046,0.0,-2.5372,-2.7485,-2.7705,-2.7671,-2.7772,-2.7696,-2.741,-2.6759,-2.6691,-2.6691,-2.6691,-2.7019,-2.7378,-2.7716,-2.7448,-2.7448,-2.7803,-2.7478,-2.766,-2.8385,-2.8749,-2.8929,-2.8929,-2.8984,-2.8961,-2.8929,-2.8994,-2.8929,-2.8792,-2.7989,0.0,-2.7512,-2.5887,-2.5311,-2.5329,-2.4502,-2.4199,-2.4199,-2.4199,-2.4199,-2.4228,-2.441,-2.4591,-2.4795,-2.4949,-2.5141,-2.5293,-2.5293,-2.5293,-2.5293,-2.5293,-2.5293,-2.5293,-2.5293,-2.5293,-2.4918,-2.3341,-2.302,-2.262,-2.1012,-2.0668,-2.0674,-2.0605,-2.0596,-2.0596,-2.0596,-2.0596,-2.0596,-2.0596,-2.0552,-2.0488,-2.0411,-2.0338,-2.0217,-2.0017,-1.9876,-1.9755,-1.9611,-1.9415,-1.9305,-1.9305,-1.9136,-1.8929,-1.8654,-1.8399,-1.8124,-1.7853,-1.7485,-1.7142,-1.6794,-1.6447,-1.6161,-1.5931,-1.6458,-1.6574,-2.4311,-2.4515,-2.4362,-2.3731,-2.3486,-2.3241,-2.264,-2.1422,0.0,0.0,0.0,-1.9215,-1.8944,-2.0661,0.0,-2.2454,0.0,0.0,0.0,0.0,-2.7122,0.0,0.0,0.0,0.0,0.0,0.0,0.0,0.0,-2.6841,-2.6898,-2.7147,-2.7326,-2.7387,-2.7326,-2.766,-2.8385,-2.8471,-2.8496,-2.8506,-2.8839,-2.8839,-2.8515,-2.8839,-2.865,-2.7961,-2.7163,0.0,-2.6686,-2.5071,-2.4795,-2.5329,-2.4502,-2.4199,-2.4199,-2.4199,-2.4199,-2.419,-2.4247,-2.4393,-2.4598,-2.4901,-2.5141,-2.5293,-2.5293,-2.5293,-2.5293,-2.5293,-2.5293,-2.5293,-2.5293,-2.5293,-2.5063,-2.41,-2.388,-2.3641,-2.2727,-2.2072,-2.1455,-2.0742,-2.0596,-2.0596,-2.0596,-2.0596,-2.0596,-2.0596,-2.0586,-2.054,-2.0419,-2.0343,-2.0217,-2.0017,-1.9876,-1.9755,-1.9611,-1.9415,-1.9305,-1.9305,-1.9262,-1.9146,-1.8947,-1.8678,-1.8396,-1.8133,-1.7575,-1.7151,-1.6804,-1.6464,-1.6376,-1.654,-1.6659,-1.7029,-2.4864,-2.5346,-2.5456,-2.4729,-2.3968,-2.3207,-2.2479,0.0,0.0,0.0,0.0,-1.8775,-1.8403,0.0,0.0,0.0,0.0,0.0,0.0,0.0,0.0,0.0,0.0,0.0,0.0,0.0,0.0,0.0,0.0,-2.6691,-2.6691,-2.6873,-2.6995,-2.6995,-2.7178,-2.7461,-2.7825,-2.8038,-2.8129,-2.8148,-2.8515,-2.8381,-2.7798,-2.8624,-2.8338,-2.7154,-2.6778,0.0,-2.6484,-2.486,-2.4667,-2.5329,-2.4502,-2.4199,-2.4199,-2.4199,-2.4199,-2.4199,-2.4199,-2.433,-2.4543,-2.4809,-2.5005,-2.5163,-2.5264,-2.5293,-2.5293,-2.5293,-2.5293,-2.5293,-2.5293,-2.5293,-2.5101,-2.4293,-2.3435,-2.2708,-2.2387,-2.1716,-2.1061,-2.0674,-2.0596,-2.0596,-2.0596,-2.0596,-2.0596,-2.0596,-2.0596,-2.0553,-2.0425,-2.037,-2.0265,-2.0023,-1.9877,-1.9748,-1.9614,-1.9415,-1.9305,-1.9305,-1.9305,-1.9216,-1.9002,-1.8743,-1.848,-1.8198,-1.7772,-1.7404,-1.7062,-1.7075,-1.7057,-1.7013,-1.7513,-1.7963,-2.5406,-2.6141,-2.648,-2.5592,-2.4492,-2.335,-2.2302,-2.0973,0.0,0.0,-1.8767,-1.8488,-1.7921,0.0,0.0,0.0,0.0,0.0,0.0,0.0,0.0,0.0,0.0,0.0,0.0,0.0,0.0,0.0,0.0,0.0,-2.6691,-2.6691,-2.6691,-2.6691,-2.6995,-2.7201,-2.7295,-2.747,-2.7536,-2.7536,-2.7727,-2.7462,-2.6869,-2.7915,-2.7629,-2.6346,-2.6346,0.0,0.0,-2.4722,-2.4566,-2.509,-2.4447,-2.4199,-2.4199,-2.4199,-2.4199,-2.4199,-2.4199,-2.4294,-2.4461,-2.467,-2.485,-2.5044,-2.5244,-2.5293,-2.5293,-2.5293,-2.5293,-2.5293,-2.5293,-2.5293,-2.5149,-2.4505,-2.3373,-2.235,-2.2046,-2.1639,-2.1243,-2.0937,-2.0879,-2.0879,-2.0879,-2.0723,-2.0596,-2.0596,-2.0596,-2.0565,-2.0443,-2.0405,-2.0312,-2.0086,-1.9911,-1.9764,-1.9643,-1.9439,-1.9305,-1.9305,-1.9305,-1.9234,-1.9072,-1.8984,-1.8815,-1.8526,-1.8421,-1.8189,-1.7763,-1.8041,-1.8026,-1.7769,-1.8522,-1.8883,-2.5406,-2.6141,-2.6353,-2.4932,-2.4515,-2.3863,-2.1761,0.0,0.0,0.0,-1.8369,-1.7887,-1.7797,0.0,0.0,0.0,0.0,0.0,0.0,0.0,0.0,0.0,0.0,0.0,0.0,0.0,0.0,0.0,0.0,0.0,-2.6691,-2.6691,-2.6691,-2.6691,-2.6725,-2.6939,-2.7303,-2.6679,-2.6349,-2.6361,-2.603,-2.5788,-2.5666,-2.6156,-2.6058,-2.5522,-2.5522,0.0,0.0,-2.4254,-2.4236,-2.43,-2.4226,-2.4199,-2.4199,-2.4199,-2.4199,-2.4199,-2.4199,-2.4209,-2.4256,-2.4461,-2.4742,-2.5044,-2.5244,-2.5293,-2.5293,-2.5293,-2.5293,-2.5293,-2.5293,-2.5293,-2.5274,-2.5207,-2.5166,-2.473,-2.3208,-2.3491,-2.3594,-2.207,-2.1777,-2.1777,-2.1777,-2.1123,-2.0596,-2.0596,-2.0596,-2.0565,-2.05,-2.0434,-2.0367,-2.0279,-1.9988,-1.9802,-1.9778,-1.9494,-1.9305,-1.9305,-1.9305,-1.928,-1.9262,-1.9773,-1.9902,-1.958,-2.0012,-1.9928,-1.9292,-1.9327,-1.9288,-1.9213,-1.9298,-1.9417,-2.4847,-2.5795,-2.6336,-2.4887,-2.4154,-2.3241,-2.0991,0.0,-1.9139,-1.8395,-1.8006,-1.7811,-1.7811,-1.8048,0.0,0.0,0.0,0.0,0.0,0.0,0.0,0.0,0.0,0.0,0.0,0.0,0.0,0.0,0.0,0.0,-2.604,-2.6454,-2.6497,-2.6057,-2.604,-2.5909,-2.5629,-2.533,-2.5184,-2.5184,-2.5268,-2.5041,-2.4558,-2.5607,-2.5362,-2.4136,-2.5013,0.0,0.0,-2.4122,-2.4199,-2.4199,-2.4199,-2.4199,-2.4199,-2.4199,-2.4199,-2.4199,-2.4199,-2.4199,-2.4219,-2.4426,-2.4666,-2.4904,-2.5065,-2.5194,-2.5293,-2.5293,-2.5293,-2.5293,-2.5293,-2.5293,-2.5293,-2.5293,-2.4975,-2.449,-2.3864,-2.3251,-2.265,-2.2021,-2.1484,-2.1123,-2.1123,-2.083,-2.0596,-2.0596,-2.0596,-2.0576,-2.0505,-2.0437,-2.0373,-2.0313,-1.9998,-1.9802,-1.9797,-1.9494,-1.9305,-1.9305,-1.9305,-1.9513,-2.0007,-1.9936,-2.0059,-2.0418,-2.028,-2.0059,-1.9806,-2.0009,-1.9965,-1.9696,-1.9879,-1.9844,-2.4133,-2.5076,-2.5735,-2.4475,-2.3773,-2.2801,0.0,0.0,-1.8953,-1.8006,-1.7811,-1.7811,-1.7811,-1.7811,-1.8225,0.0,0.0,0.0,0.0,0.0,0.0,0.0,0.0,0.0,0.0,0.0,0.0,0.0,0.0,0.0,-2.5287,-2.5761,-2.5803,-2.5287,-2.527,-2.5025,-2.4515,-2.4294,-2.4154,-2.4193,-2.4242,-2.4016,-2.357,-2.4621,-2.4403,-2.3248,-2.4301,0.0,0.0,-2.3946,-2.4122,-2.4199,-2.4199,-2.4199,-2.4199,-2.4199,-2.4199,-2.4199,-2.4199,-2.4199,-2.4228,-2.4366,-2.4584,-2.4823,-2.4907,-2.5107,-2.5293,-2.5293,-2.5293,-2.5293,-2.5293,-2.5293,-2.5293,-2.5293,-2.4901,-2.4458,-2.4253,-2.354,-2.2814,-2.2353,-2.1777,-2.1289,-2.1025,-2.0771,-2.0596,-2.0596,-2.0596,-2.0576,-2.0507,-2.0437,-2.0372,-2.0308,-2.0207,-2.0059,-1.9815,-1.9718,-1.9648,-1.9648,-1.9899,-2.0295,-2.0865,-2.065,-2.0744,-2.1207,-2.0942,-2.0757,-2.0671,-2.093,-2.0749,-2.0233,-2.0418,-2.0118,-2.3207,-2.3943,-2.4323,-2.3596,-2.3401,-2.2801,0.0,-1.9993,-1.9571,-1.8093,-1.7811,-1.7811,-1.7811,-1.7811,-1.8048,-1.8784,0.0,0.0,0.0,0.0,0.0,0.0,0.0,0.0,0.0,0.0,0.0,0.0,0.0,0.0,-2.4565,-2.4531,-2.4531,-2.4523,-2.4523,-2.4515,-2.4515,-2.3773,-2.341,-2.3393,-2.2674,-2.2462,-2.2704,-2.2738,-2.2915,0.0,0.0,0.0,0.0,-2.3692,-2.3896,-2.4199,-2.4199,-2.4199,-2.4199,-2.4199,-2.4199,-2.4199,-2.4199,-2.4199,-2.4199,-2.4199,-2.4478,-2.4804,-2.4804,-2.5043,-2.5293,-2.5293,-2.5293,-2.5293,-2.5293,-2.5293,-2.5293,-2.5293,-2.5386,-2.5245,-2.4394,-2.4969,-2.5146,-2.3418,-2.3135,-2.29,-2.2041,-2.1172,-2.0596,-2.0596,-2.0596,-2.0585,-2.0511,-2.0441,-2.0366,-2.0313,-2.0711,-2.067,-1.9876,-2.0215,-2.0486,-2.0486,-2.1294,-2.1776,-2.1801,-2.2227,-2.2322,-2.1975,-2.244,-2.2544,-2.2265,-2.2265,-2.1824,-2.0976,-2.0988,-2.0222,-2.1964,-2.2792,-2.3444,-2.222,-2.1915,-2.1422,-1.9655,-1.9249,-1.8978,-1.8006,-1.7811,-1.7811,-1.7811,-1.7811,-1.8225,-1.9436,-1.9841,0.0,0.0,0.0,0.0,0.0,0.0,0.0,0.0,0.0,0.0,0.0,0.0,0.0,-2.3756,-2.3266,-2.3232,-2.3723,-2.374,-2.3503,-2.3004,-2.2767,-2.2657,-2.2657,-2.242,-2.2341,-2.2417,-2.2651,-2.2704,0.0,0.0,0.0,0.0,-2.3619,-2.3896,-2.4199,-2.4199,-2.4199,-2.4199,-2.4199,-2.4199,-2.4199,-2.4199,-2.4199,-2.4199,-2.4199,-2.4478,-2.4804,-2.4804,-2.5034,-2.5293,-2.5293,-2.5293,-2.5293,-2.5293,-2.5293,-2.5293,-2.5293,-2.533,-2.5306,-2.5128,-2.4444,-2.372,-2.3261,-2.2217,-2.1338,-2.1064,-2.0781,-2.0596,-2.0596,-2.0596,-2.0585,-2.0511,-2.0437,-2.0597,-2.1124,-2.1201,-2.1053,-2.0645,-2.1084,-2.1385,-2.1397,-2.1644,-2.2045,-2.2602,-2.2309,-2.2376,-2.2815,-2.2561,-2.2369,-2.231,-2.231,-2.1867,-2.0988,-2.0662,-2.0125,0.0,-2.1422,-2.1904,-2.0982,-2.0746,-2.0424,-1.9173,-1.8894,-1.8691,-1.7955,-1.7811,-1.7811,-1.7811,-1.7811,-1.8093,-1.9013,-1.9638,0.0,0.0,0.0,0.0,0.0,0.0,0.0,0.0,0.0,0.0,0.0,0.0,0.0,-2.3004,-2.2556,-2.2513,-2.297,-2.2978,-2.2767,-2.231,-2.231,-2.231,-2.231,-2.231,-2.231,-2.231,-2.2525,-2.2497,0.0,0.0,0.0,0.0,-2.3369,-2.3714,-2.4016,-2.4151,-2.4199,-2.4199,-2.4199,-2.4199,-2.4199,-2.4199,-2.4199,-2.4199,-2.4199,-2.4478,-2.4818,-2.486,-2.5072,-2.5293,-2.5293,-2.5293,-2.5293,-2.5293,-2.5293,-2.5293,-2.5293,-2.5312,-2.5361,-2.5478,-2.4442,-2.3433,-2.3202,-2.2041,-2.0986,-2.0664,-2.0596,-2.0596,-2.0596,-2.0575,-2.054,-2.0475,-2.0691,-2.103,-2.1511,-2.1975,-2.2163,-2.1956,-2.2198,-2.2325,-2.2252,-2.2535,-2.2929,-2.3425,-2.281,-2.2687,-2.3189,-2.2604,-2.231,-2.231,-2.2119,-2.168,-2.0977,-2.0512,-2.0088,0.0,-1.9875,-1.99,-1.9858,-1.9841,-1.9655,-1.8978,-1.8809,0.0,-1.7833,-1.7682,-1.7698,-1.7772,-1.7738,-1.7777,-1.7924,-1.9098,0.0,0.0,0.0,0.0,0.0,0.0,0.0,0.0,0.0,0.0,0.0,0.0,0.0,-2.2353,-2.231,-2.231,-2.231,-2.231,-2.231,-2.231,-2.231,-2.231,-2.231,-2.231,-2.231,-2.231,-2.231,-2.231,0.0,0.0,0.0,0.0,-2.3096,-2.3392,-2.3692,-2.4036,-2.4161,-2.4161,-2.4161,-2.417,-2.4199,-2.4199,-2.4199,-2.4199,-2.4218,-2.4478,-2.4823,-2.4962,-2.5131,-2.5293,-2.5293,-2.5293,-2.5293,-2.5293,-2.5293,-2.5293,-2.5293,-2.5307,-2.534,-2.5464,-2.4816,-2.3985,-2.3242,-2.2451,-2.1621,-2.0752,-2.0596,-2.0596,-2.0586,-2.054,-2.0465,-2.0401,-2.1105,-2.16,-2.1588,-2.2929,-2.3755,-2.3611,-2.3475,-2.3287,-2.3094,-2.3794,-2.4199,-2.4199,-2.3554,-2.3204,-2.3198,-2.2604,-2.231,-2.231,-2.1869,-2.1438,-2.0976,-2.0563,-2.011,-1.8262,0.0,-1.902,-1.8471,-1.8312,-1.8262,0.0,-1.7855,0.0,0.0,0.0,-1.6768,-1.7377,-1.7202,-1.7507,-1.9199,-1.9765,0.0,0.0,0.0,0.0,0.0,0.0,0.0,0.0,0.0,0.0,0.0,0.0,-2.2488,-2.2319,-2.231,-2.231,-2.231,-2.231,-2.231,-2.231,-2.231,-2.231,-2.231,-2.231,-2.231,-2.231,-2.231,-2.231,0.0,0.0,0.0,-2.2738,-2.3078,-2.3245,-2.3346,-2.3692,-2.3816,-2.3816,-2.3816,-2.3976,-2.4199,-2.4199,-2.4199,-2.4228,-2.4375,-2.4601,-2.4823,-2.4962,-2.5131,-2.5293,-2.5293,-2.5293,-2.5293,-2.5293,-2.5293,-2.5293,-2.5293,-2.4841,-2.4609,-2.5342,-2.4344,-2.3257,-2.3133,-2.2451,-2.1621,-2.0752,-2.0596,-2.0576,-2.0527,-2.0506,-2.0461,-2.0342,-2.1069,-2.1828,-2.2431,-2.3418,-2.4168,-2.4476,-2.4323,-2.4135,-2.3922,-2.4107,-2.4199,-2.4199,-2.3554,-2.3204,-2.3198,-2.2604,-2.231,-2.231,-2.2198,-2.1757,-2.1013,-2.0884,-2.0444,-1.7718,-1.8344,-1.88,-1.8403,-1.831,-1.8255,-1.8114,0.0,0.0,0.0,0.0,0.0,-1.6987,0.0,0.0,0.0,-1.9984,0.0,0.0,0.0,0.0,0.0,0.0,0.0,0.0,0.0,0.0,0.0,0.0,-2.2158,-2.1811,-2.1794,-2.1634,-2.1252,-2.1226,-2.1573,-2.2302,-2.231,-2.2133,-2.1794,-2.1794,-2.16,-2.1252,-2.1634,-2.16,0.0,0.0,0.0,-2.2048,-2.2342,-2.2656,-2.2988,-2.3346,-2.3566,-2.3692,-2.3692,-2.3917,-2.4199,-2.4199,-2.4199,-2.4209,-2.4339,-2.4495,-2.4691,-2.485,-2.5039,-2.5183,-2.5274,-2.5293,-2.5293,-2.5293,-2.5293,-2.5293,-2.5293,-2.4976,-2.4808,-2.5385,-2.418,-2.3036,-2.3133,-2.2148,-2.1152,-2.0684,-2.0596,-2.0575,-2.0511,-2.0472,-2.0418,-2.0308,-2.1384,-2.2314,-2.2742,-2.3908,-2.4687,-2.4793,-2.4701,-2.4513,-2.4217,-2.4199,-2.4199,-2.4199,-2.3554,-2.3066,-2.2798,-2.2465,-2.231,-2.231,-2.231,-2.1936,-2.1269,-2.1085,-2.0637,-1.7477,-1.8219,-1.8731,-1.867,-1.8681,-1.8634,0.0,0.0,0.0,0.0,0.0,0.0,0.0,0.0,0.0,0.0,0.0,0.0,0.0,0.0,0.0,0.0,0.0,0.0,0.0,0.0,0.0,0.0,0.0,-2.1811,-2.105,-2.1008,-2.0703,-2.0018,-2.0002,-2.0618,-2.1947,-2.1964,-2.1642,-2.1008,-2.1008,-2.0661,-2.0018,-2.0703,-2.0644,-2.0035,0.0,0.0,-2.1026,-2.1316,-2.1761,-2.234,-2.2777,-2.3168,-2.3478,-2.3574,-2.3867,-2.4199,-2.4199,-2.4199,-2.4199,-2.4199,-2.434,-2.4532,-2.4692,-2.477,-2.482,-2.4983,-2.5158,-2.5293,-2.5293,-2.5293,-2.5293,-2.5293,-2.5101,-2.4992,-2.5243,-2.3986,-2.2837,-2.2976,-2.1807,-2.0762,-2.0615,-2.0596,-2.0575,-2.0496,-2.0435,-2.0419,-2.0481,-2.1842,-2.285,-2.2978,-2.4379,-2.5159,-2.4832,-2.4795,-2.4633,-2.4226,-2.4199,-2.4153,-2.4042,-2.3499,-2.2922,-2.2293,-2.231,-2.231,-2.231,-2.2231,-2.1973,-2.1513,-2.1101,-2.0654,-1.695,-1.7673,-1.7961,-1.7633,-1.7771,-1.781,0.0,0.0,0.0,0.0,0.0,0.0,0.0,0.0,0.0,0.0,0.0,0.0,0.0,0.0,0.0,0.0,0.0,0.0,0.0,0.0,0.0,0.0,0.0,-2.1016,-2.0221,-2.017,-2.012,-2.0002,-2.0002,-2.0103,-2.0348,-2.0348,-2.0289,-2.017,-2.017,-2.0111,-2.0002,-2.012,-2.0111,-2.0002,0.0,-2.017,-2.0196,-2.0532,-2.0577,-2.0509,-2.1459,-2.204,-2.2425,-2.306,-2.3671,-2.4199,-2.4199,-2.4199,-2.4199,-2.4199,-2.4338,-2.4505,-2.4534,-2.4166,-2.3742,-2.3776,-2.45,-2.5293,-2.5293,-2.5293,-2.5293,-2.5293,-2.4226,-2.3409,-2.4218,-2.3076,-2.1942,-2.2069,-2.1885,-2.1475,-2.0732,-2.0596,-2.0563,-2.0435,-2.0414,-2.0614,-2.1244,-2.2184,-2.3076,-2.3823,-2.4745,-2.5159,-2.4832,-2.4795,-2.4633,-2.4226,-2.4199,-2.396,-2.3379,-2.325,-2.2932,-2.231,-2.231,-2.231,-2.231,-2.1902,-2.1488,-2.1074,-2.0632,-2.0194,-1.566,-1.6175,-1.6486,-1.6706,-1.7856,-1.881,0.0,0.0,0.0,0.0,0.0,0.0,0.0,0.0,0.0,0.0,0.0,0.0,0.0,0.0,0.0,0.0,0.0,0.0,0.0,0.0,0.0,0.0,0.0,0.0,-1.9477,-1.9418,-1.9232,-1.8811,-1.8802,-1.8802,-1.8802,-1.8802,-1.9005,-1.9418,-1.9418,-1.9215,-1.8811,-1.9232,-1.9198,-1.8819,0.0,-1.9418,-1.9418,-1.9561,-1.9784,-2.0052,-2.0551,-2.1019,-2.1524,-2.2203,-2.2639,-2.2902,-2.2902,-2.2902,-2.2902,-2.2902,-2.2966,-2.3049,-2.3122,-2.2932,-2.2706,-2.282,-2.333,-2.384,-2.384,-2.389,-2.3947,-2.3947,-2.336,-2.2946,-2.3436,-2.2581,-2.1737,-2.1873,-2.1523,-2.1074,-2.0674,-2.0596,-2.0708,-2.1054,-2.0694,-2.0841,-2.2055,-2.2543,-2.3134,-2.4005,-2.4822,-2.5159,-2.4832,-2.4795,-2.4633,-2.4226,-2.4199,-2.3987,-2.3499,-2.3305,-2.2997,-2.2536,-2.2361,-2.231,-2.231,-2.1824,-2.1498,-2.1311,-2.0622,-2.0208,-1.4718,-1.5,-1.5323,0.0,0.0,0.0,0.0,0.0,0.0,0.0,0.0,0.0,0.0,0.0,0.0,0.0,0.0,0.0,0.0,0.0,0.0,0.0,0.0,0.0,0.0,0.0,0.0,0.0,0.0,0.0,-1.8716,-1.864,-1.8386,-1.7828,-1.7811,-1.7811,-1.7811,-1.7811,-1.8082,-1.864,-1.864,-1.8352,-1.7828,-1.8386,-1.8335,-1.7845,-1.8403,-1.864,-1.864,-1.864,-1.8987,-1.9495,-1.9664,-2.0235,-2.096,-2.1437,-2.1652,-2.1716,-2.1707,-2.1708,-2.1717,-2.179,-2.1799,-2.1817,-2.1926,-2.1807,-2.1689,-2.1835,-2.191,-2.2049,-2.2495,-2.27,-2.2802,-2.2793,-2.2639,-2.2533,-2.2673,-2.2008,-2.1429,-2.155,-2.1055,-2.0596,-2.0576,-2.0751,-2.1073,-2.1616,-2.112,-2.119,-2.2622,-2.2805,-2.3128,-2.4015,-2.4822,-2.5156,-2.4829,-2.4701,-2.4531,-2.4217,-2.4199,-2.4015,-2.3591,-2.3336,-2.3013,-2.2595,-2.2415,-2.231,-2.231,-2.172,-2.1464,-2.1425,-2.0563,-2.0177,-1.4829,-1.5015,-1.5124,-1.6353,0.0,0.0,0.0,0.0,0.0,0.0,0.0,0.0,0.0,0.0,0.0,0.0,0.0,0.0,0.0,0.0,0.0,0.0,0.0,0.0,0.0,0.0,0.0,0.0,0.0,0.0,-1.7907,-1.7887,-1.7862,-1.7811,-1.7811,-1.7811,-1.7811,-1.7811,-1.7836,-1.7887,-1.7887,-1.7862,-1.7811,-1.7862,-1.7862,-1.7811,-1.787,-1.7887,-1.7887,-1.7887,-1.7921,-1.8039,-1.8707,-1.976,-2.0898,-2.1025,-2.1213,-2.1421,-2.1429,-2.1436,-2.1473,-2.1727,-2.1801,-2.1801,-2.181,-2.1246,-2.0611,-2.0637,-2.0326,-2.0411,-2.2154,-2.2696,-2.2801,-2.2802,-2.2178,-2.1634,-2.1762,-2.1114,-2.0513,-2.0594,-2.0596,-2.0576,-2.0518,-2.1177,-2.1704,-2.1701,-2.159,-2.1831,-2.2692,-2.2803,-2.3132,-2.4005,-2.4822,-2.5161,-2.4837,-2.4468,-2.4226,-2.4199,-2.4199,-2.3904,-2.326,-2.322,-2.2941,-2.2347,-2.2319,-2.231,-2.231,-2.1454,-2.1048,-2.1019,-2.0133,-1.9748,-1.2978,-1.3925,-1.5007,-1.5919,0.0,0.0,0.0,0.0,0.0,0.0,0.0,0.0,0.0,0.0,0.0,0.0,0.0,0.0,0.0,0.0,0.0,0.0,0.0,0.0,0.0,0.0,0.0,0.0,0.0,0.0,-1.7512,-1.7681,-1.7811,-1.7811,-1.7811,-1.7811,-1.7811,-1.7811,-1.7811,-1.7811,-1.7811,-1.7811,-1.7811,-1.7811,-1.7811,-1.7811,-1.7811,-1.7811,-1.7811,-1.7811,-1.7811,-1.7828,-1.8292,-1.8775,-1.9234,-1.9442,-1.957,-1.9656,-1.9668,-1.9777,-1.9918,-2.0034,-2.0142,-2.0243,-2.0243,-2.0025,-1.9753,-1.9758,-1.9783,-1.9957,-2.0676,-2.1053,-2.1368,-2.1867,-2.1358,-2.0925,-2.1562,-2.0975,-2.0376,-2.0484,-2.0521,-2.0531,-2.0496,-2.0808,-2.1204,-2.1632,-2.1223,-2.1334,-2.2627,-2.2802,-2.3129,-2.4015,-2.463,-2.4945,-2.4811,-2.4439,-2.4199,-2.4199,-2.4199,-2.3996,-2.3527,-2.3307,-2.2989,-2.2553,-2.2369,-2.231,-2.231,-2.1438,-2.0985,-2.0996,-2.011,-1.9682,-1.2794,-1.3899,-1.5261,0.0,0.0,0.0,0.0,0.0,0.0,0.0,0.0,0.0,0.0,0.0,0.0,0.0,0.0,0.0,0.0,0.0,0.0,0.0,0.0,0.0,0.0,0.0,0.0,0.0,0.0,0.0,0.0,-1.7627,-1.7758,-1.7658,-1.7735,-1.7648,-1.7291,-1.7403,-1.7346,-1.7117,-1.7117,-1.7354,-1.7811,-1.7811,-1.7811,-1.7794,-1.7557,-1.7583,-1.7794,-1.7557,-1.76,-1.7833,-1.8005,-1.8126,-1.8211,-1.8303,-1.8392,-1.8484,-1.8563,-1.8711,-1.8903,-1.905,-1.9198,-1.9305,-1.9305,-1.9305,-1.9305,-1.9305,-1.9531,-1.9785,-1.9749,-2.0021,-2.0437,-2.0991,-2.0695,-2.0475,-2.1124,-2.075,-2.0332,-2.0418,-2.0467,-2.0488,-2.0475,-2.0732,-2.1208,-2.199,-2.1328,-2.1342,-2.3003,-2.2972,-2.323,-2.4351,-2.4668,-2.48,-2.4801,-2.4328,-2.4079,-2.419,-2.4005,-2.383,-2.371,-2.3366,-2.3039,-2.27,-2.2302,-2.2144,-2.231,-2.1273,-2.0865,-2.0996,-2.011,-1.9594,-1.4767,-1.5289,0.0,0.0,0.0,0.0,0.0,0.0,0.0,0.0,0.0,0.0,0.0,0.0,0.0,0.0,0.0,0.0,0.0,0.0,0.0,0.0,0.0,0.0,0.0,0.0,0.0,0.0,0.0,0.0,0.0,-1.7587,-1.7641,-1.7295,-1.761,-1.7266,-1.6188,-1.652,-1.6314,-1.5595,-1.5595,-1.6365,-1.7794,-1.7794,-1.7794,-1.776,-1.6999,-1.7101,-1.7752,-1.6999,-1.7134,-1.7811,-1.7811,-1.7963,-1.8157,-1.7901,-1.7971,-1.8227,-1.8501,-1.8594,-1.8668,-1.9132,-1.9305,-1.9305,-1.9305,-1.9305,-1.9305,-1.9305,-1.9531,-1.9769,-1.963,-1.995,-2.0304,-2.0304,-2.0302,-2.0302,-2.0312,-2.0307,-2.0298,-2.0298,-2.0408,-2.0488,-2.0406,-2.1123,-2.1992,-2.2851,-2.2127,-2.2115,-2.386,-2.3338,-2.3451,-2.512,-2.4995,-2.48,-2.4801,-2.4135,-2.3858,-2.4161,-2.3572,-2.3352,-2.3683,-2.3374,-2.305,-2.27,-2.1981,-2.1824,-2.2291,-2.0963,-2.0555,-2.0952,-2.011,-1.941,-1.34,0.0,0.0,0.0,0.0,0.0,0.0,0.0,0.0,0.0,0.0,0.0,0.0,0.0,0.0,0.0,0.0,0.0,0.0,0.0,0.0,0.0,0.0,0.0,0.0,0.0,0.0,0.0,0.0,0.0,0.0,-1.6538,-1.6473,-1.5827,-1.5737,-1.5533,-1.5233,-1.5305,-1.5242,-1.5045,-1.5045,-1.5466,-1.6255,-1.6255,-1.6534,-1.7004,-1.6238,-1.6635,-1.7794,-1.7566,-1.76,-1.7811,-1.7811,-1.7861,-1.7915,-1.7816,-1.7843,-1.7924,-1.8004,-1.8284,-1.8625,-1.8763,-1.902,-1.9305,-1.9305,-1.9305,-1.9305,-1.9305,-1.9476,-1.9652,-1.9602,-1.9769,-2.0129,-2.084,-2.0637,-2.0465,-2.1078,-2.0724,-2.0311,-2.0364,-2.0905,-2.1159,-2.0572,-2.1191,-2.1633,-2.1226,-2.0887,-2.1273,-2.2968,-2.3496,-2.412,-2.5187,-2.4995,-2.48,-2.4801,-2.4337,-2.3988,-2.3856,-2.3662,-2.3499,-2.3352,-2.3022,-2.2702,-2.2415,-2.1886,-2.1667,-2.182,-2.1131,-2.0682,-2.0489,-2.0222,-1.9675,-1.3857,0.0,0.0,0.0,0.0,0.0,0.0,0.0,0.0,0.0,0.0,0.0,0.0,0.0,0.0,0.0,0.0,0.0,0.0,0.0,0.0,0.0,0.0,0.0,0.0,0.0,0.0,0.0,0.0,0.0,0.0,-1.5635,-1.5443,-1.4867,-1.4812,-1.4587,-1.4161,-1.4293,-1.4221,-1.3931,-1.3931,-1.4113,-1.4433,-1.5131,-1.5682,-1.6089,-1.5741,-1.5939,-1.6534,-1.7131,-1.7366,-1.7395,-1.7682,-1.7811,-1.7811,-1.7811,-1.7811,-1.7828,-1.7927,-1.8229,-1.8592,-1.8606,-1.8929,-1.928,-1.9216,-1.9243,-1.9305,-1.9305,-1.9448,-1.9581,-1.9494,-1.9681,-2.0034,-2.0641,-2.0465,-2.035,-2.0953,-2.0666,-2.0312,-2.035,-2.0814,-2.1044,-2.0584,-2.0908,-2.1292,-2.1405,-2.1919,-2.2537,-2.3228,-2.4043,-2.4764,-2.5245,-2.4995,-2.48,-2.4801,-2.431,-2.393,-2.3707,-2.3445,-2.3204,-2.3012,-2.2797,-2.2616,-2.2448,-2.1757,-2.1454,-2.1598,-2.0868,-2.0432,-2.0299,-2.0154,-1.9652,0.0,0.0,0.0,0.0,0.0,0.0,0.0,0.0,0.0,0.0,0.0,0.0,0.0,0.0,0.0,0.0,0.0,0.0,0.0,0.0,0.0,0.0,0.0,0.0,0.0,0.0,0.0,0.0,0.0,0.0,0.0,-1.4828,-1.4484,-1.4132,-1.4376,-1.4052,-1.3081,-1.3362,-1.3191,-1.2533,-1.2533,-1.2533,-1.2573,-1.4247,-1.5007,-1.5064,-1.5446,-1.5185,-1.4605,-1.6016,-1.6631,-1.6778,-1.7429,-1.7746,-1.7811,-1.7811,-1.7811,-1.7836,-1.809,-1.8331,-1.8569,-1.8551,-1.8867,-1.9205,-1.9042,-1.9127,-1.9271,-1.928,-1.9439,-1.9522,-1.9351,-1.962,-1.9936,-1.9963,-2.0007,-2.0083,-2.0256,-2.0302,-2.0302,-2.0312,-2.0431,-2.0518,-2.0498,-2.0508,-2.1048,-2.2627,-2.4196,-2.4932,-2.4188,-2.4803,-2.5284,-2.5264,-2.4985,-2.479,-2.4774,-2.4144,-2.372,-2.3665,-2.3079,-2.2708,-2.2674,-2.2666,-2.2666,-2.2666,-2.1575,-2.1183,-2.1523,-2.0354,-1.9924,-2.0246,-1.9911,-1.9468,0.0,0.0,0.0,0.0,0.0,0.0,0.0,0.0,0.0,0.0,0.0,0.0,0.0,0.0,0.0,0.0,0.0,0.0,0.0,0.0,0.0,0.0,0.0,0.0,0.0,0.0,0.0,0.0,0.0,0.0,-1.3706,-1.3638,-1.3332,-1.266,-1.2516,-1.2332,-1.2094,-1.2173,-1.2119,0.0,-1.1974,-1.1974,-1.201,-1.3017,-1.3586,-1.385,-1.5065,-1.5182,-1.4572,-1.5477,-1.6177,-1.6722,-1.6875,-1.7297,-1.7811,-1.7811,-1.7811,-1.7819,-1.7862,-1.8051,-1.8289,-1.8292,-1.8494,-1.8778,-1.8955,-1.902,-1.91,-1.9253,-1.9332,-1.9351,-1.9314,-1.9369,-1.9513,-1.9773,-2.0044,-2.0246,-2.0292,-2.0302,-2.0321,-2.0369,-2.099,-2.1289,-2.0615,-2.1006,-2.1511,-2.1775,-2.3266,-2.4303,-2.412,-2.4803,-2.5235,-2.5082,-2.4908,-2.4743,-2.457,-2.4282,-2.3867,-2.3343,-2.3174,-2.2892,-2.2423,-2.2378,-2.2378,-2.2378,-2.1471,-2.1055,-2.1124,-2.0474,-2.0043,-1.9817,-2.0066,-1.9726,0.0,0.0,0.0,0.0,0.0,0.0,0.0,0.0,0.0,0.0,0.0,0.0,0.0,0.0,0.0,0.0,0.0,0.0,0.0,0.0,0.0,0.0,0.0,0.0,0.0,0.0,0.0,0.0,0.0,-1.3771,-1.3046,-1.274,-1.2404,-1.2018,-1.1862,-1.1797,-1.1797,-1.1797,-1.1797,-1.1797,-1.1797,-1.1868,-1.2007,-1.2424,-1.2754,-1.3061,-1.3963,-1.4061,-1.3662,-1.4514,-1.5117,-1.5524,-1.6223,-1.682,-1.7314,-1.7665,-1.7811,-1.7811,-1.7811,-1.7991,-1.8171,-1.8049,-1.836,-1.8779,-1.8812,-1.8965,-1.9179,-1.9262,-1.9305,-1.9305,-1.9305,-1.9415,-1.9581,-1.9759,-1.9936,-2.0102,-2.0265,-2.0302,-2.0316,-2.039,-2.0802,-2.0996,-2.0566,-2.1493,-2.2377,-2.2699,-2.3851,-2.4639,-2.4543,-2.4899,-2.5091,-2.4918,-2.4768,-2.4554,-2.4284,-2.407,-2.3674,-2.3012,-2.2958,-2.277,-2.2327,-2.2094,-2.2085,-2.231,-2.1446,-2.1,-2.1011,-2.0354,-1.991,-1.9726,-1.9925,-1.9925,0.0,0.0,0.0,0.0,0.0,0.0,0.0,0.0,0.0,0.0,0.0,0.0,0.0,0.0,0.0,0.0,0.0,0.0,0.0,0.0,0.0,0.0,0.0,0.0,0.0,0.0,0.0,0.0,0.0,-1.2756,-1.2636,-1.2097,-1.1797,-1.1797,-1.1797,-1.1797,-1.1797,-1.1797,-1.1797,-1.1797,-1.1797,-1.1917,-1.214,-1.2133,-1.2293,-1.2606,-1.282,-1.2809,-1.2657,-1.3496,-1.3937,-1.4217,-1.5445,-1.6235,-1.6778,-1.7395,-1.7682,-1.7811,-1.7811,-1.7943,-1.8099,-1.7862,-1.824,-1.8756,-1.8586,-1.8841,-1.9198,-1.9243,-1.9262,-1.9305,-1.9305,-1.9522,-1.9767,-1.9782,-1.9812,-1.9921,-2.0227,-2.0312,-2.0328,-2.0384,-2.0399,-2.0458,-2.0657,-2.1915,-2.3146,-2.3928,-2.4726,-2.5178,-2.4985,-2.4971,-2.4914,-2.4759,-2.4594,-2.4347,-2.3987,-2.3792,-2.3403,-2.2731,-2.2702,-2.2544,-2.2198,-2.1807,-2.1764,-2.2065,-2.1287,-2.0912,-2.1011,-2.0118,-1.9652,-1.9564,-1.966,-1.994,0.0,0.0,0.0,0.0,0.0,0.0,0.0,0.0,0.0,0.0,0.0,0.0,0.0,0.0,0.0,0.0,0.0,0.0,0.0,0.0,0.0,0.0,0.0,0.0,0.0,0.0,0.0,0.0,-1.2861,-1.2561,-1.1954,-1.185,-1.1797,-1.1797,-1.1797,-1.1797,-1.1797,-1.1797,-1.1797,-1.1797,-1.1797,-1.1819,-1.1847,-1.1854,-1.2133,-1.2594,-1.2647,-1.2623,-1.2606,-1.2736,-1.3302,-1.4111,-1.433,-1.5334,-1.6714,-1.6811,-1.7241,-1.7811,-1.7811,-1.7828,-1.7845,-1.7819,-1.7862,-1.8009,-1.8199,-1.8461,-1.8733,-1.8975,-1.9179,-1.9305,-1.9305,-1.9467,-1.9662,-1.9773,-1.989,-2.0027,-2.0246,-2.035,-2.0394,-2.0397,-2.0399,-2.0624,-2.1326,-2.2213,-2.3045,-2.3736,-2.4524,-2.4985,-2.4851,-2.4837,-2.4754,-2.456,-2.4524,-2.4291,-2.3785,-2.3717,-2.3394,-2.2743,-2.2698,-2.2415,-2.1712,-2.1645,-2.1472,-2.119,-2.0647,-2.0594,-2.1011,-2.0118,-1.9476,-1.9,-1.9483,-1.9498,0.0,0.0,0.0,0.0,0.0,0.0,0.0,0.0,0.0,0.0,0.0,0.0,0.0,0.0,0.0,0.0,0.0,0.0,0.0,0.0,0.0,0.0,0.0,0.0,0.0,0.0,0.0,0.0,-1.2231,-1.2104,-1.182,-1.1797,-1.1797,-1.1797,-1.1797,-1.1797,-1.1797,-1.1797,-1.1797,-1.1797,-1.1797,-1.1797,-1.1797,-1.1797,-1.1927,-1.2148,-1.2317,-1.2293,-1.2152,-1.232,-1.2727,-1.3317,-1.3967,-1.4975,-1.616,-1.6799,-1.737,-1.7811,-1.7811,-1.7811,-1.7811,-1.7811,-1.791,-1.8055,-1.8156,-1.8482,-1.8848,-1.8975,-1.9136,-1.9305,-1.9305,-1.9504,-1.9718,-1.9687,-1.9931,-2.0198,-2.0331,-2.035,-2.0503,-2.1033,-2.113,-2.1531,-2.2784,-2.3197,-2.3611,-2.436,-2.4711,-2.4834,-2.465,-2.4631,-2.455,-2.4347,-2.4328,-2.407,-2.3481,-2.3432,-2.3153,-2.2536,-2.2474,-2.2215,-2.1608,-2.137,-2.1197,-2.1003,-2.0547,-2.0403,-2.0622,-2.0006,-1.9579,-1.9352,-1.96,-1.9782,0.0,0.0,0.0,0.0,0.0,0.0,0.0,0.0,0.0,0.0,0.0,0.0,0.0,0.0,0.0,0.0,0.0,0.0,0.0,0.0,0.0,0.0,0.0,0.0,0.0,0.0,0.0,0.0,-1.1797,-1.1797,-1.1797,-1.1797,-1.1797,-1.1797,-1.1797,-1.1797,-1.1797,-1.1797,-1.1797,-1.1797,-1.1797,-1.1797,-1.1797,-1.1797,-1.1797,-1.1805,-1.2011,-1.1967,-1.1812,-1.2019,-1.2271,-1.2586,-1.3429,-1.4412,-1.5468,-1.6328,-1.7071,-1.7665,-1.7665,-1.7738,-1.7811,-1.7811,-1.7935,-1.8107,-1.8107,-1.8478,-1.8884,-1.8824,-1.9045,-1.9305,-1.9271,-1.9531,-1.9783,-1.9715,-2.0007,-2.0321,-2.0389,-2.0366,-2.0561,-2.1256,-2.156,-2.2156,-2.3547,-2.38,-2.4052,-2.4822,-2.4825,-2.4652,-2.4458,-2.4411,-2.4365,-2.4217,-2.4129,-2.385,-2.326,-2.3112,-2.2838,-2.2336,-2.231,-2.2032,-2.1471,-2.1153,-2.0914,-2.066,-2.0344,-2.021,-2.0296,-1.991,-1.9564,-1.9308,-1.9572,-1.9851,0.0,0.0,0.0,0.0,0.0,0.0,0.0,0.0,0.0,0.0,0.0,0.0,0.0,0.0,0.0,0.0,0.0,0.0,0.0,0.0,0.0,0.0,0.0,0.0,0.0,0.0,0.0,0.0,-1.1797,-1.1797,-1.1797,-1.1797,-1.1797,-1.1797,-1.1797,-1.1797,-1.1797,-1.1797,-1.1797,-1.1797,-1.1797,-1.1797,-1.1797,-1.1797,-1.1797,-1.1797,-1.1805,-1.1805,-1.1797,-1.1812,-1.1967,-1.2222,-1.2282,-1.3306,-1.4744,-1.4805,-1.5881,-1.7322,-1.7322,-1.7541,-1.7811,-1.7811,-1.7819,-1.7828,-1.7828,-1.8198,-1.8577,-1.8308,-1.8743,-1.928,-1.9225,-1.9504,-1.9829,-1.9944,-2.014,-2.0321,-2.0389,-2.0449,-2.0498,-2.0547,-2.1181,-2.1962,-2.2825,-2.344,-2.4035,-2.4709,-2.4634,-2.4448,-2.4236,-2.4217,-2.4208,-2.4199,-2.3927,-2.3576,-2.323,-2.2921,-2.2595,-2.2327,-2.231,-2.1911,-2.1066,-2.1025,-2.0622,-1.9771,-1.976,-1.9929,-2.0296,-1.991,-1.9168,-1.8209,-1.9291,-1.9267,0.0,0.0,0.0,0.0,0.0,0.0,0.0,0.0,0.0,0.0,0.0,0.0,0.0,0.0,0.0,0.0,0.0,0.0,0.0,0.0,0.0,0.0,0.0,0.0,0.0,0.0,0.0,0.0,0.0,-1.1797,-1.1797,-1.1797,-1.1797,-1.1797,-1.1797,-1.1797,-1.1797,-1.1797,-1.1797,-1.1797,-1.1797,-1.1797,-1.1797,-1.1797,-1.1797,-1.1797,-1.1797,-1.1797,-1.1797,-1.1797,-1.196,-1.2225,-1.248,-1.3181,-1.4149,-1.4821,-1.5763,-1.6717,-1.716,-1.751,-1.7811,-1.7811,-1.7811,-1.7811,-1.7811,-1.8042,-1.837,-1.8432,-1.877,-1.914,-1.9237,-1.9475,-1.9734,-1.9946,-2.0217,-2.0417,-2.0406,-2.0449,-2.0654,-2.1172,-2.1946,-2.2595,-2.2803,-2.3255,-2.3685,-2.3925,-2.372,-2.3701,-2.4144,-2.4199,-2.4199,-2.4199,-2.4087,-2.3799,-2.3242,-2.3081,-2.2804,-2.2336,-2.231,-2.1919,-2.1053,-2.1012,-2.0579,-1.9733,-1.9682,-1.9763,-1.9918,-1.9763,-1.9498,-1.914,-1.9169,-1.9211,0.0,0.0,0.0,0.0,0.0,0.0,0.0,0.0,0.0,0.0,0.0,0.0,0.0,0.0,0.0,0.0,0.0,0.0,0.0,0.0,0.0,0.0,0.0,0.0,0.0,0.0,0.0,0.0,0.0,0.0,-1.1797,-1.1797,-1.1694,-1.1482,-1.1687,-1.1694,-1.1482,-1.1694,-1.1797,-1.1797,-1.1797,-1.1797,-1.1797,-1.1797,-1.1797,-1.1797,-1.1797,-1.1797,-1.1797,-1.1797,-1.1901,-1.2078,-1.2353,-1.2847,-1.349,-1.4197,-1.5171,-1.6174,-1.6507,-1.7143,-1.7772,-1.7665,-1.7721,-1.7811,-1.7811,-1.8,-1.8237,-1.841,-1.8722,-1.9029,-1.9219,-1.9497,-1.9802,-2.0041,-2.0292,-2.0466,-2.0442,-2.0469,-2.0664,-2.1191,-2.1962,-2.2567,-2.2705,-2.3158,-2.3576,-2.3805,-2.3581,-2.3591,-2.4135,-2.4199,-2.4199,-2.4199,-2.3996,-2.3679,-2.3241,-2.3007,-2.2717,-2.2336,-2.231,-2.1969,-2.123,-2.1059,-2.0653,-1.9925,-1.9763,-1.9682,-1.9682,-1.9682,-1.9594,-1.9425,-1.9077,-1.9126,0.0,0.0,0.0,0.0,0.0,0.0,0.0,0.0,0.0,0.0,0.0,0.0,0.0,0.0,0.0,0.0,0.0,0.0,0.0,0.0,0.0,0.0,0.0,0.0,0.0,0.0,0.0,0.0,-1.1797,-1.1797,-1.1797,-1.1797,-1.1497,-1.085,-1.1453,-1.1482,-1.0807,-1.1453,-1.179,-1.1761,-1.179,-1.1797,-1.1797,-1.1797,-1.1797,-1.1797,-1.1797,-1.1797,-1.1797,-1.1797,-1.1797,-1.1797,-1.1797,-1.2211,-1.2779,-1.2787,-1.4036,-1.5692,-1.5408,-1.6386,-1.771,-1.7412,-1.7541,-1.7811,-1.7811,-1.7991,-1.8198,-1.8206,-1.8585,-1.9011,-1.9179,-1.9598,-2.0043,-2.0249,-2.0348,-2.0415,-2.0482,-2.0498,-2.0498,-2.0498,-2.1088,-2.1801,-2.2422,-2.3031,-2.364,-2.4303,-2.4236,-2.4135,-2.4153,-2.419,-2.4199,-2.4199,-2.3619,-2.3229,-2.3191,-2.2652,-2.233,-2.2302,-2.231,-2.2102,-2.1625,-2.1235,-2.077,-2.0303,-1.9925,-1.9726,-1.9682,-1.9682,-1.9417,-1.8913,-1.8899,-1.8934,-0.8027,0.0,0.0,0.0,0.0,0.0,0.0,0.0,0.0,0.0,0.0,0.0,0.0,0.0,0.0,0.0,0.0,0.0,0.0,0.0,0.0,0.0,0.0,0.0,0.0,0.0,0.0,0.0,-1.1797,-1.1797,-1.1797,-1.1797,-1.1702,-1.1533,-1.1694,-1.1482,-1.0807,-1.1453,-1.1555,-1.1089,-1.1577,-1.1797,-1.1797,-1.1797,-1.1797,-1.1797,-1.1797,-1.1797,-1.1797,-1.1797,-1.1797,-1.1797,-1.1797,-1.1908,-1.213,-1.2614,-1.3304,-1.4132,-1.5005,-1.5927,-1.6773,-1.7161,-1.7541,-1.7811,-1.7811,-1.7845,-1.8,-1.8379,-1.8594,-1.8831,-1.9351,-1.9667,-1.9917,-2.0108,-2.0284,-2.0414,-2.0419,-2.0432,-2.0431,-2.0431,-2.1055,-2.1409,-2.0823,-2.1302,-2.1784,-2.1823,-2.2185,-2.2667,-2.3263,-2.3841,-2.4103,-2.3867,-2.3896,-2.3726,-2.3252,-2.3036,-2.2857,-2.2599,-2.2407,-2.2101,-2.1632,-2.15,-2.1095,-2.0324,-2.0192,-1.9999,-1.9682,-1.9682,-1.9601,-1.9462,-1.9069,-1.8499,0.0,0.0,0.0,0.0,0.0,0.0,0.0,-1.1311,0.0,0.0,0.0,0.0,0.0,0.0,0.0,0.0,0.0,0.0,0.0,0.0,0.0,0.0,0.0,0.0,0.0,-1.1797,-1.1797,-1.1797,-1.1797,-1.1797,-1.1797,-1.1797,-1.168,-1.1387,-1.165,-1.1482,-1.0807,-1.118,-1.118,-1.08,-1.1198,-1.1387,-1.1387,-1.168,-1.1797,-1.1797,-1.1797,-1.1797,-1.1797,-1.1797,-1.1797,-1.1797,-1.1797,-1.1797,-1.1849,-1.2234,-1.2779,-1.3424,-1.4345,-1.5304,-1.6195,-1.6855,-1.7224,-1.7429,-1.7729,-1.7772,-1.7845,-1.8305,-1.8585,-1.8904,-1.9513,-1.9743,-1.9873,-2.016,-2.0313,-2.041,-2.0439,-2.0422,-2.0389,-2.036,-2.0673,-2.0823,-2.0474,-2.0727,-2.1138,-2.1634,-2.2056,-2.2584,-2.3391,-2.3915,-2.4122,-2.3926,-2.3837,-2.3619,-2.3236,-2.3069,-2.2856,-2.2563,-2.25,-2.229,-2.1899,-2.1694,-2.127,-2.0596,-2.0406,-2.0103,-1.9682,-1.9483,-1.9146,-1.8702,-1.8631,-1.8164,0.0,0.0,0.0,0.0,0.0,0.0,-1.1679,-1.0971,-1.0381,0.0,0.0,0.0,0.0,0.0,0.0,0.0,0.0,0.0,0.0,0.0,0.0,0.0,0.0,0.0,-1.1805,-1.1797,-1.1797,-1.1797,-1.1797,-1.1797,-1.1797,-1.1797,-1.1533,-1.0937,-1.1489,-1.1482,-1.0807,-1.0866,-1.0849,-1.0695,-1.0774,-1.0791,-1.0814,-1.1431,-1.1738,-1.1797,-1.1797,-1.1797,-1.1797,-1.1797,-1.1797,-1.1797,-1.1797,-1.1797,-1.1797,-1.1797,-1.2375,-1.3194,-1.3559,-1.4481,-1.5659,-1.6403,-1.6665,-1.6814,-1.7522,-1.7698,-1.7746,-1.8124,-1.8603,-1.9118,-1.9657,-1.98,-1.9902,-2.0302,-2.0404,-2.042,-2.0478,-2.0441,-2.0371,-2.028,-2.0117,-2.0179,-2.0768,-2.0761,-2.1096,-2.2397,-2.2749,-2.3134,-2.3841,-2.4089,-2.4199,-2.4151,-2.364,-2.33,-2.3268,-2.2972,-2.2695,-2.2424,-2.2581,-2.2581,-2.2302,-2.1902,-2.1445,-2.0991,-2.0493,-2.0,-1.9522,-1.909,-1.8389,-1.7413,-1.7861,-1.781,0.0,0.0,0.0,0.0,0.0,0.0,-0.9369,-0.8924,-0.876,0.0,0.0,0.0,0.0,0.0,0.0,0.0,0.0,0.0,0.0,0.0,0.0,0.0,0.0,0.0,-1.1776,-1.1797,-1.1797,-1.1797,-1.1797,-1.1797,-1.1797,-1.1797,-1.1746,-1.1599,-1.1738,-1.1482,-1.0807,-1.1347,-1.1101,-1.0073,-1.0575,-1.08,-1.08,-1.0944,-1.1292,-1.1797,-1.1797,-1.1797,-1.1797,-1.1797,-1.1797,-1.1797,-1.1797,-1.1797,-1.1797,-1.1797,-1.1916,-1.2174,-1.2787,-1.3347,-1.3977,-1.5201,-1.5782,-1.6162,-1.7112,-1.7377,-1.755,-1.8305,-1.8756,-1.9118,-1.9657,-1.98,-1.9902,-2.0302,-2.0404,-2.04,-2.042,-2.0412,-2.033,-2.0104,-2.0036,-2.0007,-2.0032,-1.992,-1.988,-2.0006,-2.1178,-2.2079,-2.2262,-2.3391,-2.4103,-2.3825,-2.3917,-2.3896,-2.3619,-2.3544,-2.3378,-2.3038,-2.2822,-2.2581,-2.2302,-2.2215,-2.1811,-2.1034,-2.0219,-1.9362,-1.8419,-1.8733,-1.8576,-1.7953,-1.7633,-1.7194,0.0,0.0,0.0,-0.9927,0.0,0.0,0.0,-0.8685,-0.8595,-0.9416,0.0,0.0,0.0,0.0,0.0,0.0,0.0,0.0,0.0,0.0,0.0,0.0,0.0,0.0,-1.1534,-1.1564,-1.1564,-1.1564,-1.1703,-1.1732,-1.1564,-1.1703,-1.1797,-1.1797,-1.1797,-1.1643,-1.1292,-1.1292,-1.0981,-1.0348,-1.0661,-1.0638,-1.0376,-1.1005,-1.1292,-1.1329,-1.165,-1.1797,-1.1797,-1.1797,-1.1797,-1.1797,-1.1797,-1.1797,-1.1797,-1.1797,-1.1797,-1.1901,-1.2562,-1.2901,-1.3296,-1.4798,-1.5401,-1.5767,-1.6946,-1.7412,-1.7729,-1.8569,-1.88,-1.8956,-1.9629,-1.98,-1.9902,-2.0302,-2.0404,-2.04,-2.04,-2.0402,-2.0313,-2.0047,-1.9953,-1.9852,-1.972,-1.9564,-1.9557,-1.9856,-2.0978,-2.1932,-2.2345,-2.3446,-2.4151,-2.3976,-2.3946,-2.3887,-2.3714,-2.3692,-2.3566,-2.3221,-2.3045,-2.2806,-2.25,-2.236,-2.1903,-2.1021,-2.0351,-1.963,-1.8893,-1.8627,-1.8108,-1.7288,-1.7044,-1.6758,0.0,0.0,0.0,0.0,0.0,-0.9148,0.0,0.0,0.0,-0.922,0.0,0.0,0.0,0.0,0.0,0.0,0.0,0.0,0.0,0.0,0.0,0.0,0.0,0.0,0.0,-1.121,-1.1196,-1.1288,-1.1446,-1.1497,-1.1393,-1.1659,-1.1797,-1.1797,-1.1797,-1.1797,-1.1797,-1.1249,-1.0937,-1.0793,-1.0796,-1.0535,-1.0113,-1.115,-1.1377,-1.1031,-1.1555,-1.1797,-1.1797,-1.1797,-1.1797,-1.1797,-1.1797,-1.1797,-1.1797,-1.1797,-1.1797,-1.1893,-1.2427,-1.2614,-1.2863,-1.4484,-1.5271,-1.5808,-1.6941,-1.7558,-1.8017,-1.8742,-1.8809,-1.8877,-1.9611,-1.9828,-1.995,-2.0312,-2.0404,-2.04,-2.04,-2.0393,-2.0294,-2.0019,-1.987,-1.9763,-1.9624,-1.9433,-1.9519,-2.0179,-2.0996,-2.184,-2.2666,-2.3474,-2.4025,-2.4181,-2.3967,-2.3795,-2.3795,-2.3795,-2.364,-2.3323,-2.3245,-2.3045,-2.2712,-2.2345,-2.1789,-2.1031,-2.055,-2.0054,-1.9522,-1.8574,-1.7639,-1.6797,-1.6607,-1.6515,0.0,0.0,0.0,0.0,-0.9766,0.0,0.0,0.0,-0.7427,-0.7052,0.0,0.0,0.0,0.0,0.0,0.0,0.0,0.0,0.0,0.0,0.0,0.0,0.0,0.0,0.0,-1.0865,-1.0792,-1.126,-1.0893,-1.0962,-1.1695,-1.1776,-1.1797,-1.1797,-1.1797,-1.1797,-1.1797,-1.1709,-1.1387,-1.08,-1.0805,-1.0766,-1.07,-1.086,-1.1191,-1.1694,-1.1761,-1.1797,-1.1797,-1.1797,-1.1797,-1.1797,-1.1797,-1.1797,-1.1797,-1.1797,-1.1797,-1.1805,-1.1893,-1.1908,-1.213,-1.3514,-1.5172,-1.6703,-1.7165,-1.7698,-1.8215,-1.856,-1.8881,-1.9243,-1.9675,-1.9934,-2.0121,-2.035,-2.0404,-2.04,-2.04,-2.035,-2.0208,-1.9885,-1.9809,-1.9771,-1.9615,-1.9433,-1.9326,-1.9418,-2.0134,-2.0969,-2.1822,-2.2639,-2.3419,-2.4116,-2.417,-2.4142,-2.4142,-2.4142,-2.3996,-2.3662,-2.336,-2.3045,-2.2712,-2.2026,-2.1469,-2.0999,-2.055,-1.9856,-1.9006,-1.8373,-1.8022,-1.7882,-1.6937,-1.6515,0.0,0.0,0.0,0.0,0.0,0.0,-0.7879,0.0,-0.71,0.0,0.0,0.0,0.0,0.0,0.0,0.0,0.0,0.0,0.0,0.0,0.0,0.0,0.0,0.0,0.0,0.0,0.0,0.0,-1.0243,-1.0192,-1.1229,-1.1437,-1.1512,-1.1512,-1.1703,-1.1702,-1.1504,-1.1694,-1.165,-1.1387,-1.0995,-1.08,-1.0778,-1.0645,-1.0807,-1.1234,-1.1431,-1.1628,-1.1797,-1.1797,-1.1797,-1.1797,-1.1797,-1.1797,-1.1797,-1.1797,-1.1797,-1.1797,-1.1797,-1.1797,-1.2096,-1.3827,-1.5319,-1.6586,-1.737,-1.7763,-1.8065,-1.8476,-1.8774,-1.9098,-1.9663,-1.9917,-2.0104,-2.0338,-2.0367,-2.0348,-2.0391,-2.035,-2.0198,-1.9866,-1.9791,-1.9715,-1.9474,-1.9359,-1.9305,-1.9305,-1.9987,-2.0622,-2.1005,-2.2198,-2.3134,-2.3474,-2.3924,-2.4199,-2.4199,-2.4199,-2.4142,-2.3996,-2.3491,-2.2989,-2.2482,-2.2166,-2.1802,-2.1376,-2.0918,-2.0374,-1.9707,-1.8629,-1.8094,-1.8083,-1.6983,-1.6515,-1.1209,0.0,0.0,0.0,0.0,0.0,0.0,0.0,0.0,0.0,0.0,0.0,0.0,0.0,0.0,0.0,0.0,0.0,0.0,0.0,0.0,0.0,0.0,0.0,0.0,0.0,0.0,0.0,0.0,-0.9778,-1.1077,-1.1242,-1.1348,-1.1416,-1.1579,-1.1593,-1.1438,-1.1687,-1.1746,-1.165,-1.1089,-1.0767,-1.0693,-1.0555,-1.0626,-1.082,-1.1256,-1.1584,-1.1797,-1.1797,-1.1797,-1.1797,-1.1797,-1.1797,-1.1797,-1.1797,-1.1797,-1.1797,-1.1797,-1.2107,-1.2747,-1.4286,-1.5575,-1.6658,-1.755,-1.7845,-1.8005,-1.8466,-1.8748,-1.905,-1.9649,-1.9911,-2.0089,-2.0341,-2.0355,-2.0341,-2.0392,-2.035,-2.0198,-1.9866,-1.9834,-1.973,-1.9357,-1.9305,-1.9305,-1.9305,-1.9803,-2.0345,-2.0803,-2.1923,-2.2841,-2.329,-2.385,-2.4199,-2.4199,-2.4199,-2.4122,-2.3946,-2.3566,-2.3032,-2.233,-2.2369,-2.215,-2.1612,-2.1213,-2.0723,-2.0093,-1.8767,-1.802,-1.786,-1.6915,-1.6515,0.0,0.0,0.0,-0.8838,0.0,0.0,0.0,0.0,-0.8098,0.0,0.0,0.0,0.0,0.0,0.0,0.0,0.0,0.0,0.0,0.0,0.0,0.0,0.0,0.0,0.0,0.0,0.0,0.0,0.0,0.0,-1.1687,-1.1468,-1.1445,-1.1776,-1.1488,-1.1466,-1.179,-1.179,-1.1643,-1.13,-1.0959,-1.0655,-1.0426,-1.0672,-1.0798,-1.0837,-1.1494,-1.179,-1.1797,-1.1797,-1.1797,-1.1797,-1.1797,-1.1797,-1.1797,-1.1797,-1.1797,-1.1797,-1.1797,-1.2855,-1.4277,-1.4679,-1.5922,-1.7322,-1.7682,-1.7991,-1.8245,-1.8523,-1.8882,-1.9276,-1.9687,-1.995,-2.015,-2.0346,-2.0398,-2.0399,-2.0401,-2.035,-2.0198,-1.9866,-1.9903,-1.9854,-1.9374,-1.9305,-1.9305,-1.9305,-1.9317,-1.9913,-2.1555,-2.1812,-2.2428,-2.3997,-2.4181,-2.4199,-2.4199,-2.4199,-2.3917,-2.3268,-2.3522,-2.328,-2.233,-2.2563,-2.2342,-2.1612,-2.1213,-2.0534,-1.9613,-1.8584,-1.782,-1.7312,-1.6752,-1.6515,0.0,0.0,-1.1054,-0.9275,0.0,0.0,0.0,0.0,0.0,0.0,0.0,0.0,0.0,0.0,0.0,0.0,0.0,0.0,0.0,0.0,0.0,0.0,0.0,0.0,0.0,0.0,0.0,0.0,-0.8695,0.0,0.0,-1.0862,-1.0994,-1.0872,-1.1157,-1.1263,-1.1217,-1.1187,-1.1341,-1.1614,-1.0662,-1.047,-1.0976,-1.0447,-1.0534,-1.1137,-1.1366,-1.1592,-1.1797,-1.1797,-1.1797,-1.1797,-1.1797,-1.1797,-1.1797,-1.1797,-1.1797,-1.1797,-1.1797,-1.2727,-1.4002,-1.4599,-1.5744,-1.7029,-1.7631,-1.8,-1.8271,-1.8512,-1.889,-1.9285,-1.9692,-1.9923,-2.0102,-2.034,-2.0375,-2.035,-2.0394,-2.0351,-2.023,-1.9982,-1.997,-1.9891,-1.955,-1.9572,-1.9563,-1.9326,-1.9305,-1.9693,-2.0803,-2.1437,-2.2208,-2.329,-2.3878,-2.4199,-2.4199,-2.3996,-2.3671,-2.3221,-2.3093,-2.2906,-2.2581,-2.2482,-2.2315,-2.2069,-2.1022,-2.0296,-1.9982,-1.8349,-1.747,-1.7271,-1.633,-1.6139,-1.021,-1.0609,0.0,-0.9421,-0.9365,0.0,-0.8014,0.0,0.0,0.0,0.0,0.0,0.0,0.0,0.0,0.0,0.0,0.0,0.0,0.0,0.0,0.0,0.0,0.0,0.0,0.0,-0.7181,-0.8839,-0.8263,0.0,0.0,0.0,-1.0726,-1.0729,-1.1003,-1.1064,-1.0897,-1.0977,-1.1127,-1.1297,-1.0352,-1.0214,-1.0797,-1.0297,-1.0466,-1.114,-1.138,-1.1599,-1.1797,-1.1797,-1.1797,-1.1797,-1.1797,-1.1797,-1.1797,-1.1797,-1.1797,-1.1841,-1.2071,-1.3013,-1.4207,-1.4919,-1.6024,-1.7168,-1.7656,-1.8,-1.827,-1.8522,-1.886,-1.9234,-1.9675,-1.9856,-2.0007,-2.0321,-2.0375,-2.0352,-2.0391,-2.0369,-2.0265,-2.0044,-2.0068,-2.0014,-1.9717,-1.9776,-1.9746,-1.9356,-1.935,-1.9779,-2.0822,-2.1446,-2.2217,-2.3318,-2.3887,-2.4199,-2.4199,-2.3887,-2.3566,-2.3221,-2.2996,-2.278,-2.2563,-2.2337,-2.2166,-2.204,-2.0677,-1.9897,-1.9708,-1.8076,-1.7188,-1.6986,-1.6021,-1.5814]},{"header":{"parameterUnit":"m.s-1","parameterCategory":1,"la1":30.6,"la2":29.2853,"lo1":-89.7004,"lo2":-87.6739,"dy":0.0162,"dx":0.0183,"nx":112,"ny":82,"refTime":"2025-12-10T12:00:00:Z","depth":0,"parameterNumber":3,"parameterNumberName":"V-component_of_WINDS"},"data":[0.0,0.0,0.0,0.0,0.0,0.0,0.0,0.0,0.0,0.0,0.0,0.0,0.0,0.0,0.0,0.0,0.0,0.0,0.0,0.0,0.0,0.0,0.0,0.0,0.0,0.0,0.0,0.0,0.0,0.0,0.0,0.0,0.0,0.0,0.0,0.0,0.0,0.0,0.0,0.0,0.0,0.0,0.0,0.0,0.0,0.0,0.0,0.0,0.0,0.0,0.0,0.0,0.0,0.0,0.0,0.0,0.0,0.0,0.0,0.0,0.0,0.0,0.0,0.0,0.0,0.0,0.0,0.0,0.0,0.0,0.0,0.0,0.0,0.0,0.0,0.0,0.0,0.0,0.0,0.0,0.0,0.0,0.0,0.0,0.0,0.0,0.0,0.0,0.0,0.0,-0.4936,-0.5302,-0.6864,-0.8099,-0.8752,-0.85,-0.8129,-0.7633,0.0,0.0,0.0,0.0,0.0,0.0,0.0,0.0,0.0,0.0,0.0,0.0,0.0,0.0,0.0,0.0,0.0,0.0,0.0,0.0,0.0,0.0,0.0,0.0,0.0,0.0,0.0,0.0,0.0,0.0,0.0,0.0,0.0,0.0,0.0,0.0,0.0,0.0,0.0,0.0,0.0,0.0,0.0,0.0,0.0,0.0,0.0,0.0,0.0,0.0,0.0,0.0,0.0,0.0,0.0,0.0,0.0,0.0,0.0,0.0,0.0,0.0,0.0,0.0,0.0,0.0,0.0,0.0,0.0,0.0,0.0,0.0,0.0,0.0,0.0,0.0,0.0,0.0,0.0,0.0,0.0,0.0,0.0,0.0,0.0,0.0,0.0,0.0,0.0,0.0,0.0,0.0,0.0,0.0,0.0,0.0,0.0,0.0,0.0,0.0,0.0,0.0,0.0,0.0,-0.5062,-0.7084,-0.8081,-0.8695,-0.8804,-0.831,-0.7861,-0.7619,0.0,0.0,0.0,0.0,0.0,0.0,0.0,0.0,0.0,0.0,0.0,0.0,0.0,0.0,0.0,0.0,0.0,0.0,0.0,0.0,0.0,0.0,0.0,0.0,0.0,0.0,0.0,0.0,0.0,0.0,0.0,0.0,0.0,0.0,0.0,0.0,0.0,0.0,0.0,0.0,0.0,0.0,0.0,0.0,0.0,0.0,0.0,0.0,0.0,0.0,0.0,0.0,0.0,0.0,0.0,0.0,0.0,0.0,0.0,0.0,0.0,0.0,0.0,0.0,0.0,0.0,0.0,0.0,0.0,0.0,0.0,0.0,0.0,0.0,0.0,0.0,0.0,0.0,0.0,0.0,0.0,0.0,0.0,0.0,0.0,0.0,0.0,0.0,0.0,0.0,0.0,0.0,0.0,0.0,0.0,0.0,0.0,0.0,0.0,0.0,0.0,0.0,0.0,-0.5079,-0.6234,-0.8081,-0.859,-0.8808,-0.8808,-0.827,-0.7829,-0.7613,-0.6761,0.0,0.0,0.0,0.0,0.0,0.0,0.0,0.0,0.0,0.0,0.0,0.0,0.0,0.0,0.0,0.0,0.0,0.0,0.0,0.0,0.0,0.0,0.0,0.0,0.0,0.0,0.0,0.0,0.0,0.0,0.0,0.0,0.0,0.0,0.0,0.0,0.0,0.0,0.0,0.0,0.0,0.0,0.0,0.0,0.0,0.0,0.0,0.0,0.0,0.0,0.0,0.0,0.0,0.0,0.0,0.0,0.0,0.0,0.0,0.0,0.0,0.0,0.0,0.0,0.0,0.0,0.0,0.0,0.0,0.0,0.0,0.0,0.0,0.0,0.0,0.0,0.0,0.0,0.0,0.0,0.0,0.0,0.0,0.0,0.0,0.0,0.0,0.0,0.0,0.0,0.0,0.0,0.0,0.0,0.0,0.0,0.0,0.0,0.0,0.0,0.0,0.0,-0.6508,-0.7265,-0.8665,-0.8808,-0.8808,-0.8808,-0.8136,-0.7657,-0.7621,-0.6517,0.0,0.0,0.0,0.0,0.0,0.0,0.0,0.0,0.0,0.0,0.0,0.0,0.0,0.0,0.0,0.0,0.0,0.0,0.0,0.0,0.0,0.0,0.0,0.0,0.0,0.0,0.0,0.0,0.0,0.0,0.0,0.0,0.0,0.0,0.0,0.0,0.0,0.0,0.0,0.0,0.0,0.0,0.0,0.0,0.0,0.0,0.0,0.0,0.0,0.0,0.0,0.0,0.0,0.0,0.0,0.0,0.0,0.0,0.0,0.0,0.0,0.0,0.0,0.0,0.0,0.0,0.0,0.0,0.0,0.0,0.0,0.0,0.0,0.0,0.0,0.0,0.0,0.0,0.0,0.0,0.0,0.0,0.0,0.0,0.0,0.0,0.0,0.0,0.0,0.0,0.0,0.0,0.0,0.0,0.0,0.0,0.0,0.0,0.0,0.0,0.0,0.0,-0.6687,-0.7527,-0.8688,-0.8808,-0.8808,-0.8808,-0.7749,-0.7231,-0.759,-0.6136,0.0,0.0,0.0,0.0,0.0,0.0,0.0,0.0,0.0,0.0,0.0,0.0,0.0,0.0,0.0,0.0,0.0,0.0,0.0,0.0,0.0,0.0,0.0,0.0,0.0,0.0,0.0,0.0,0.0,0.0,0.0,0.0,0.0,0.0,0.0,0.0,0.0,0.0,0.0,0.0,0.0,0.0,0.0,0.0,0.0,0.0,0.0,0.0,0.0,0.0,0.0,0.0,0.0,0.0,0.0,0.0,0.0,0.0,0.0,0.0,0.0,0.0,0.0,0.0,0.0,0.0,0.0,0.0,0.0,0.0,0.0,0.0,0.0,0.0,0.0,0.0,0.0,0.0,0.0,0.0,0.0,0.0,0.0,0.0,0.0,0.0,0.0,0.0,0.0,0.0,0.0,0.0,0.0,0.0,0.0,0.0,0.0,0.0,0.0,0.0,0.0,0.0,-0.6562,-0.7425,0.0,-0.8537,-0.8537,-0.8537,-0.7956,-0.7397,-0.696,0.0,0.0,0.0,0.0,0.0,0.0,0.0,0.0,0.0,0.0,0.0,0.0,0.0,0.0,0.0,0.0,0.0,0.0,0.0,0.0,0.0,0.0,0.0,0.0,0.0,0.0,0.0,0.0,0.0,0.0,0.0,0.0,0.0,0.0,0.0,0.0,0.0,0.0,0.0,0.0,0.0,0.0,0.0,0.0,0.0,0.0,0.0,0.0,0.0,0.0,0.0,0.0,0.0,0.0,0.0,0.0,0.0,0.0,0.0,0.0,0.0,0.0,0.0,0.0,0.0,0.0,0.0,0.0,0.0,0.0,0.0,0.0,0.0,0.0,0.0,0.0,0.0,0.0,0.0,0.0,0.0,0.0,0.0,0.0,0.0,0.0,0.0,0.0,0.0,0.0,0.0,0.0,0.0,0.0,0.0,0.0,0.0,0.0,0.0,0.0,0.0,0.0,-0.556,-0.6378,-0.7176,0.0,-0.8135,-0.8046,-0.7953,-0.7588,-0.7102,-0.6418,0.0,0.0,0.0,0.0,0.0,0.0,0.0,0.0,0.0,0.0,0.0,0.0,0.0,0.0,0.0,0.0,0.0,0.0,0.0,0.0,0.0,0.0,0.0,0.0,0.0,0.0,0.0,0.0,0.0,0.0,0.0,0.0,0.0,0.0,0.0,0.0,0.0,0.0,0.0,0.0,0.0,0.0,0.0,0.0,0.0,0.0,0.0,0.0,0.0,0.0,0.0,0.0,0.0,0.0,0.0,0.0,0.0,0.0,0.0,0.0,0.0,0.0,0.0,0.0,0.0,0.0,0.0,0.0,0.0,0.0,0.0,0.0,0.0,0.0,0.0,0.0,0.0,0.0,0.0,0.0,0.0,0.0,0.0,0.0,0.0,0.0,0.0,0.0,0.0,0.0,0.0,0.0,0.0,0.0,0.0,0.0,0.0,0.0,0.0,0.0,0.0,0.0,-0.5532,-0.6232,-0.682,-0.741,-0.75,-0.7338,-0.7041,-0.6576,-0.6266,0.0,0.0,0.0,0.0,0.0,0.0,0.0,0.0,0.0,0.0,0.0,0.0,0.0,0.0,0.0,0.0,0.0,0.0,0.0,0.0,0.0,0.0,0.0,0.0,0.0,0.0,0.0,0.0,0.0,0.0,0.0,0.0,0.0,0.0,0.0,0.0,0.0,0.0,0.0,0.0,0.0,0.0,0.0,0.0,0.0,0.0,0.0,0.0,0.0,0.0,0.0,0.0,0.0,0.0,0.0,0.0,0.0,0.0,0.0,0.0,0.0,0.0,0.0,0.0,0.0,0.0,0.0,0.0,0.0,0.0,0.0,0.0,0.0,0.0,0.0,0.0,0.0,0.0,0.0,0.0,0.0,0.0,0.0,0.0,0.0,0.0,0.0,0.0,0.0,0.0,0.0,0.0,0.0,0.0,0.0,0.0,0.0,0.0,0.0,0.0,0.0,0.0,0.0,-0.4749,-0.5701,-0.6458,-0.6824,-0.6847,-0.681,-0.6723,-0.6852,-0.6622,-0.587,0.0,0.0,0.0,0.0,0.0,0.0,0.0,0.0,0.0,0.0,0.0,0.0,0.0,0.0,0.0,0.0,0.0,0.0,0.0,0.0,0.0,0.0,0.0,0.0,0.0,0.0,0.0,0.0,0.0,0.0,0.0,0.0,0.0,0.0,0.0,0.0,0.0,0.0,0.0,0.0,0.0,0.0,0.0,0.0,0.0,0.0,0.0,0.0,0.0,0.0,0.0,0.0,0.0,0.0,0.0,0.0,0.0,0.0,0.0,0.0,0.0,0.0,0.0,0.0,0.0,0.0,0.0,0.0,0.0,0.0,0.0,0.0,0.0,0.0,0.0,0.0,0.0,0.0,0.0,0.0,0.0,0.0,0.0,0.0,0.0,0.0,0.0,0.0,0.0,0.0,0.0,0.0,0.0,0.0,0.0,0.0,0.0,0.0,0.0,0.0,0.0,0.0,-0.4387,-0.523,-0.5953,-0.6195,-0.6239,-0.6192,-0.6076,-0.6589,-0.6511,-0.5565,0.0,0.0,0.0,0.0,0.0,0.0,0.0,0.0,0.0,0.0,0.0,0.0,0.0,0.0,0.0,0.0,0.0,0.0,0.0,0.0,0.0,0.0,0.0,0.0,0.0,0.0,0.0,0.0,0.0,0.0,0.0,0.0,0.0,0.0,0.0,0.0,0.0,0.0,0.0,0.0,0.0,0.0,0.0,0.0,0.0,0.0,0.0,0.0,0.0,0.0,0.0,0.0,0.0,0.0,0.0,0.0,0.0,0.0,0.0,0.0,0.0,0.0,0.0,0.0,0.0,0.0,0.0,0.0,0.0,0.0,0.0,0.0,0.0,0.0,0.0,0.0,0.0,0.0,0.0,0.0,0.0,0.0,0.0,0.0,0.0,0.0,0.0,0.0,0.0,0.0,0.0,0.0,0.0,0.0,0.0,0.0,0.0,0.0,0.0,0.0,0.0,0.0,-0.4321,-0.4869,-0.5356,-0.5633,-0.5671,-0.5564,-0.5332,-0.6033,-0.6133,-0.5325,0.0,0.0,0.0,0.0,0.0,0.0,0.0,0.0,0.0,0.0,0.0,0.0,0.0,0.0,0.0,0.0,0.0,0.0,0.0,0.0,0.0,0.0,0.0,0.0,0.0,0.0,0.0,0.0,0.0,0.0,0.0,0.0,0.0,0.0,0.0,0.0,0.0,0.0,0.0,0.0,0.0,0.0,0.0,0.0,0.0,0.0,0.0,0.0,0.0,0.0,0.0,0.0,0.0,0.0,0.0,0.0,0.0,0.0,0.0,0.0,0.2944,0.0,0.0,0.0,0.0,0.0,0.0,0.0,0.0,0.0,0.0,0.0,0.0,0.0,0.0,0.0,0.0,0.0,0.0,0.0,0.0,0.0,0.0,0.0,0.0,0.0,0.0,0.0,0.0,0.0,0.0,0.0,0.0,0.0,0.0,0.0,0.0,0.0,0.0,0.0,0.0,0.0,-0.405,-0.4474,-0.491,-0.5345,-0.5374,-0.5347,-0.5316,-0.6033,-0.6273,-0.5782,-0.6159,0.0,0.0,0.0,0.0,0.0,0.0,0.0,0.0,0.0,0.0,0.0,0.0,0.0,0.0,0.0,0.0,0.0,0.0,0.0,0.0,0.0,0.0,0.0,0.0,0.0,0.0,0.0,0.0,0.0,0.0,0.0,0.0,0.0,0.0,0.0,0.0,0.0,0.0,0.0,0.0,0.0,0.0,0.0,0.0,0.0,0.0,0.0,0.0,0.0,0.0,0.0,0.0,0.0,0.0,0.0,0.0,0.0,0.0,0.0,0.0,0.3268,0.0,0.0,0.0,0.0,0.0,0.0,0.0,0.0,0.0,0.0,0.0,0.0,0.0,0.0,0.0,0.0,0.0,0.0,0.0,0.0,0.0,0.0,0.0,0.0,0.0,0.0,0.0,0.0,0.0,0.0,0.0,0.0,0.0,0.0,0.0,0.0,0.0,0.0,0.0,0.0,-0.3968,-0.4341,-0.4794,-0.5246,-0.5312,-0.5312,-0.5312,-0.6033,-0.6335,-0.5924,-0.6428,0.0,0.0,0.0,0.0,0.0,0.0,0.0,0.0,0.0,0.0,0.0,0.0,0.0,0.0,0.0,0.0,0.0,0.0,0.0,0.0,0.0,0.0,0.0,0.0,0.0,0.0,0.0,0.0,0.0,0.0,0.0,0.0,0.0,0.0,0.0,0.0,0.0,0.0,0.0,0.0,0.0,0.0,0.0,0.0,0.0,0.0,0.0,0.0,0.0,0.0,0.0,0.0,0.0,0.4059,0.4026,0.4097,0.4124,0.419,0.4212,0.3895,0.3827,0.3929,0.329,0.0,0.0,0.0,0.0,0.0,0.0,0.0,0.0,0.0,0.0,0.0,0.0,0.0,0.0,0.0,0.0,0.0,0.0,0.0,0.0,0.0,0.0,0.0,0.0,0.0,0.0,0.0,0.0,0.0,0.0,0.0,0.0,0.0,0.0,0.0,0.0,0.0,0.0,-0.38,-0.4247,-0.4733,-0.5119,-0.5246,-0.5312,-0.5312,-0.6033,-0.636,-0.6038,-0.668,-0.6772,0.0,0.0,0.0,0.0,0.0,0.0,0.0,0.0,0.0,0.0,0.0,0.0,0.0,0.0,0.0,0.0,0.0,0.0,0.0,0.0,0.0,0.0,0.0,0.0,0.0,0.0,0.0,0.0,0.0,0.0,0.0,0.0,0.5214,0.5504,0.0,0.0,0.0,0.0,0.0,0.0,0.0,0.0,0.0,0.0,0.0,0.0,0.0,0.6706,0.6924,0.6091,0.5626,0.5556,0.4984,0.4641,0.4464,0.4541,0.4541,0.4429,0.4426,0.0,0.3804,0.3583,0.0,0.0,0.0,0.0,0.0,0.0,0.0,0.0,0.0,0.0,0.0,0.0,0.0,0.0,0.0,0.0,0.0,0.0,0.0,0.0,0.0,0.0,0.0,0.0,0.0,0.0,0.0,0.0,-0.0033,-0.0213,-0.1079,0.0,0.0,0.0,0.0,0.0,0.0,0.0,-0.3109,-0.3892,-0.4496,-0.4669,-0.5052,-0.5312,-0.5312,-0.6033,-0.6467,-0.6418,-0.6859,-0.7051,-0.6934,-0.621,0.0,0.0,0.0,0.0,0.0,0.0,0.0,0.0,0.0,0.0,0.0,0.0,0.0,0.0,0.0,0.0,0.0,0.0,0.0,0.0,0.0,0.0,0.0,0.0,0.0,0.0,0.0,0.0,0.0,0.5353,0.5917,0.6169,0.6096,0.5885,0.0,0.0,0.0,0.0,0.0,0.0,0.0,0.0,0.0,0.7064,0.7138,0.7273,0.7379,0.653,0.6348,0.6728,0.5507,0.5083,0.5459,0.4926,0.4653,0.4585,0.4555,0.4304,0.4031,0.3795,0.3583,0.338,0.0,0.0,0.0,0.0,0.3118,0.313,0.3256,0.3286,0.0,0.3122,0.0,0.0,0.0,0.0,0.0,0.0,0.0,0.0,0.0,0.0,0.0,0.0,0.0,0.0,0.0,0.0,0.0,0.0,-0.0421,-0.1105,-0.2121,0.0,0.0,0.0,0.0,-0.2868,-0.2689,-0.3393,-0.4083,-0.4535,-0.502,-0.5312,-0.5312,-0.6033,-0.6484,-0.6484,-0.7099,-0.7349,-0.7114,-0.6729,-0.6318,0.0,0.0,0.0,0.0,0.0,0.0,0.0,0.0,0.0,0.0,0.0,0.0,0.0,0.0,0.0,0.0,0.0,0.0,0.0,0.0,0.0,0.0,0.0,0.0,0.0,0.0,0.0,0.0,0.6045,0.6516,0.6887,0.6864,0.664,0.0,0.0,0.0,0.0,0.0,0.0,0.761,0.741,0.7411,0.7727,0.7932,0.8005,0.8005,0.7355,0.7347,0.7962,0.6439,0.5863,0.6228,0.5458,0.4958,0.4682,0.4585,0.4402,0.4282,0.4017,0.3885,0.3816,0.3481,0.3349,0.3328,0.3479,0.3534,0.3546,0.3666,0.3693,0.3643,0.3337,0.2975,0.2634,0.2406,0.0,0.0,0.0,0.0,0.09,0.017,0.0,0.0,0.0,0.0,0.0,0.0,0.0,0.0,0.0,0.0,-0.0635,-0.2586,0.0,0.0,0.0,0.0,-0.2952,-0.2833,-0.3295,-0.3876,-0.4532,-0.502,-0.5312,-0.5312,-0.5944,-0.6393,-0.6484,-0.7166,-0.7463,-0.7248,-0.7158,-0.692,-0.6522,0.0,0.0,0.0,0.0,0.0,0.0,0.0,0.0,0.0,0.0,0.0,0.0,0.0,0.0,0.0,0.0,0.0,0.0,0.0,0.0,0.0,0.0,0.0,0.0,0.0,0.0,0.0,0.0,0.0,0.7746,0.7602,0.0,0.0,0.0,0.0,0.7749,0.8116,0.8496,0.9087,0.9382,0.9552,0.9578,0.9798,0.9946,0.9946,0.9418,0.9169,0.9169,0.8256,0.7307,0.6366,0.6176,0.5585,0.4682,0.4585,0.4513,0.4494,0.4287,0.4088,0.4005,0.3983,0.3973,0.3994,0.4095,0.415,0.4132,0.4046,0.3997,0.3949,0.3654,0.3156,0.2715,0.2661,0.2282,0.0,0.0,0.0905,0.0756,0.0179,0.0,0.0,0.0,0.0,0.0,0.0,0.0,0.0,0.0,0.0,-0.0754,-0.315,0.0,-0.2703,-0.2671,-0.2701,-0.3007,-0.3806,-0.3961,-0.4118,-0.4567,-0.502,-0.5312,-0.5312,-0.5675,-0.6095,-0.6484,-0.6905,-0.73,-0.7666,-0.7314,-0.7172,-0.7328,-0.6725,0.0,0.0,0.0,0.0,0.0,0.0,0.0,0.0,0.0,0.0,0.0,0.0,0.0,0.0,0.0,0.0,0.0,0.0,0.0,0.0,0.0,0.0,0.0,0.0,0.0,0.0,0.0,0.0,0.8447,0.8564,0.0,0.8347,0.84,0.8486,0.8705,0.9048,0.9389,0.9783,0.9907,1.005,1.0241,1.0347,1.0401,1.0401,0.9673,0.9594,1.011,0.8675,0.8115,0.8225,0.7484,0.6599,0.5644,0.5522,0.5104,0.4513,0.4407,0.4299,0.4105,0.4058,0.4019,0.4027,0.4031,0.405,0.4043,0.4039,0.3955,0.3841,0.3644,0.3455,0.3298,0.3384,0.2997,0.2361,0.1774,0.1334,0.088,0.0181,0.0,0.0,0.0,0.0,0.0,0.0,0.0,0.0,0.0,0.0,-0.0278,-0.1149,-0.2085,-0.2701,-0.2688,-0.2702,-0.2811,-0.3116,-0.4144,-0.4752,-0.4497,-0.4982,-0.5312,-0.5312,-0.5675,-0.6064,-0.6484,-0.6875,-0.7164,-0.7306,-0.7413,-0.7126,-0.6386,-0.6744,-0.6516,0.0,0.0,0.0,0.0,0.0,0.0,0.0,0.0,0.0,0.0,0.0,0.0,0.0,0.0,0.0,0.0,0.0,0.0,0.0,0.0,0.0,0.0,0.0,0.0,0.0,0.0,0.8627,0.8918,0.9212,0.9275,0.8981,0.9218,0.9432,0.9472,0.9716,0.996,1.0251,1.0264,1.0357,1.0614,1.0624,1.0624,1.0624,1.0047,1.0047,1.0558,0.9454,0.9002,0.9262,0.8484,0.7481,0.6248,0.6114,0.5471,0.454,0.454,0.4453,0.4311,0.4209,0.4168,0.4168,0.4168,0.4168,0.4161,0.4112,0.3963,0.3775,0.3682,0.3619,0.3598,0.3692,0.3441,0.3023,0.2418,0.1815,0.1158,0.0497,0.0135,0.0,0.0,0.0,0.0,0.0,0.0,0.0,0.0,0.0,-0.008,-0.0404,-0.1679,-0.2712,-0.2694,-0.2713,-0.2691,-0.2685,-0.4229,-0.5148,-0.4745,-0.4938,-0.5139,-0.5274,-0.5425,-0.5797,-0.6449,-0.6751,-0.6951,-0.7092,-0.7368,-0.7063,-0.6151,-0.6759,-0.6873,-0.6398,0.0,0.0,0.0,0.0,0.0,0.0,0.0,0.0,0.0,0.0,0.0,0.0,0.0,0.0,0.0,0.0,0.0,0.0,0.0,0.0,0.0,0.0,0.0,0.8397,0.8654,0.8951,0.9176,0.9532,0.9599,0.9253,0.9542,0.983,1.011,1.013,1.0257,1.0608,1.0624,1.0624,1.0624,1.0624,1.0624,1.0624,1.0624,1.0624,1.0624,1.0624,1.0174,0.9329,0.9128,0.8132,0.65,0.6374,0.5715,0.4755,0.4755,0.4664,0.4525,0.4519,0.4517,0.4517,0.4517,0.4517,0.4496,0.4246,0.4053,0.3805,0.38,0.3702,0.3587,0.3587,0.3583,0.3444,0.2853,0.2274,0.1652,0.1073,0.0448,0.0,0.0,0.0,0.0,0.0,0.0,0.0,0.0,0.0,-0.0271,-0.1101,-0.2058,-0.2674,-0.27,-0.2706,0.0,-0.2706,-0.4179,-0.5226,-0.5296,-0.4962,-0.4877,-0.5222,-0.4993,-0.5293,-0.6386,-0.6467,-0.6646,-0.706,-0.71,-0.7029,-0.6857,-0.689,-0.7095,-0.7469,0.0,0.0,0.0,0.0,0.0,0.0,0.0,0.0,0.0,0.0,0.0,0.0,0.0,0.0,0.0,0.0,0.0,0.0,0.0,0.0,0.0,0.0,0.9822,0.8826,0.9305,0.9786,0.9863,1.0137,1.0349,1.0204,1.0271,1.0351,1.0431,1.0438,1.0474,1.0621,1.0624,1.0624,1.0624,1.0624,1.0624,1.0624,1.0624,1.0624,1.0624,1.0624,1.0495,1.0234,1.0216,0.9491,0.8309,0.824,0.7287,0.5793,0.5793,0.534,0.4618,0.4561,0.4517,0.4517,0.4517,0.4517,0.4496,0.4246,0.4142,0.4053,0.3994,0.3856,0.3732,0.3732,0.3381,0.2898,0.2763,0.1962,0.1118,0.094,0.0448,0.0,0.0,0.0,0.0,0.0,0.0,0.0,0.0,0.0,-0.0081,-0.0309,-0.1283,-0.2196,-0.2645,-0.306,0.0,-0.274,-0.3105,-0.3898,-0.5156,-0.5213,-0.4947,-0.4477,-0.489,-0.5322,-0.5688,-0.5928,-0.6256,-0.6657,-0.6951,-0.7469,-0.8223,-0.7555,-0.7736,0.0,0.0,0.0,0.0,0.0,0.0,0.0,0.0,0.0,0.0,0.0,0.0,0.0,0.0,0.0,0.0,0.0,0.0,0.0,0.0,0.0,0.0,1.0771,1.0853,0.9945,1.0298,1.0511,1.0346,1.0458,1.0624,1.0624,1.0624,1.0624,1.0624,1.0624,1.0624,1.0624,1.0624,1.0624,1.0624,1.0624,1.0624,1.0624,1.0624,1.0624,1.0624,1.0624,1.0624,1.0624,1.0624,1.0081,0.9101,0.9101,0.8264,0.6817,0.6373,0.5817,0.0,0.0,0.0,0.0,0.0,0.4517,0.4505,0.4367,0.4246,0.4182,0.4093,0.4011,0.3887,0.3887,0.3543,0.3155,0.3155,0.244,0.1607,0.1341,0.0851,0.0314,0.0045,0.0,0.0,0.0,0.0,0.0,0.0,0.0,0.0,0.0,-0.0587,-0.1424,-0.254,-0.3009,-0.3086,-0.2751,-0.2714,-0.337,-0.5129,-0.5724,-0.573,-0.5033,-0.4704,0.0,0.0,0.0,-0.6215,-0.6743,-0.7024,0.0,0.0,0.0,0.0,0.0,0.0,0.0,0.0,-0.9364,-0.9684,0.0,0.0,0.0,0.0,0.0,0.0,0.0,0.0,0.0,0.0,0.0,0.0,0.0,0.0,0.0,0.0,1.1518,1.152,1.1502,1.1387,1.1145,1.0651,1.0624,1.0624,1.0624,1.0624,1.0624,1.0624,1.0624,1.0624,1.0624,0.0,0.0,0.0,0.0,1.0638,1.0672,1.0675,1.0675,1.0675,1.0675,1.0655,1.0624,1.0624,1.0174,0.9463,0.9463,0.8874,0.7827,0.684,0.6219,0.5793,0.5018,0.4582,0.4517,0.4517,0.4517,0.4517,0.4517,0.0,0.0,0.422,0.4118,0.4046,0.4046,0.3939,0.3817,0.3817,0.3301,0.2619,0.1979,0.1395,0.0766,0.0135,0.0,0.0,0.0,0.0,0.0,0.0,0.0,0.0,0.0,-0.0038,-0.0617,-0.2268,-0.2603,-0.2708,-0.2685,-0.27,-0.3379,-0.5104,0.0,0.0,-0.6136,-0.463,-0.4329,-0.5797,-0.6088,-0.648,-0.7122,-0.7315,-0.7695,-0.8324,-0.8845,-0.9385,-0.9899,-1.0318,-1.055,-1.0583,-0.9954,-1.0125,0.0,0.0,0.0,0.0,0.0,0.0,0.0,0.0,0.0,0.0,0.0,0.0,0.0,0.0,0.0,1.2798,1.3041,1.3031,1.274,1.2104,1.1458,1.0674,1.0624,1.0624,1.0624,1.0624,1.0624,1.0624,1.0624,1.0624,1.0624,1.0624,1.0624,1.0624,1.0624,1.0671,1.0905,1.0909,1.0909,1.0909,0.0,0.0,1.0624,1.0624,1.0495,1.0368,1.0368,0.9818,0.8928,0.8045,0.6668,0.5086,0.4714,0.4544,0.4517,0.4517,0.4517,0.4517,0.4517,0.45,0.4421,0.4421,0.4321,0.4152,0.4152,0.4046,0.0,0.3975,0.351,0.2879,0.2129,0.1503,0.0887,0.0181,0.0,0.0,0.0,0.0,0.0,0.0,0.0,0.0,0.0,-0.031,-0.0717,-0.1163,-0.2062,-0.2705,-0.2688,-0.2711,-0.3371,-0.5099,-0.5485,-0.5587,-0.5476,-0.5164,-0.4869,-0.4659,-0.5963,-0.6966,-0.7478,-0.7887,-0.8426,-0.9142,-0.9185,-0.9415,-0.9899,-1.0,-1.0226,-1.061,-1.1114,-1.1439,0.0,0.0,0.0,0.0,0.0,0.0,0.0,0.0,0.0,0.0,0.0,1.1175,1.2002,0.0,1.3612,1.3965,1.3953,1.3812,1.3644,1.294,1.1962,1.0744,1.0624,1.0624,1.0624,1.0624,1.0624,1.0624,1.0624,1.0624,1.0624,1.0624,1.0624,1.0624,1.0624,1.0701,1.0989,1.0992,1.1066,1.1209,1.1062,1.0919,1.0775,1.0688,1.0624,1.0624,1.0624,1.0368,0.9828,0.8354,0.6829,0.5357,0.4773,0.4517,0.4517,0.4517,0.4517,0.4517,0.4517,0.4517,0.4517,0.4517,0.4414,0.4355,0.4355,0.4253,0.4083,0.4083,0.3824,0.3386,0.2636,0.1994,0.1365,0.0634,0.0225,0.0,0.0,0.0,0.0,0.0,0.0,0.0,0.0,-0.0203,-0.0459,-0.0847,-0.1672,-0.2352,-0.2648,-0.2694,-0.3045,-0.3904,-0.4781,-0.5313,-0.5292,-0.5287,-0.5491,-0.5984,-0.681,-0.741,-0.7648,-0.8238,-0.8668,-0.8935,-0.9354,-0.9661,-0.9899,-0.9912,-1.0013,-1.0264,-1.1315,-1.18,0.0,0.0,0.0,0.0,0.0,0.0,0.0,0.0,1.1072,1.193,1.2349,1.2788,1.3613,1.4321,1.4814,1.4893,1.4536,1.4209,1.4209,1.3489,1.2455,1.0989,1.08,1.08,1.08,1.0681,1.0624,1.0624,1.0624,1.0624,1.0624,1.0624,1.0624,1.0624,1.0624,1.0701,1.0989,1.0992,1.1112,1.1339,1.1106,1.0962,1.0899,1.0668,1.0624,1.0624,1.0624,1.0458,1.0108,0.844,0.7049,0.5859,0.5014,0.4625,0.4517,0.4517,0.4517,0.4517,0.4517,0.4517,0.4517,0.4517,0.4517,0.4517,0.4517,0.4382,0.4236,0.4236,0.42,0.3911,0.3155,0.2591,0.1993,0.1087,0.0538,0.0135,0.0045,0.0,0.0,0.0,0.0,0.0,0.0,0.0,-0.0245,-0.0934,-0.1409,-0.1942,-0.2656,-0.2716,-0.2685,-0.2713,-0.3943,-0.4927,-0.5267,-0.5304,-0.5978,-0.7591,-0.7713,-0.7691,-0.769,-0.8273,-0.8645,-0.8766,-0.9504,-0.9899,-0.9899,-0.9912,-0.9889,-0.9921,-1.1204,-1.1806,1.0661,1.0386,1.022,1.0542,1.0698,1.1157,0.0,0.0,1.2832,1.3672,1.3834,1.4014,1.4551,1.4722,1.4907,1.5278,1.4718,1.4209,1.4209,1.3489,1.27,1.1772,1.1652,1.1652,1.1652,1.1048,1.0624,1.0624,1.0624,1.0624,1.0624,1.0624,1.0624,1.0624,1.0624,1.0701,1.0989,1.0992,1.1012,1.1039,1.1005,1.0858,1.0672,1.0638,1.0624,1.0624,1.0624,1.0019,0.9003,0.8604,0.7401,0.581,0.5505,0.5001,0.4517,0.4517,0.4517,0.4517,0.4517,0.4517,0.4517,0.4517,0.4517,0.4517,0.4517,0.4506,0.444,0.444,0.4481,0.4239,0.3306,0.3046,0.2648,0.123,0.0851,0.0672,0.0135,0.0,0.0,0.0,0.0,0.0,0.0,0.0,-0.0331,-0.137,-0.1414,-0.1727,-0.2738,-0.2764,-0.2702,-0.2714,-0.2869,-0.3616,-0.5182,-0.5287,-0.599,-0.7588,-0.7695,-0.771,-0.7692,-0.7779,-0.8426,-0.9706,-0.9852,-0.9899,-0.9899,-0.9912,-0.9911,-0.9945,-1.122,-1.1806,1.1984,1.1743,0.0,0.0,1.187,1.2246,1.2974,1.3193,1.3486,1.4341,1.4512,1.4644,1.5068,1.5151,1.5205,0.0,1.5113,1.4869,1.4869,1.4633,1.4182,1.3588,1.2924,1.2147,1.1167,1.0804,1.0624,1.0624,1.0624,1.0624,1.0624,1.0624,1.0624,1.0624,1.0624,1.0701,1.0989,1.0992,1.1079,1.1243,1.1072,1.0929,1.0805,1.0698,1.0624,1.0624,1.0624,1.0194,0.9525,0.8833,0.8045,0.7061,0.5945,0.5326,0.5056,0.4625,0.4517,0.4517,0.4517,0.4517,0.4517,0.4517,0.4517,0.4517,0.4517,0.4517,0.4517,0.4517,0.4517,0.4339,0.3789,0.3367,0.281,0.1685,0.1162,0.0717,0.0135,0.0,0.0,0.0,0.0,0.0,0.0,0.0,-0.0261,-0.1064,-0.1356,-0.1707,-0.239,-0.2715,-0.3038,-0.3411,-0.3896,-0.4496,-0.5227,-0.529,-0.5987,-0.7593,-0.7693,-0.771,-0.7685,-0.7705,-0.7991,-0.8617,-0.9474,-0.9899,-0.9899,-0.9905,-0.9912,-0.9964,-1.2798,-1.4124,1.25,0.0,0.0,1.2214,1.2554,1.2944,1.3174,1.3462,1.3921,1.478,1.4956,1.5049,1.5356,1.541,1.541,1.541,1.541,1.541,1.541,1.5308,1.5113,1.4682,1.3771,1.2651,1.141,1.0867,1.0624,1.0624,1.0624,1.0624,1.0624,1.0624,1.0624,1.0624,1.0624,1.0661,1.0872,1.0875,1.0979,1.1186,1.0975,1.0875,1.0865,1.0722,1.0624,1.0624,1.0624,1.0347,0.992,0.9228,0.8591,0.7926,0.642,0.5706,0.5433,0.4948,0.4679,0.4517,0.4734,0.4679,0.4517,0.4517,0.4517,0.4517,0.4517,0.4517,0.4517,0.4517,0.4517,0.4448,0.4097,0.3669,0.3106,0.2047,0.1474,0.094,0.018,0.0,0.0,0.0,0.0,0.0,0.0,0.0,-0.0135,-0.0582,-0.1104,-0.162,-0.2194,-0.2714,-0.3299,-0.4041,-0.4788,-0.523,-0.5282,-0.5303,-0.58,-0.6948,-0.7467,-0.77,-0.77,-0.7709,-0.7885,-0.83,-0.9369,-0.989,-0.9906,-0.9906,-1.0205,-1.0892,-1.4246,-1.5792,0.0,0.0,1.2759,1.2287,1.2554,1.3091,1.3911,1.4053,1.4306,1.5215,1.5395,1.5395,1.541,1.541,1.541,1.541,1.541,1.541,1.541,1.5059,1.4663,1.4269,1.3812,1.3388,0.0,1.1542,1.0624,1.0624,1.0624,1.0624,1.0624,1.0624,1.0624,1.0624,1.0624,1.0628,1.0638,1.0638,1.0641,1.0648,1.0641,1.0638,1.0638,1.0628,1.0624,1.0624,1.0624,1.0231,0.9696,0.9686,0.8883,0.7625,0.6861,0.6147,0.5485,0.5487,0.5056,0.457,0.5218,0.5058,0.4517,0.4517,0.4517,0.4517,0.4517,0.4517,0.4517,0.4517,0.4517,0.4448,0.4097,0.3969,0.3598,0.2138,0.1785,0.1429,0.0269,0.0,0.0,0.0,0.0,0.0,0.0,0.0,0.0,-0.0045,-0.0537,-0.1317,-0.2355,-0.2851,-0.3419,-0.4309,-0.4746,-0.5081,-0.5273,-0.5292,-0.5335,-0.5376,-0.6822,-0.77,-0.77,-0.7698,-0.8361,-0.9809,-0.9866,-0.9907,-0.9895,-0.9898,-1.1002,-1.3147,-1.4957,-1.5794,0.0,0.0,1.2847,1.2695,1.2978,1.3369,1.3657,1.416,1.4565,1.4565,1.4795,1.4907,1.4614,1.48,1.4995,1.4995,1.5229,1.541,1.541,1.5288,1.5032,1.4659,1.4229,0.0,0.0,0.0,0.0,1.141,1.141,1.1167,1.0624,1.0624,1.0624,1.0624,1.0624,1.0624,1.0624,1.0624,1.0624,1.0624,1.0624,1.0624,1.0624,1.0624,1.0624,1.0624,1.0624,1.0337,0.9953,0.9763,0.9279,0.8626,0.768,0.6856,0.631,0.6797,0.6197,0.5218,0.5433,0.5378,0.5111,0.4625,0.4517,0.4517,0.4517,0.4517,0.4517,0.4517,0.4517,0.4418,0.4222,0.4045,0.377,0.2777,0.2456,0.2052,0.085,0.0582,0.0493,0.009,0.0,0.0,0.0,0.0,-0.0135,-0.0538,-0.1118,-0.1776,-0.2536,-0.3107,-0.3632,-0.4157,-0.4796,-0.5211,-0.5288,-0.5986,-0.6116,-0.5364,-0.6813,-0.7717,-0.7701,-0.7684,-0.793,-0.8415,-0.9409,-1.0624,-1.2079,-1.2082,-1.2467,-1.3246,-1.498,-1.5798,1.2803,1.2881,1.2881,1.2881,1.3086,1.3325,1.3472,1.3931,1.4248,1.3965,1.4253,1.4419,1.3989,1.4263,1.46,1.4761,1.5015,1.5239,1.5391,1.5283,1.5142,1.5024,1.4644,1.4373,0.0,0.0,0.0,1.1888,1.183,1.1472,1.0621,1.0863,1.0926,1.0624,1.0863,1.0863,1.0624,1.0624,1.0624,1.0624,1.0624,1.0624,1.0624,1.0624,1.0624,1.0624,1.0624,1.0334,0.9947,0.976,0.9449,0.8956,0.806,0.7399,0.7074,0.7506,0.7122,0.6249,0.5977,0.5706,0.5378,0.4732,0.4517,0.4517,0.4517,0.4517,0.4517,0.4517,0.4517,0.4428,0.4232,0.4123,0.3896,0.3074,0.2649,0.218,0.1121,0.0717,0.0448,0.009,0.0,0.0,0.0,0.0,-0.0135,-0.0538,-0.1296,-0.2007,-0.2539,-0.317,-0.3665,-0.3885,-0.4369,-0.503,-0.5839,-0.6583,-0.6686,-0.5969,-0.7609,-0.8622,-0.8643,-0.8632,-0.8641,-0.8631,-1.0238,-1.1767,-1.32,-1.3188,-1.3201,-1.3241,-1.436,-1.5195,1.2876,1.2881,1.2881,1.2881,1.29,1.3013,1.3389,1.3491,1.3501,1.3477,1.3794,1.3888,0.0,0.0,1.4263,1.4653,1.4775,1.4961,1.5386,1.5083,1.4971,0.0,0.0,0.0,0.0,0.0,0.0,1.2074,0.0,1.1531,1.0744,1.141,1.1472,1.0744,1.141,1.1406,1.0684,1.0621,1.0624,1.0624,1.0624,1.0624,1.0624,1.0624,1.0624,1.0624,1.0608,1.0231,0.9723,0.9679,0.9339,0.8791,0.8058,0.7723,0.7723,0.7723,0.7723,0.7616,0.6912,0.6199,0.5433,0.4734,0.4517,0.4517,0.4517,0.4517,0.4517,0.4517,0.4517,0.4429,0.4241,0.42,0.3965,0.3148,0.2471,0.1832,0.1084,0.0493,0.0045,0.0,0.0,0.0,0.0,0.0,0.0,0.0,-0.0984,-0.1873,-0.2269,-0.3078,-0.361,-0.362,-0.3595,-0.4515,-0.6802,-0.7001,-0.6986,-0.6994,-0.8976,-1.0164,-1.0314,-1.0302,-1.0282,-1.0288,-1.2123,-1.3107,-1.3215,-1.3191,-1.3187,-1.3212,-1.3199,-1.4073,1.2793,1.2881,1.2881,1.2881,1.3115,1.3291,1.3086,1.3281,1.3418,1.3101,1.3125,1.3071,0.0,0.0,0.0,1.3867,1.4629,0.0,1.584,1.5522,0.0,1.5845,0.0,1.5293,1.54,1.541,0.0,0.0,1.3057,1.2577,1.2397,1.202,1.1958,1.2401,1.202,1.171,1.1531,1.0926,1.0624,1.0624,1.0624,1.0624,1.0624,1.0624,1.0624,1.0614,1.0327,1.0271,1.0349,0.9626,0.9396,0.9416,0.8756,0.8209,0.7777,0.8318,0.8156,0.767,0.7506,0.691,0.6095,0.4899,0.4517,0.4517,0.4517,0.4517,0.4517,0.4517,0.4517,0.4508,0.4418,0.4328,0.4095,0.3807,0.3196,0.2487,0.1712,0.1118,0.0538,0.009,0.0,0.0,0.0,0.0,0.0,0.0,-0.0269,-0.0714,-0.1425,-0.2722,-0.361,-0.362,-0.3595,-0.4515,-0.6802,-0.7001,-0.7021,-0.6997,-0.7547,-0.8588,-1.0244,-1.0301,-1.0291,-1.0282,-1.0781,-1.1735,-1.3212,-1.3207,-1.3207,-1.3206,-1.3203,-1.3428,1.3315,1.3433,1.3433,1.3433,1.3467,1.3447,1.3208,1.3193,1.3057,1.2432,1.2456,0.0,0.0,0.0,0.0,0.0,0.0,0.0,1.5952,1.585,1.5786,0.0,1.5845,0.0,1.543,1.541,1.523,0.0,1.397,1.3368,1.3009,1.2935,1.287,1.3009,1.287,1.25,1.1834,1.0986,1.0624,1.0624,1.0624,1.0624,1.0624,1.0624,1.0624,1.0608,0.0,1.0214,1.0307,0.9552,0.9283,0.9442,0.8985,0.8537,0.8209,0.8643,0.8537,0.8156,0.783,0.7235,0.6423,0.5277,0.4734,0.4517,0.4517,0.4517,0.4517,0.4517,0.4517,0.4517,0.4517,0.4404,0.4289,0.4072,0.346,0.2827,0.2304,0.1518,0.0717,0.0135,0.0,0.0,0.0,0.0,0.0,0.0,-0.0224,-0.0581,-0.1114,-0.2588,-0.361,-0.362,-0.4498,-0.5615,-0.6894,-0.7018,-0.7004,-0.7012,-0.6982,-0.7554,-0.8819,-0.9764,-1.0288,-1.0281,-1.0283,-1.1258,-1.3198,-1.321,-1.3197,-1.3198,-1.3198,-1.3207,1.3966,1.4082,1.4068,1.4009,1.3774,1.3491,1.3437,1.3052,1.2505,1.1836,0.0,1.1777,1.105,1.168,1.2559,1.3306,0.0,1.4648,1.5949,1.6076,1.6056,1.6115,1.6071,1.5825,1.5449,1.541,1.541,1.541,1.4746,1.4025,1.3368,1.391,1.391,1.3187,1.385,1.3416,1.183,1.1108,1.0744,1.0744,1.0621,1.0684,1.0744,1.0624,1.0601,1.0551,1.0187,0.0,1.0013,0.9422,0.915,0.9157,0.8918,0.8808,0.8808,0.8808,0.8808,0.8699,0.8049,0.7343,0.6586,0.576,0.5058,0.4517,0.4517,0.4517,0.4517,0.4517,0.4517,0.4517,0.4517,0.4517,0.4394,0.4116,0.3543,0.3028,0.2673,0.1627,0.0632,0.009,0.0,0.0,0.0,0.0,0.0,0.0,-0.0448,-0.0895,-0.1248,-0.2632,-0.361,-0.362,-0.5652,-0.6996,-0.6993,-0.7018,-0.6979,-0.6979,-0.7012,-0.6983,-0.7021,-0.9123,-1.0306,-1.0308,-1.0299,-1.1132,-1.2828,-1.3083,-1.3204,-1.3191,-1.3209,-1.3361,1.3966,1.4082,1.3995,1.3701,1.356,1.3418,1.3071,1.2368,0.0,0.0,0.0,1.1094,1.0937,1.1929,0.0,1.2964,0.0,0.0,0.0,0.0,1.5659,0.0,0.0,0.0,0.0,0.0,0.0,0.0,0.0,1.5108,1.4986,1.451,1.4149,1.403,1.4149,1.3416,1.183,1.1648,1.1586,1.1589,1.0926,1.0926,1.1593,1.0926,1.0428,1.0177,0.9886,0.0,0.9713,0.9125,0.9025,0.9157,0.8918,0.8808,0.8808,0.8808,0.8808,0.8804,0.8646,0.8103,0.7286,0.5921,0.5058,0.4517,0.4517,0.4517,0.4517,0.4517,0.4517,0.4517,0.4517,0.4517,0.4419,0.4195,0.3729,0.306,0.2288,0.1108,0.014,0.0,0.0,0.0,0.0,0.0,0.0,0.0,-0.009,-0.0538,-0.1562,-0.2814,-0.361,-0.362,-0.5652,-0.6996,-0.6993,-0.7018,-0.6979,-0.6979,-0.7011,-0.7016,-0.699,-0.911,-1.0302,-1.0311,-1.0301,-1.0458,-1.0809,-1.2407,-1.3202,-1.3216,-1.3192,-1.4163,1.4355,1.4634,1.4697,1.4277,1.3838,1.3398,1.2978,0.0,0.0,0.0,0.0,1.084,1.0625,0.0,0.0,0.0,0.0,0.0,0.0,0.0,0.0,0.0,0.0,0.0,0.0,0.0,0.0,0.0,0.0,1.541,1.541,1.505,1.481,1.481,1.4451,1.3841,1.3049,1.263,1.2451,1.2385,1.1593,1.1323,1.1514,1.0916,1.0314,0.9883,0.9746,0.0,0.9639,0.9048,0.8978,0.9157,0.8918,0.8808,0.8808,0.8808,0.8808,0.8808,0.8808,0.8318,0.7503,0.6416,0.5601,0.4948,0.4625,0.4517,0.4517,0.4517,0.4517,0.4517,0.4517,0.4517,0.4426,0.4229,0.3607,0.2889,0.2156,0.1186,0.0368,0.0045,0.0,0.0,0.0,0.0,0.0,0.0,0.0,-0.0359,-0.1339,-0.2006,-0.2668,-0.3531,-0.4589,-0.5709,-0.6897,-0.7018,-0.6979,-0.6979,-0.6979,-0.6994,-0.701,-0.8004,-0.9114,-1.0296,-1.0312,-1.0303,-1.0303,-1.2235,-1.3207,-1.3232,-1.4373,-1.5478,1.4668,1.5093,1.5288,1.4775,1.4141,1.3481,1.2876,1.217,0.0,0.0,1.0835,1.0674,1.0347,0.0,0.0,0.0,0.0,0.0,0.0,0.0,0.0,0.0,0.0,0.0,0.0,0.0,0.0,0.0,0.0,0.0,1.541,1.541,1.541,1.541,1.481,1.4387,1.4209,1.3472,1.3134,1.3134,1.22,1.1657,1.1405,1.0855,1.0261,0.9589,0.9589,0.0,0.0,0.8998,0.8941,0.907,0.8898,0.8808,0.8808,0.8808,0.8808,0.8808,0.8808,0.8424,0.783,0.7074,0.6253,0.538,0.4679,0.4517,0.4517,0.4517,0.4517,0.4517,0.4517,0.4517,0.4434,0.4321,0.3493,0.2596,0.2123,0.1324,0.0556,0.0091,0.0,0.0,0.0,0.0,0.0,0.0,0.0,-0.0269,-0.1027,-0.1337,-0.2001,-0.3451,-0.3601,-0.4517,-0.6812,-0.6979,-0.6979,-0.6979,-0.6979,-0.7001,-0.6989,-0.7003,-0.8035,-1.0269,-1.0316,-1.0291,-1.0307,-1.1828,-1.3037,-1.3945,-1.568,-1.6488,1.4668,1.5093,1.5215,1.4394,1.4082,1.3708,1.2563,0.0,0.0,0.0,1.0605,1.0327,1.0327,0.0,0.0,0.0,0.0,0.0,0.0,0.0,0.0,0.0,0.0,0.0,0.0,0.0,0.0,0.0,0.0,0.0,1.541,1.541,1.541,1.541,1.5352,1.4932,1.4213,1.3741,1.3571,1.3504,1.2276,1.1752,1.1832,1.1035,1.0133,0.9226,0.9226,0.0,0.0,0.8828,0.8821,0.8844,0.8818,0.8808,0.8808,0.8808,0.8808,0.8808,0.8808,0.8752,0.859,0.783,0.663,0.538,0.4679,0.4517,0.4517,0.4517,0.4517,0.4517,0.4517,0.4517,0.4513,0.4501,0.3369,0.2272,0.2184,0.1077,0.0051,0.0,0.0,0.0,0.0,0.0,0.0,0.0,0.0,-0.0224,-0.085,-0.1743,-0.2636,-0.3485,-0.3614,-0.4526,-0.681,-0.6999,-0.6979,-0.6979,-0.6979,-0.7017,-0.7011,-0.7002,-0.8041,-1.0247,-1.0307,-1.0319,-1.0312,-1.0494,-1.2526,-1.6193,-1.641,-1.6511,1.4346,1.4893,1.5205,1.4296,1.3945,1.3418,1.2119,0.0,1.105,1.062,1.0395,1.0283,1.0283,1.042,0.0,0.0,0.0,0.0,0.0,0.0,0.0,0.0,0.0,0.0,0.0,0.0,0.0,0.0,0.0,0.0,1.5034,1.5273,1.5298,1.5044,1.5034,1.4733,1.4133,1.3968,1.3888,1.3888,1.2875,1.2349,1.2244,1.1201,1.0505,1.0121,0.9477,0.0,0.0,0.8959,0.8808,0.8808,0.8808,0.8808,0.8808,0.8808,0.8808,0.8808,0.8808,0.8808,0.8695,0.7937,0.7015,0.6036,0.5328,0.484,0.4517,0.4517,0.4517,0.4517,0.4517,0.4517,0.4517,0.4517,0.3677,0.279,0.2298,0.1371,0.0544,0.0096,0.0,0.0,0.0,0.0,0.0,0.0,0.0,-0.009,-0.0313,-0.0714,-0.1648,-0.3399,-0.3616,-0.4526,-0.6817,-0.6999,-0.6979,-0.6979,-0.6979,-0.7006,-0.6987,-0.7011,-0.775,-0.9359,-1.1011,-1.1875,-1.1842,-1.1845,-1.2719,-1.4376,-1.5812,-1.6504,1.3863,1.4478,1.4858,1.4131,1.3726,1.3164,0.0,0.0,1.0942,1.0395,1.0283,1.0283,1.0283,1.0283,1.0522,0.0,0.0,0.0,0.0,0.0,0.0,0.0,0.0,0.0,0.0,0.0,0.0,0.0,0.0,0.0,1.46,1.4873,1.4897,1.46,1.459,1.4448,1.4082,1.3956,1.3945,1.3897,1.3231,1.2702,1.227,1.1416,1.0929,1.0779,1.0004,0.0,0.0,0.9312,0.8959,0.8808,0.8808,0.8808,0.8808,0.8808,0.8808,0.8808,0.8808,0.8808,0.8699,0.8212,0.7399,0.6477,0.598,0.5222,0.4517,0.4517,0.4517,0.4517,0.4517,0.4517,0.4517,0.4517,0.3777,0.2895,0.2335,0.144,0.0597,0.0098,0.0,0.0,0.0,0.0,0.0,0.0,0.0,-0.0045,-0.0224,-0.0312,-0.1068,-0.2854,-0.3382,-0.4539,-0.6823,-0.6983,-0.7006,-0.7006,-0.6998,-0.6988,-0.6981,-0.7363,-0.8329,-1.0002,-1.1909,-1.2908,-1.2917,-1.2889,-1.2903,-1.2952,-1.5386,-1.651,1.3398,1.3823,1.4043,1.3623,1.3511,1.3164,0.0,1.1601,1.1356,1.0498,1.0283,1.0283,1.0283,1.0283,1.042,1.0845,0.0,0.0,0.0,0.0,0.0,0.0,0.0,0.0,0.0,0.0,0.0,0.0,0.0,0.0,1.4111,1.4092,1.4092,1.4087,1.4087,1.4082,1.4082,1.3726,1.3516,1.3506,1.3091,1.2515,1.1819,1.1774,1.1425,0.0,0.0,0.0,0.0,0.9814,0.9413,0.8808,0.8808,0.8808,0.8808,0.8808,0.8808,0.8808,0.8808,0.8808,0.8808,0.8808,0.7777,0.6588,0.6588,0.5609,0.4517,0.4517,0.4517,0.4517,0.4517,0.4517,0.4517,0.4517,0.3342,0.2209,0.2188,0.1036,0.0,0.0,0.0,0.0,0.0,0.0,0.0,0.0,0.0,-0.0225,-0.0806,-0.1071,-0.1335,-0.1777,-0.2865,-0.4535,-0.6795,-0.701,-0.7004,-0.7004,-0.7022,-0.7023,-0.6979,-0.8145,-1.0055,-1.2816,-1.289,-1.2885,-1.292,-1.292,-1.2919,-1.2981,-1.5389,-1.6522,1.2681,1.3159,1.3535,1.2764,1.2589,1.2368,1.1348,1.1113,1.0957,1.0395,1.0283,1.0283,1.0283,1.0283,1.0522,1.1278,1.1513,0.0,0.0,0.0,0.0,0.0,0.0,0.0,0.0,0.0,0.0,0.0,0.0,0.0,1.3716,1.3433,1.3413,1.3696,1.3706,1.3569,1.3281,1.3145,1.3081,1.3081,1.2944,1.2769,1.2554,1.2044,1.1945,0.0,0.0,0.0,0.0,0.9965,0.9413,0.8808,0.8808,0.8808,0.8808,0.8808,0.8808,0.8808,0.8808,0.8808,0.8808,0.8808,0.7777,0.6588,0.6588,0.5607,0.4517,0.4517,0.4517,0.4517,0.4517,0.4517,0.4517,0.4517,0.4125,0.35,0.242,0.1817,0.1191,0.0203,0.0,0.0,0.0,0.0,0.0,0.0,0.0,-0.0225,-0.0806,-0.1295,-0.1666,-0.1802,-0.2885,-0.4523,-0.6808,-0.7003,-0.7363,-0.816,-0.8254,-0.8242,-0.8227,-0.8619,-1.0079,-1.2843,-1.2895,-1.2915,-1.2881,-1.2881,-1.373,-1.5389,-1.6143,-1.6516,0.0,1.2368,1.2646,1.2114,1.1978,1.1792,1.1069,1.0908,1.0791,1.0366,1.0283,1.0283,1.0283,1.0283,1.0498,1.1033,1.1395,0.0,0.0,0.0,0.0,0.0,0.0,0.0,0.0,0.0,0.0,0.0,0.0,0.0,1.3281,1.3022,1.2998,1.3262,1.3267,1.3145,1.2881,1.2881,1.2881,1.2881,1.2881,1.2881,1.2881,1.2421,1.2471,0.0,0.0,0.0,0.0,1.0466,0.9762,0.9159,0.891,0.8808,0.8808,0.8808,0.8808,0.8808,0.8808,0.8808,0.8808,0.8808,0.7777,0.6534,0.6256,0.5386,0.4517,0.4517,0.4517,0.4517,0.4517,0.4517,0.4517,0.4517,0.4293,0.3734,0.2453,0.1977,0.1433,0.0253,0.0,0.0,0.0,0.0,0.0,0.0,-0.018,-0.0538,-0.1163,-0.1583,-0.1979,-0.2451,-0.3333,-0.4509,-0.5935,-0.7052,-0.8016,-0.8765,-0.882,-0.8802,-0.8817,-0.8813,-1.0101,-1.2854,-1.2919,-1.2881,-1.2881,-1.2899,-1.3679,-1.5171,-1.6098,-1.6486,0.0,1.1533,1.1547,1.1523,1.1513,1.1405,1.0957,1.0859,0.0,1.04,1.0312,1.0321,1.0312,1.0293,1.0264,1.04,1.1082,0.0,0.0,0.0,0.0,0.0,0.0,0.0,0.0,0.0,0.0,0.0,0.0,0.0,1.2905,1.2881,1.2881,1.2881,1.2881,1.2881,1.2881,1.2881,1.2881,1.2881,1.2881,1.2881,1.2881,1.2881,1.2881,0.0,0.0,0.0,0.0,1.1078,1.0415,0.9814,0.9106,0.8854,0.8854,0.8854,0.8857,0.8808,0.8808,0.8808,0.8808,0.8755,0.7777,0.6477,0.5706,0.5056,0.4517,0.4517,0.4517,0.4517,0.4517,0.4517,0.4517,0.4517,0.3895,0.3167,0.2396,0.1681,0.0942,0.0152,0.0,0.0,0.0,0.0,0.0,-0.0045,-0.0538,-0.1162,-0.1785,-0.18,-0.227,-0.3468,-0.4146,-0.451,-0.4483,-0.7121,-0.8823,-0.8807,-0.8778,-0.8808,-0.8808,-0.8806,-1.0089,-1.2859,-1.2919,-1.2881,-1.2881,-1.2882,-1.2881,-1.2981,-1.5355,-1.6504,1.0596,0.0,1.0981,1.0664,1.0626,1.0596,0.0,1.0728,0.0,0.0,0.0,1.0427,1.0649,1.0183,1.0107,1.1141,1.1469,0.0,0.0,0.0,0.0,0.0,0.0,0.0,0.0,0.0,0.0,0.0,0.0,1.2983,1.2886,1.2881,1.2881,1.2881,1.2881,1.2881,1.2881,1.2881,1.2881,1.2881,1.2881,1.2881,1.2881,1.2881,1.2881,0.0,0.0,0.0,1.1774,1.107,1.0716,1.0517,0.9814,0.9562,0.9562,0.9562,0.9263,0.8808,0.8808,0.8808,0.8699,0.8156,0.7345,0.6477,0.5706,0.5056,0.4517,0.4517,0.4517,0.4517,0.4517,0.4517,0.4517,0.4517,0.4213,0.3678,0.244,0.1969,0.1422,0.0252,0.0,0.0,0.0,0.0,-0.0135,-0.0627,-0.094,-0.1386,-0.2183,-0.1982,-0.2246,-0.3452,-0.4129,-0.4479,-0.4481,-0.7147,-0.8784,-0.8825,-0.8774,-0.8808,-0.8808,-0.8806,-1.0089,-1.2859,-1.2919,-1.2881,-1.2881,-1.288,-1.288,-1.294,-1.5383,-1.6481,1.0229,1.0591,1.0854,1.0625,1.0571,1.0646,1.0884,0.0,0.0,0.0,0.0,0.0,1.119,0.0,0.0,0.0,1.1771,0.0,0.0,0.0,0.0,0.0,0.0,0.0,0.0,0.0,0.0,0.0,0.0,1.2793,1.2593,1.2583,1.249,1.2332,1.2317,1.2518,1.2876,1.2881,1.2778,1.2583,1.2583,1.2471,1.2332,1.249,1.2471,0.0,0.0,0.0,1.1909,1.1261,1.1111,1.1212,1.0517,1.0064,0.9814,0.9814,0.9361,0.8808,0.8808,0.8808,0.8752,0.8321,0.7723,0.6964,0.6253,0.5494,0.4895,0.457,0.4517,0.4517,0.4517,0.4517,0.4517,0.4517,0.4404,0.3929,0.25,0.2169,0.1661,0.0252,0.0,0.0,0.0,0.0,-0.0224,-0.0806,-0.1207,-0.1697,-0.2314,-0.2531,-0.2888,-0.3551,-0.4162,-0.452,-0.4483,-0.7141,-0.8801,-0.8814,-0.8808,-0.8808,-0.8808,-0.8806,-1.0089,-1.2833,-1.2905,-1.2881,-1.2881,-1.2881,-1.2921,-1.297,-1.5389,-1.6489,1.0294,1.0785,1.1089,1.0943,1.1059,1.1252,0.0,0.0,0.0,0.0,0.0,0.0,0.0,0.0,0.0,0.0,0.0,0.0,0.0,0.0,0.0,0.0,0.0,0.0,0.0,0.0,0.0,0.0,0.0,1.2593,1.2153,1.2129,1.1953,1.1616,1.1606,1.1964,1.2671,1.2681,1.2495,1.2129,1.2129,1.1929,1.1616,1.1953,1.1919,1.1626,0.0,0.0,1.2078,1.1394,1.1388,1.1692,1.1109,1.0436,0.9845,0.9946,0.9462,0.8808,0.8808,0.8808,0.8808,0.8808,0.8381,0.7735,0.7139,0.6291,0.5446,0.48,0.4549,0.4517,0.4517,0.4517,0.4517,0.4517,0.4482,0.4014,0.2542,0.2151,0.1697,0.0301,0.0,0.0,0.0,0.0,-0.0224,-0.094,-0.1474,-0.2011,-0.2515,-0.3167,-0.3619,-0.3742,-0.4189,-0.4493,-0.449,-0.7168,-0.8784,-0.8818,-0.8808,-0.8791,-0.881,-0.9197,-1.0506,-1.2871,-1.2881,-1.2881,-1.2881,-1.29,-1.2878,-1.2926,-1.4982,-1.6137,1.0798,1.1587,1.2001,1.118,1.1651,1.2241,0.0,0.0,0.0,0.0,0.0,0.0,0.0,0.0,0.0,0.0,0.0,0.0,0.0,0.0,0.0,0.0,0.0,0.0,0.0,0.0,0.0,0.0,0.0,1.2134,1.1734,1.1704,1.1675,1.1606,1.1606,1.1665,1.1807,1.1807,1.1773,1.1704,1.1704,1.167,1.1606,1.1675,1.167,1.1606,0.0,1.1704,1.166,1.0975,1.1056,1.1604,1.129,1.0749,1.016,1.0509,0.9865,0.8808,0.8808,0.8808,0.8808,0.8808,0.8738,0.8618,0.8507,0.7331,0.5975,0.5325,0.4873,0.4517,0.4517,0.4517,0.4517,0.4517,0.4272,0.3708,0.2492,0.2019,0.1486,0.0241,0.0,0.0,0.0,0.0,-0.0359,-0.1474,-0.1741,-0.2212,-0.327,-0.3514,-0.381,-0.4308,-0.4419,-0.4493,-0.449,-0.7168,-0.8784,-0.8818,-0.8808,-0.878,-0.8799,-1.1027,-1.2451,-1.2881,-1.2881,-1.2881,-1.2881,-1.2902,-1.2911,-1.2914,-1.3271,-1.4538,1.0365,1.1326,1.2033,1.1861,1.2619,1.3417,0.0,0.0,0.0,0.0,0.0,0.0,0.0,0.0,0.0,0.0,0.0,0.0,0.0,0.0,0.0,0.0,0.0,0.0,0.0,0.0,0.0,0.0,0.0,0.0,1.1245,1.1211,1.1103,1.0915,1.091,1.091,1.091,1.091,1.1028,1.1211,1.1211,1.1094,1.0915,1.1103,1.1084,1.092,0.0,1.1211,1.1211,1.0899,1.108,1.1577,1.145,1.0825,0.9923,0.977,0.932,0.8791,0.8791,0.8791,0.8791,0.8791,0.8816,0.879,0.8818,0.8233,0.7323,0.5955,0.5172,0.4742,0.4742,0.4482,0.4222,0.4222,0.4119,0.3634,0.236,0.2174,0.1854,0.0286,0.0,0.0,0.0,0.0,-0.0452,-0.1703,-0.1674,-0.2007,-0.3395,-0.3621,-0.3819,-0.4449,-0.4489,-0.4493,-0.449,-0.7168,-0.8784,-0.8818,-0.8808,-0.879,-0.8786,-1.143,-1.2879,-1.288,-1.291,-1.2881,-1.2881,-1.2919,-1.3564,-1.4853,-1.4846,-1.5437,1.0258,1.1201,1.208,0.0,0.0,0.0,0.0,0.0,0.0,0.0,0.0,0.0,0.0,0.0,0.0,0.0,0.0,0.0,0.0,0.0,0.0,0.0,0.0,0.0,0.0,0.0,0.0,0.0,0.0,0.0,1.0806,1.0762,1.0615,1.0293,1.0283,1.0283,1.0283,1.0283,1.0439,1.0762,1.0762,1.0596,1.0293,1.0615,1.0586,1.0303,1.0625,1.0762,1.0762,1.0762,1.0962,1.1312,1.141,1.0702,0.9607,0.8879,0.8583,0.8554,0.8442,0.8387,0.8391,0.8364,0.8368,0.8375,0.8362,0.848,0.8217,0.6572,0.5768,0.5294,0.4782,0.431,0.3969,0.4019,0.3992,0.3619,0.2433,0.2313,0.2016,0.0329,0.0,0.0,0.0,-0.0181,-0.069,-0.1654,-0.1616,-0.1947,-0.3431,-0.3714,-0.3974,-0.4451,-0.4489,-0.4776,-0.5448,-0.7552,-0.8808,-0.8814,-0.8808,-0.88,-0.882,-1.082,-1.2236,-1.2914,-1.2876,-1.2881,-1.2881,-1.2922,-1.414,-1.6514,-1.6504,-1.6485,1.1379,1.1997,1.2634,1.3722,0.0,0.0,0.0,0.0,0.0,0.0,0.0,0.0,0.0,0.0,0.0,0.0,0.0,0.0,0.0,0.0,0.0,0.0,0.0,0.0,0.0,0.0,0.0,0.0,0.0,0.0,1.0391,1.0327,1.0312,1.0283,1.0283,1.0283,1.0283,1.0283,1.0298,1.0327,1.0327,1.0312,1.0283,1.0312,1.0312,1.0283,1.0317,1.0327,1.0327,1.0327,1.0347,1.0415,1.0801,1.0451,0.9579,0.8388,0.7984,0.7903,0.7326,0.712,0.7133,0.7112,0.7136,0.7136,0.7139,0.7524,0.7809,0.7106,0.69,0.6387,0.4457,0.3951,0.3918,0.3969,0.3961,0.3669,0.2817,0.2219,0.1479,0.0225,0.0,0.0,0.0,-0.0786,-0.1375,-0.128,-0.1747,-0.2487,-0.3493,-0.4072,-0.4444,-0.4503,-0.4489,-0.5578,-0.825,-0.8665,-0.8818,-0.8808,-0.8808,-0.8819,-0.8812,-0.8971,-1.0274,-1.2837,-1.2886,-1.2881,-1.2881,-1.2891,-1.413,-1.6496,-1.6523,-1.6497,1.0462,1.1479,1.2592,1.3358,0.0,0.0,0.0,0.0,0.0,0.0,0.0,0.0,0.0,0.0,0.0,0.0,0.0,0.0,0.0,0.0,0.0,0.0,0.0,0.0,0.0,0.0,0.0,0.0,0.0,0.0,1.0784,1.0467,1.0283,1.0283,1.0283,1.0283,1.0283,1.0283,1.0283,1.0283,1.0283,1.0283,1.0283,1.0283,1.0283,1.0283,1.0283,1.0283,1.0283,1.0283,1.0283,1.0293,1.0087,1.0036,0.9853,0.8004,0.8206,0.9375,0.9119,0.8141,0.7004,0.6996,0.6985,0.702,0.702,0.714,0.7287,0.7045,0.7005,0.6678,0.5155,0.4235,0.372,0.3757,0.3718,0.3643,0.3319,0.3088,0.2322,0.0402,0.121,0.1751,0.0268,-0.0318,-0.0833,-0.1702,-0.1252,-0.1632,-0.3888,-0.4021,-0.4078,-0.4451,-0.4509,-0.5645,-0.8543,-0.8775,-0.8808,-0.8808,-0.8808,-0.8793,-0.8796,-1.0438,-1.184,-1.289,-1.2915,-1.2881,-1.2881,-1.2881,-1.4155,-1.6477,-1.6504,-1.6515,1.0641,1.1663,1.2806,0.0,0.0,0.0,0.0,0.0,0.0,0.0,0.0,0.0,0.0,0.0,0.0,0.0,0.0,0.0,0.0,0.0,0.0,0.0,0.0,0.0,0.0,0.0,0.0,0.0,0.0,0.0,0.0,1.0539,1.0356,1.0505,1.0395,1.0292,1.0338,1.0149,1.0015,0.9883,0.9883,1.002,1.0283,1.0283,1.0283,1.0273,1.0137,1.0151,1.0273,1.0137,1.0161,1.0244,0.9878,0.9841,0.9785,0.8535,0.8576,0.9368,1.0079,0.9329,0.7927,0.7217,0.6987,0.6979,0.6979,0.6979,0.6979,0.6979,0.7012,0.6668,0.5153,0.4164,0.3604,0.3607,0.3602,0.361,0.3582,0.3009,0.2182,0.1294,0.2468,0.2834,0.0402,0.0,-0.0324,-0.1345,-0.1445,-0.2102,-0.3953,-0.3844,-0.3835,-0.4458,-0.4516,-0.5669,-0.854,-0.8795,-0.8823,-0.8804,-0.8797,-0.8791,-0.8806,-1.146,-1.2903,-1.2908,-1.2876,-1.2914,-1.2881,-1.2909,-1.414,-1.6477,-1.6504,-1.6514,1.2391,1.2772,0.0,0.0,0.0,0.0,0.0,0.0,0.0,0.0,0.0,0.0,0.0,0.0,0.0,0.0,0.0,0.0,0.0,0.0,0.0,0.0,0.0,0.0,0.0,0.0,0.0,0.0,0.0,0.0,0.0,1.0567,1.0495,1.0965,1.0529,1.0323,1.0413,0.9877,0.9419,0.9004,0.9004,0.9448,1.0273,1.0273,1.0273,1.0254,0.9814,0.9873,1.0249,0.9814,0.9893,1.0283,1.0283,0.9855,0.9301,1.0025,0.8911,0.7364,0.9529,1.0307,0.9926,0.773,0.6979,0.6979,0.6979,0.6979,0.6979,0.6979,0.7012,0.6471,0.4172,0.3608,0.3626,0.3626,0.358,0.358,0.3581,0.1732,0.0753,0.3124,0.3598,0.2834,0.0401,0.0,0.0,-0.005,-0.257,-0.4299,-0.3672,-0.3592,-0.3819,-0.4429,-0.452,-0.5669,-0.854,-0.8784,-0.8802,-0.8854,-0.8813,-0.8789,-0.8796,-1.14,-1.2843,-1.2908,-1.2883,-1.2919,-1.2934,-1.2909,-1.4127,-1.6517,-1.6504,-1.6505,1.1194,0.0,0.0,0.0,0.0,0.0,0.0,0.0,0.0,0.0,0.0,0.0,0.0,0.0,0.0,0.0,0.0,0.0,0.0,0.0,0.0,0.0,0.0,0.0,0.0,0.0,0.0,0.0,0.0,0.0,0.0,1.0536,1.0144,1.0035,1.0122,1.0184,1.0178,1.0034,0.9898,0.9771,0.9771,0.9618,0.9385,0.9385,0.9546,0.9768,0.9375,0.9604,1.0273,1.0142,1.0161,1.0283,1.0283,1.0157,0.9981,1.0235,0.989,0.943,1.0083,0.9266,0.7858,0.7202,0.7017,0.6979,0.6979,0.6979,0.6979,0.6979,0.6993,0.648,0.4211,0.4792,0.5582,0.4004,0.3592,0.3609,0.3622,0.3051,0.2764,0.3453,0.3592,0.2833,0.0404,0.0,-0.0566,-0.2278,-0.3636,-0.4425,-0.4257,-0.4249,-0.4307,-0.4498,-0.452,-0.5669,-0.854,-0.8798,-0.9631,-1.1571,-0.9862,-0.8786,-0.8789,-0.9595,-1.095,-1.2876,-1.2892,-1.3737,-1.5421,-1.3722,-1.4148,-1.6518,-1.6522,-1.6509,1.1576,0.0,0.0,0.0,0.0,0.0,0.0,0.0,0.0,0.0,0.0,0.0,0.0,0.0,0.0,0.0,0.0,0.0,0.0,0.0,0.0,0.0,0.0,0.0,0.0,0.0,0.0,0.0,0.0,0.0,0.0,1.0595,1.0125,1.0075,1.0085,1.012,1.0148,0.9962,0.9774,0.9575,0.9575,0.9341,0.8931,0.9137,0.9376,0.9572,0.918,0.9249,0.9643,0.9841,1.0077,1.0298,1.0312,1.0283,1.0283,1.0283,1.0283,1.0293,1.0298,0.9439,0.8181,0.7282,0.6983,0.7017,0.6994,0.7004,0.6979,0.6979,0.6983,0.6694,0.5315,0.597,0.6413,0.4153,0.3609,0.3588,0.36,0.3597,0.3581,0.3588,0.2833,0.1702,0.0269,0.0,-0.0837,-0.3247,-0.3914,-0.4228,-0.4462,-0.451,-0.4478,-0.4508,-0.452,-0.5669,-0.854,-0.8788,-0.9487,-1.1181,-1.0747,-1.0452,-1.0426,-1.0449,-1.1215,-1.2895,-1.288,-1.4066,-1.6498,-1.5023,-1.4574,-1.5089,-1.6031,-1.649,0.0,0.0,0.0,0.0,0.0,0.0,0.0,0.0,0.0,0.0,0.0,0.0,0.0,0.0,0.0,0.0,0.0,0.0,0.0,0.0,0.0,0.0,0.0,0.0,0.0,0.0,0.0,0.0,0.0,0.0,0.0,1.0626,1.0284,1.0649,1.0301,1.0116,1.0174,0.9753,0.9322,0.8899,0.8899,0.8899,0.8927,0.9296,0.9469,0.9413,0.9144,0.8855,0.8646,0.9154,0.9748,1.0282,1.0318,1.0298,1.0283,1.0283,1.0283,1.0298,1.0287,1.0318,0.9925,0.7732,0.7148,0.7276,0.7072,0.7009,0.7014,0.7017,0.6979,0.7009,0.6995,0.6996,0.643,0.4152,0.3618,0.3586,0.3617,0.358,0.358,0.3581,0.1653,0.0,0.0,0.0,-0.0827,-0.3331,-0.367,-0.3893,-0.4428,-0.4485,-0.4515,-0.4512,-0.4518,-0.5666,-0.853,-0.8788,-0.8809,-0.8789,-1.1381,-1.2913,-1.2894,-1.2889,-1.2889,-1.2889,-1.2899,-1.4087,-1.6515,-1.6483,-1.5358,-1.3274,-1.5486,-1.6481,0.0,0.0,0.0,0.0,0.0,0.0,0.0,0.0,0.0,0.0,0.0,0.0,0.0,0.0,0.0,0.0,0.0,0.0,0.0,0.0,0.0,0.0,0.0,0.0,0.0,0.0,0.0,0.0,0.0,0.0,1.0564,1.0184,0.991,0.9714,0.9867,0.9941,0.997,0.9858,0.977,0.0,0.9653,0.9653,0.9639,0.8905,0.8407,0.8158,0.8963,0.9032,0.8626,0.8936,0.9576,1.0298,1.0291,1.0291,1.0283,1.0283,1.0283,1.0288,1.0312,1.0317,0.993,0.7717,0.8186,0.926,0.7515,0.7017,0.6999,0.7007,0.6989,0.6995,0.6982,0.7002,0.6435,0.4158,0.3579,0.3615,0.3578,0.358,0.3583,0.3592,0.1652,0.0,0.0,0.0,-0.0986,-0.3888,-0.4312,-0.434,-0.447,-0.4485,-0.4506,-0.4479,-0.4504,-0.5655,-0.858,-0.8778,-0.8805,-0.8786,-1.1365,-1.2886,-1.2881,-1.292,-1.292,-1.292,-1.2901,-1.4068,-1.6504,-1.6506,-1.6231,-1.5763,-1.6249,-1.6479,0.0,0.0,0.0,0.0,0.0,0.0,0.0,0.0,0.0,0.0,0.0,0.0,0.0,0.0,0.0,0.0,0.0,0.0,0.0,0.0,0.0,0.0,0.0,0.0,0.0,0.0,0.0,0.0,0.0,1.1003,1.0471,1.0134,0.9867,0.9646,0.9822,0.9899,0.9899,0.9899,0.9899,0.9899,0.9899,0.9783,0.955,0.9068,0.8562,0.8122,0.8725,0.8659,0.8169,0.8337,0.864,0.9145,0.999,1.0307,1.0301,1.0302,1.0283,1.0283,1.0283,1.0283,1.0124,0.895,0.9355,1.009,0.8922,0.7855,0.6981,0.7011,0.6979,0.6979,0.6979,0.7018,0.6694,0.5526,0.4374,0.359,0.3619,0.358,0.3263,0.2098,0.0863,0.0,0.0,-0.0938,-0.2352,-0.4207,-0.4474,-0.4511,-0.4493,-0.4502,-0.4481,-0.4506,-0.5718,-0.7157,-0.8659,-0.882,-0.8792,-0.8776,-1.1384,-1.2883,-1.2891,-1.2885,-1.288,-1.2881,-1.2886,-1.4098,-1.649,-1.6483,-1.6486,-1.6479,-1.6498,-1.6498,0.0,0.0,0.0,0.0,0.0,0.0,0.0,0.0,0.0,0.0,0.0,0.0,0.0,0.0,0.0,0.0,0.0,0.0,0.0,0.0,0.0,0.0,0.0,0.0,0.0,0.0,0.0,0.0,0.0,1.0656,1.0556,1.015,0.9899,0.9899,0.9899,0.9899,0.9899,0.9899,0.9899,0.9899,0.9899,0.9693,0.9316,0.9437,0.9179,0.8623,0.8445,0.8121,0.7718,0.7989,0.8087,0.8208,0.9372,1.0046,1.0282,1.0298,1.0312,1.0283,1.0283,1.0308,1.0292,1.0312,1.032,1.0236,0.983,0.8438,0.6987,0.7004,0.7011,0.6979,0.6979,0.7009,0.6903,0.6523,0.4986,0.3602,0.3612,0.3581,0.2993,0.1024,0.0267,-0.0134,-0.0541,-0.2352,-0.3925,-0.4435,-0.4527,-0.4496,-0.4518,-0.491,-0.5239,-0.5263,-0.7402,-0.8801,-0.879,-0.9252,-0.9515,-0.9532,-1.163,-1.2885,-1.288,-1.291,-1.3077,-1.3522,-1.3109,-1.4105,-1.649,-1.651,-1.649,-1.6489,-1.6497,-1.6511,0.0,0.0,0.0,0.0,0.0,0.0,0.0,0.0,0.0,0.0,0.0,0.0,0.0,0.0,0.0,0.0,0.0,0.0,0.0,0.0,0.0,0.0,0.0,0.0,0.0,0.0,0.0,0.0,1.0744,1.0493,1.0031,0.9943,0.9899,0.9899,0.9899,0.9899,0.9899,0.9899,0.9899,0.9899,0.9899,0.9873,0.9809,0.9816,0.9564,0.9066,0.8174,0.7773,0.7801,0.9085,0.962,0.9518,0.8441,0.8987,1.0293,1.0302,1.0308,1.0283,1.0283,1.0293,1.0303,1.0288,1.0312,0.9932,0.8008,0.7225,0.7004,0.7,0.6981,0.6979,0.6979,0.6989,0.6483,0.452,0.3821,0.3621,0.3615,0.3588,0.3504,0.3185,0.1426,-0.0675,-0.276,-0.3817,-0.4427,-0.4506,-0.449,-0.4518,-0.4494,-0.6655,-0.8223,-0.8218,-0.8564,-0.8781,-0.8775,-1.0997,-1.2373,-1.2348,-1.2712,-1.2876,-1.2917,-1.2877,-1.3878,-1.5968,-1.3992,-1.4088,-1.649,-1.651,-1.6487,-1.6517,-1.6494,-1.6506,0.0,0.0,0.0,0.0,0.0,0.0,0.0,0.0,0.0,0.0,0.0,0.0,0.0,0.0,0.0,0.0,0.0,0.0,0.0,0.0,0.0,0.0,0.0,0.0,0.0,0.0,0.0,0.0,1.0263,1.0157,0.9918,0.9899,0.9899,0.9899,0.9899,0.9899,0.9899,0.9899,0.9899,0.9899,0.9899,0.9899,0.9899,0.9899,0.9788,0.9577,0.9114,0.8932,0.8992,0.9626,0.9899,0.9765,0.8268,0.8173,0.8958,0.9945,1.0283,1.0283,1.0283,1.0283,1.0283,1.0283,1.0288,1.0111,0.9151,0.8865,0.8589,0.7331,0.7012,0.6979,0.6979,0.7003,0.6407,0.414,0.3604,0.3607,0.3585,0.3588,0.3202,0.184,-0.0369,-0.2358,-0.3405,-0.409,-0.4483,-0.4515,-0.5876,-0.6887,-0.6894,-0.8003,-0.8814,-0.8801,-0.8795,-0.882,-0.8779,-1.1302,-1.29,-1.288,-1.291,-1.289,-1.2919,-1.4212,-1.5401,-1.6484,-1.4121,-1.4089,-1.6477,-1.6492,-1.6502,-1.6528,-1.7725,-1.9103,0.0,0.0,0.0,0.0,0.0,0.0,0.0,0.0,0.0,0.0,0.0,0.0,0.0,0.0,0.0,0.0,0.0,0.0,0.0,0.0,0.0,0.0,0.0,0.0,0.0,0.0,0.0,0.0,0.9899,0.9899,0.9899,0.9899,0.9899,0.9899,0.9899,0.9899,0.9899,0.9899,0.9899,0.9899,0.9899,0.9899,0.9899,0.9899,0.9899,0.9905,0.9901,0.9909,0.9912,0.9908,0.9892,0.9745,0.827,0.8279,0.9202,1.0006,1.0308,1.0302,1.0302,1.0293,1.0283,1.0283,1.0303,1.0297,1.0297,1.0295,0.983,0.7606,0.6979,0.6979,0.7014,0.7012,0.6428,0.4146,0.3618,0.3583,0.3595,0.3135,0.2161,0.0371,-0.2076,-0.3807,-0.3835,-0.4788,-0.5608,-0.5617,-0.7412,-0.879,-0.8781,-0.8825,-0.8808,-0.8814,-0.9081,-0.9155,-0.8812,-1.1335,-1.2921,-1.2895,-1.2881,-1.2913,-1.2901,-1.5228,-1.6487,-1.6508,-1.4713,-1.4683,-1.6509,-1.6486,-1.6489,-1.6564,-1.9402,-2.1758,0.0,0.0,0.0,0.0,0.0,0.0,0.0,0.0,0.0,0.0,0.0,0.0,0.0,0.0,0.0,0.0,0.0,0.0,0.0,0.0,0.0,0.0,0.0,0.0,0.0,0.0,0.0,0.0,0.9899,0.9899,0.9899,0.9899,0.9899,0.9899,0.9899,0.9899,0.9899,0.9899,0.9899,0.9899,0.9899,0.9899,0.9899,0.9899,0.9899,0.9899,0.9905,0.9905,0.9899,0.9912,0.9909,0.9766,0.8284,0.9846,1.2705,1.0955,1.0313,1.0306,1.0306,1.0281,1.0283,1.0283,1.0288,1.0293,1.0293,1.0296,0.9826,0.763,0.7008,0.7017,0.6997,0.7003,0.6443,0.4148,0.3597,0.3583,0.3595,0.1789,0.0134,0.0045,-0.2413,-0.4468,-0.4437,-0.6721,-0.857,-0.8568,-0.8723,-0.8778,-0.8821,-0.8814,-0.8811,-0.8808,-0.9911,-1.019,-0.8917,-1.1303,-1.2914,-1.2891,-1.2881,-1.2907,-1.2909,-1.5206,-1.6477,-1.6516,-1.6361,-1.6355,-1.6509,-1.6486,-1.6517,-1.6613,-2.1238,-2.3477,0.0,0.0,0.0,0.0,0.0,0.0,0.0,0.0,0.0,0.0,0.0,0.0,0.0,0.0,0.0,0.0,0.0,0.0,0.0,0.0,0.0,0.0,0.0,0.0,0.0,0.0,0.0,0.0,0.0,0.9899,0.9899,0.9899,0.9899,0.9899,0.9899,0.9899,0.9899,0.9899,0.9899,0.9899,0.9899,0.9899,0.9899,0.9899,0.9899,0.9899,0.9899,0.9899,0.9899,0.9899,0.9903,0.9856,0.932,0.9932,1.1155,1.1895,1.215,1.1979,1.0723,1.0314,1.0283,1.0283,1.0283,1.0283,1.0283,1.0312,0.9819,0.7635,0.8016,0.8773,0.7384,0.5908,0.4601,0.3787,0.361,0.3188,0.1606,0.0625,0.0,0.0,-0.0862,-0.2126,-0.3663,-0.5102,-0.668,-0.8531,-0.8809,-0.8803,-0.8788,-0.8808,-0.8808,-0.8808,-0.9246,-1.0041,-1.1336,-1.2337,-1.2902,-1.2895,-1.2881,-1.3236,-1.4001,-1.5619,-1.6516,-1.6485,-1.6515,-1.651,-1.6492,-1.651,-1.6506,-1.6565,-1.9677,-2.2002,0.0,0.0,0.0,0.0,0.0,0.0,0.0,0.0,0.0,0.0,0.0,0.0,0.0,0.0,0.0,0.0,0.0,0.0,0.0,0.0,0.0,0.0,0.0,0.0,0.0,0.0,0.0,0.0,0.0,0.0,0.9899,0.9899,0.99,0.9893,0.9894,0.99,0.9893,0.99,0.9899,0.9899,0.9899,0.9899,0.9899,0.9899,0.9899,0.9899,0.9899,0.9899,0.9899,0.9899,0.9898,0.9912,0.9915,0.9903,1.0073,1.1548,1.2562,1.2923,1.0978,1.0301,1.0312,1.0302,1.0283,1.0283,1.0283,1.0288,1.0005,0.8536,0.8631,0.8873,0.7377,0.5868,0.4526,0.376,0.3578,0.2922,0.0535,0.0,0.0,0.0,-0.0671,-0.1776,-0.3596,-0.4712,-0.6152,-0.843,-0.8817,-0.882,-0.8784,-0.8808,-0.8808,-0.8808,-0.9211,-1.0173,-1.1842,-1.2557,-1.2918,-1.2895,-1.2881,-1.3266,-1.4052,-1.5654,-1.6502,-1.6498,-1.651,-1.6515,-1.6515,-1.6515,-1.6514,-1.6517,-1.7946,-2.042,0.0,0.0,0.0,0.0,0.0,0.0,0.0,0.0,0.0,0.0,0.0,0.0,0.0,0.0,0.0,0.0,0.0,0.0,0.0,0.0,0.0,0.0,0.0,0.0,0.0,0.0,0.0,0.0,0.9899,0.9899,0.9899,0.9899,0.9906,0.9899,0.9912,0.9893,0.9903,0.9912,0.9893,0.9912,0.9893,0.9899,0.9899,0.9899,0.9899,0.9899,0.9899,0.9899,0.9899,0.9899,0.9899,0.9899,0.9899,0.9888,0.9895,0.9901,1.1265,1.2821,1.094,1.0339,1.038,1.0308,1.0281,1.0283,1.0283,1.0283,1.0296,1.03,0.8716,0.7014,0.6981,0.694,0.632,0.412,0.3542,0.2869,0.0492,-0.0045,-0.0089,-0.0089,-0.1984,-0.3795,-0.4409,-0.5956,-0.751,-0.8546,-0.8761,-0.8784,-0.8791,-0.8804,-0.8808,-0.8808,-0.9965,-1.0586,-1.0265,-1.1855,-1.2827,-1.2876,-1.2881,-1.289,-1.2929,-1.5147,-1.6448,-1.6515,-1.6498,-1.6479,-1.6515,-1.6515,-1.6511,-1.6513,-1.6574,-1.91,0.6705,0.0,0.0,0.0,0.0,0.0,0.0,0.0,0.0,0.0,0.0,0.0,0.0,0.0,0.0,0.0,0.0,0.0,0.0,0.0,0.0,0.0,0.0,0.0,0.0,0.0,0.0,0.0,0.9899,0.9899,0.9899,0.9899,0.9906,0.9894,0.99,0.9893,0.9903,0.9912,0.9913,0.9897,0.9888,0.9899,0.9899,0.9899,0.9899,0.9899,0.9899,0.9899,0.9899,0.9899,0.9899,0.9899,0.9899,0.9904,0.9911,0.99,1.0301,1.0746,1.0409,1.1204,1.2186,1.0776,1.0281,1.0283,1.0283,1.0303,1.0288,1.0293,0.872,0.6994,0.6995,0.5779,0.437,0.3772,0.2266,0.0802,0.0134,-0.1384,-0.2599,-0.2599,-0.3147,-0.3823,-0.4521,-0.631,-0.7554,-0.7196,-0.7856,-0.8362,-0.8352,-0.8619,-0.9012,-0.9462,-0.9413,-0.9707,-1.0535,-1.1111,-1.1584,-1.208,-1.2613,-1.3084,-1.3517,-1.3763,-1.4702,-1.6458,-1.6497,-1.6486,-1.6515,-1.6515,-1.652,-1.6549,-1.8096,-2.0545,0.0,0.0,0.0,0.0,0.0,0.0,0.0,0.9491,0.0,0.0,0.0,0.0,0.0,0.0,0.0,0.0,0.0,0.0,0.0,0.0,0.0,0.0,0.0,0.0,0.0,0.9899,0.9899,0.9899,0.9899,0.9899,0.9899,0.9899,0.9887,0.9899,0.9907,0.9893,0.9903,0.9465,0.9465,0.9896,0.9907,0.9899,0.9899,0.9887,0.9899,0.9899,0.9899,0.9899,0.9899,0.9899,0.9899,0.9899,0.9899,0.9899,0.9898,0.9907,0.9895,0.9933,1.0091,1.148,1.2882,1.0946,1.0298,1.0318,1.0288,1.0312,1.0303,1.0304,0.8716,0.7021,0.7006,0.529,0.3594,0.36,0.1777,0.0,0.0,-0.1876,-0.3595,-0.359,-0.3832,-0.4237,-0.4868,-0.6288,-0.733,-0.7238,-0.7811,-0.8332,-0.8456,-0.8645,-0.8959,-0.9364,-0.951,-0.9965,-1.0712,-1.1065,-1.1521,-1.2187,-1.2344,-1.274,-1.342,-1.3099,-1.3813,-1.5733,-1.6232,-1.6498,-1.6515,-1.6494,-1.6497,-1.6546,-1.8713,-2.053,0.0,0.0,0.0,0.0,0.0,0.0,0.9843,0.9288,0.8866,0.0,0.0,0.0,0.0,0.0,0.0,0.0,0.0,0.0,0.0,0.0,0.0,0.0,0.0,0.0,0.9905,0.9899,0.9899,0.9899,0.9899,0.9899,0.9899,0.9899,0.9894,0.9891,0.99,0.9893,0.9903,0.8957,0.8824,0.9546,0.9532,0.9674,0.991,0.9893,0.9893,0.9899,0.9899,0.9899,0.9899,0.9899,0.9899,0.9899,0.9899,0.9899,0.9899,0.9899,0.9888,0.9898,0.9897,1.1365,1.2908,1.1168,1.0464,1.0354,1.058,1.0477,1.0298,1.0306,0.8724,0.7006,0.7009,0.5305,0.3599,0.358,0.174,0.0,0.0,-0.1878,-0.3638,-0.3759,-0.4276,-0.4844,-0.5226,-0.6002,-0.6905,-0.7931,-0.8224,-0.842,-0.8677,-0.8768,-0.8808,-0.891,-0.9913,-1.0618,-1.0665,-1.1266,-1.1877,-1.2622,-1.2133,-1.2133,-1.2876,-1.2902,-1.3466,-1.463,-1.5867,-1.6561,-1.6674,-1.6815,-1.685,-1.6889,-1.8821,-1.9694,0.0,0.0,0.0,0.0,0.0,0.0,0.8363,0.8286,0.8459,0.0,0.0,0.0,0.0,0.0,0.0,0.0,0.0,0.0,0.0,0.0,0.0,0.0,0.0,0.0,0.9925,0.9899,0.9899,0.9899,0.9899,0.9899,0.9899,0.9899,0.99,0.9907,0.9893,0.9893,0.9903,0.9691,0.8791,0.7252,0.7234,0.8175,0.9896,0.9897,0.9903,0.9899,0.9899,0.9899,0.9899,0.9899,0.9899,0.9899,0.9899,0.9899,0.9899,0.9899,0.991,0.9903,0.9901,1.1349,1.3148,1.2755,1.1572,1.0596,1.2149,1.1556,1.0286,1.0304,0.8696,0.7006,0.7009,0.5305,0.3599,0.358,0.174,0.0,0.0,-0.1876,-0.386,-0.478,-0.481,-0.4849,-0.5227,-0.5853,-0.6507,-0.7134,-0.7656,-0.8036,-0.8048,-0.8514,-0.9012,-0.9566,-0.9361,-0.9413,-0.9965,-1.0115,-1.047,-1.1174,-1.1566,-1.2133,-1.2876,-1.289,-1.3301,-1.4187,-1.5726,-1.6905,-1.7787,-1.8652,-1.9069,-1.9084,-1.9498,-1.9693,0.0,0.0,0.0,0.833,0.0,0.0,0.0,0.8099,0.8264,0.9213,0.0,0.0,0.0,0.0,0.0,0.0,0.0,0.0,0.0,0.0,0.0,0.0,0.0,0.0,1.016,1.0141,1.0141,1.0141,0.9995,0.9976,1.0141,0.9995,0.9899,0.9899,0.9899,0.99,0.9903,0.9903,0.9337,0.8231,0.7124,0.7176,0.829,0.9399,0.9903,0.9891,0.9907,0.9899,0.9899,0.9899,0.9899,0.9899,0.9899,0.9899,0.9899,0.9899,0.9899,0.9898,0.9903,1.0634,1.1558,1.1562,1.1659,1.1936,1.2886,1.1855,1.0288,1.0293,0.8717,0.6993,0.6999,0.5305,0.3599,0.358,0.174,0.0,0.0,-0.1875,-0.3948,-0.5091,-0.53,-0.5412,-0.5701,-0.6215,-0.6734,-0.7178,-0.7635,-0.7983,-0.8133,-0.8534,-0.891,-0.9263,-0.9312,-0.9409,-0.9762,-0.9814,-1.0064,-1.0767,-1.1116,-1.162,-1.2344,-1.2715,-1.3357,-1.438,-1.5475,-1.6471,-1.7312,-1.8385,-1.9166,-1.9714,-1.9694,-1.9708,0.0,0.0,0.0,0.0,0.0,0.82,0.0,0.0,0.0,0.93,0.0,0.0,0.0,0.0,0.0,0.0,0.0,0.0,0.0,0.0,0.0,0.0,0.0,0.0,0.0,1.0272,1.0259,1.0389,1.0038,0.995,1.0304,1.0046,0.9899,0.9899,0.9899,0.9899,0.9899,0.9908,0.9891,0.989,0.8099,0.724,0.728,0.8633,0.9504,0.9889,0.9913,0.9899,0.9899,0.9899,0.9899,0.9899,0.9899,0.9899,0.9899,0.9899,0.9899,0.9891,0.9885,0.99,0.9914,0.9908,1.1146,1.2631,1.265,1.1566,1.0297,1.0282,0.8721,0.7011,0.6993,0.5313,0.3608,0.3581,0.174,0.0,0.0,-0.1874,-0.3945,-0.5084,-0.5745,-0.6136,-0.6187,-0.6644,-0.7104,-0.7345,-0.7642,-0.7949,-0.825,-0.8544,-0.8744,-0.8801,-0.926,-0.9614,-0.9614,-0.9614,-0.9913,-1.0568,-1.0716,-1.1116,-1.176,-1.2642,-1.3615,-1.4658,-1.5276,-1.5952,-1.6674,-1.7626,-1.8588,-1.9494,-1.9617,-1.9682,0.0,0.0,0.0,0.0,0.9982,0.0,0.0,0.0,0.8657,0.822,0.0,0.0,0.0,0.0,0.0,0.0,0.0,0.0,0.0,0.0,0.0,0.0,0.0,0.0,0.0,0.9869,0.976,1.0363,0.9808,0.9613,0.9945,0.9925,0.9899,0.9899,0.9899,0.9899,0.9899,0.9913,0.9899,0.9896,0.9644,0.9525,0.9467,0.7746,0.8056,0.99,0.9912,0.9899,0.9899,0.9899,0.9899,0.9899,0.9899,0.9899,0.9899,0.9899,0.9899,0.9905,0.9891,0.9904,0.9911,0.9909,1.0234,1.0641,1.0622,1.0477,1.0305,1.0288,0.8704,0.7004,0.7016,0.5295,0.3593,0.3588,0.174,0.0,0.0,-0.1915,-0.3928,-0.5096,-0.6151,-0.6711,-0.6279,-0.6644,-0.7034,-0.7068,-0.7328,-0.7632,-0.7943,-0.824,-0.8524,-0.8778,-0.8857,-0.8906,-0.8906,-0.8906,-0.9211,-0.9862,-1.0462,-1.1116,-1.176,-1.3039,-1.4009,-1.4703,-1.5276,-1.6151,-1.7188,-1.782,-1.834,-1.8761,-1.9398,-1.9682,0.0,0.0,0.0,0.0,0.0,0.0,0.8449,0.0,0.8204,0.0,0.0,0.0,0.0,0.0,0.0,0.0,0.0,0.0,0.0,0.0,0.0,0.0,0.0,0.0,0.0,0.0,0.0,0.0,0.972,0.9504,1.0425,1.0298,1.0185,1.0185,0.9995,0.9906,0.9912,0.99,0.9907,0.9899,0.99,0.9896,0.9877,0.8932,0.9028,0.9895,0.9893,0.9888,0.9899,0.9899,0.9899,0.9899,0.9899,0.9899,0.9899,0.9899,0.9899,0.9899,0.9899,0.9899,1.0105,1.1398,1.113,1.0314,1.0283,1.0307,1.0013,0.8763,0.7729,0.6716,0.5361,0.4324,0.3229,0.1824,0.0756,-0.04,-0.1784,-0.2905,-0.3926,-0.5091,-0.624,-0.6933,-0.6705,-0.6855,-0.6979,-0.6979,-0.7275,-0.7557,-0.7645,-0.808,-0.842,-0.8544,-0.8707,-0.8808,-0.8808,-0.8808,-0.8906,-0.9211,-1.0214,-1.1275,-1.2398,-1.2992,-1.3557,-1.4149,-1.4784,-1.5493,-1.6318,-1.7524,-1.8173,-1.8321,-1.928,-1.9682,1.0731,0.0,0.0,0.0,0.0,0.0,0.0,0.0,0.0,0.0,0.0,0.0,0.0,0.0,0.0,0.0,0.0,0.0,0.0,0.0,0.0,0.0,0.0,0.0,0.0,0.0,0.0,0.0,0.0,0.9401,1.0558,1.0483,1.0353,1.0279,1.0154,1.0033,0.9899,0.9894,0.99,0.9907,0.9897,0.9568,0.9012,0.9629,1.0083,1.0403,1.0047,0.9894,0.9899,0.9899,0.9899,0.9899,0.9899,0.9899,0.9899,0.9899,0.9899,0.9899,0.9899,0.9892,1.0094,1.1313,1.1058,1.0308,1.0286,1.0303,0.998,0.8367,0.748,0.6466,0.4176,0.3601,0.3137,0.1422,0.0489,-0.0666,-0.3093,-0.3588,-0.3926,-0.5091,-0.5969,-0.6649,-0.695,-0.6979,-0.6979,-0.6979,-0.7208,-0.7405,-0.7572,-0.7979,-0.8313,-0.8477,-0.8681,-0.8808,-0.8808,-0.8808,-0.8959,-0.9312,-1.0064,-1.1233,-1.2827,-1.272,-1.2982,-1.3768,-1.4376,-1.5056,-1.584,-1.7348,-1.8178,-1.8334,-1.9288,-1.9682,0.0,0.0,0.0,1.0303,0.0,0.0,0.0,0.0,0.965,0.0,0.0,0.0,0.0,0.0,0.0,0.0,0.0,0.0,0.0,0.0,0.0,0.0,0.0,0.0,0.0,0.0,0.0,0.0,0.0,0.0,0.9894,1.0235,1.026,0.9925,1.0344,1.0369,0.9893,0.9893,0.99,0.9909,0.9911,0.8783,0.6771,0.8915,1.0565,1.1672,1.044,0.9893,0.9899,0.9899,0.9899,0.9899,0.9899,0.9899,0.9899,0.9899,0.9899,0.9899,0.9899,0.9909,0.9675,0.8305,0.8963,1.0306,1.0312,1.0283,1.027,1.0214,0.8655,0.6497,0.4185,0.3608,0.3598,0.3496,0.1695,-0.0668,-0.3095,-0.3588,-0.3926,-0.5091,-0.5333,-0.5693,-0.6813,-0.6979,-0.6979,-0.6979,-0.7031,-0.7248,-0.7792,-0.7885,-0.8163,-0.8734,-0.8801,-0.8808,-0.8808,-0.8808,-0.9361,-1.0665,-1.0167,-1.0732,-1.2827,-1.2187,-1.2448,-1.3768,-1.4376,-1.5264,-1.6385,-1.7558,-1.8373,-1.8893,-1.9442,-1.9682,0.0,0.0,1.2828,1.0957,0.0,0.0,0.0,0.0,0.0,0.0,0.0,0.0,0.0,0.0,0.0,0.0,0.0,0.0,0.0,0.0,0.0,0.0,0.0,0.0,0.0,0.0,0.0,0.0,0.8926,0.0,0.0,1.0444,1.0757,1.0825,1.0587,1.0503,1.0552,1.057,1.0347,0.9919,1.0341,0.9182,0.6628,0.7383,0.8761,1.0523,1.01,0.99,0.9899,0.9899,0.9899,0.9899,0.9899,0.9899,0.9899,0.9899,0.9899,0.9899,0.9899,0.9899,0.985,0.9526,0.9838,1.0283,1.0282,1.0288,1.0285,1.0314,0.8708,0.6829,0.6067,0.4737,0.359,0.3587,0.1738,-0.0222,-0.1024,-0.2454,-0.3704,-0.4111,-0.4794,-0.5563,-0.6352,-0.6124,-0.6121,-0.6891,-0.6979,-0.7168,-0.7572,-0.7802,-0.8083,-0.8477,-0.8691,-0.8808,-0.8808,-0.9211,-0.9865,-1.0767,-1.1015,-1.1421,-1.2133,-1.2398,-1.2754,-1.3195,-1.4516,-1.5434,-1.5823,-1.7719,-1.8734,-1.893,-1.9722,-1.9929,1.149,1.2258,0.0,1.1178,1.1111,0.0,0.9593,0.0,0.0,0.0,0.0,0.0,0.0,0.0,0.0,0.0,0.0,0.0,0.0,0.0,0.0,0.0,0.0,0.0,0.0,0.0,0.7871,0.9113,0.8745,0.0,0.0,0.0,1.101,1.0966,1.0719,1.0684,1.0897,1.0787,1.0605,1.0352,1.0488,0.9821,0.8435,0.845,0.8978,0.9899,0.9892,0.9907,0.9899,0.9899,0.9899,0.9899,0.9899,0.9899,0.9899,0.9899,0.9899,0.9892,0.9906,0.9895,0.9948,1.0206,1.0307,1.0316,1.0297,1.0288,1.0127,0.9336,0.8103,0.7001,0.7016,0.532,0.3618,0.3583,0.1738,0.0,0.0,-0.1916,-0.3619,-0.3579,-0.4174,-0.4944,-0.5747,-0.5392,-0.543,-0.6807,-0.6852,-0.6956,-0.7579,-0.7806,-0.8086,-0.8487,-0.8694,-0.8808,-0.8808,-0.9409,-1.0064,-1.0767,-1.1216,-1.167,-1.2187,-1.2638,-1.2992,-1.3243,-1.4954,-1.5898,-1.6102,-1.7997,-1.9006,-1.9199,-1.9962,-2.0151]}]]